Wetterdaten: Samstag, 11.11.2017
Datum Zeit Temp. A. Pool Temp. Feuchte A. Luftdruck Regen Wind Richtung Richtung Sonnenschein ET UV Solar Taupunkt Windchill Windben Empfang
11.11.2017 00:00 6,3 C 7,8 C 93 % 1014,9 hPa 0,0 l/m 12,2 km/h (2 Bft) SW 222 0 min 0,000 mm 0,0 UV-I 0 W/m 5,3 C 2,1 C 17,7 km/h (3 Bft) 100,00 %
11.11.2017 00:02 6,3 C 7,8 C 93 % 1014,9 hPa 0,0 l/m 16,1 km/h (3 Bft) SW 232 0 min 0,000 mm 0,0 UV-I 0 W/m 5,3 C 0,1 C 16,1 km/h (3 Bft) 100,00 %
11.11.2017 00:04 6,3 C 7,8 C 93 % 1014,9 hPa 0,0 l/m 14,2 km/h (3 Bft) S-SW 209 0 min 0,000 mm 0,0 UV-I 0 W/m 5,3 C 1,1 C 20,9 km/h (4 Bft) 94,74 %
11.11.2017 00:06 6,3 C 7,8 C 93 % 1014,9 hPa 0,0 l/m 14,5 km/h (3 Bft) W-SW 251 0 min 0,000 mm 0,0 UV-I 0 W/m 5,3 C 0,9 C 22,5 km/h (4 Bft) 100,00 %
11.11.2017 00:08 6,3 C 7,8 C 93 % 1014,9 hPa 0,0 l/m 17,6 km/h (3 Bft) SW 233 0 min 0,000 mm 0,0 UV-I 0 W/m 5,3 C -0,5 C 25,7 km/h (4 Bft) 96,00 %
11.11.2017 00:10 6,4 C 7,8 C 93 % 1014,9 hPa 0,0 l/m 15,2 km/h (3 Bft) W 260 0 min 0,000 mm 0,0 UV-I 0 W/m 5,4 C 0,7 C 24,1 km/h (4 Bft) 100,00 %
11.11.2017 00:12 6,4 C 7,8 C 93 % 1014,9 hPa 0,0 l/m 11,2 km/h (2 Bft) SW 221 0 min 0,000 mm 0,0 UV-I 0 W/m 5,4 C 2,8 C 16,1 km/h (3 Bft) 100,00 %
11.11.2017 00:14 6,4 C 7,8 C 93 % 1014,9 hPa 0,0 l/m 14,4 km/h (3 Bft) W-SW 257 0 min 0,000 mm 0,0 UV-I 0 W/m 5,4 C 1,1 C 22,5 km/h (4 Bft) 98,00 %
11.11.2017 00:16 6,4 C 7,8 C 93 % 1014,8 hPa 0,0 l/m 17,2 km/h (3 Bft) W-SW 240 0 min 0,000 mm 0,0 UV-I 0 W/m 5,4 C -0,2 C 25,7 km/h (4 Bft) 100,00 %
11.11.2017 00:18 6,4 C 7,8 C 93 % 1014,8 hPa 0,0 l/m 15,6 km/h (3 Bft) SW 225 0 min 0,000 mm 0,0 UV-I 0 W/m 5,4 C 0,5 C 22,5 km/h (4 Bft) 100,00 %
11.11.2017 00:20 6,4 C 7,8 C 93 % 1014,8 hPa 0,0 l/m 13,4 km/h (3 Bft) S-SW 203 0 min 0,000 mm 0,0 UV-I 0 W/m 5,4 C 1,6 C 19,3 km/h (3 Bft) 95,74 %
11.11.2017 00:22 6,4 C 7,8 C 93 % 1014,8 hPa 0,0 l/m 14,9 km/h (3 Bft) W-SW 243 0 min 0,000 mm 0,0 UV-I 0 W/m 5,4 C 0,8 C 22,5 km/h (4 Bft) 100,00 %
11.11.2017 00:24 6,4 C 7,8 C 93 % 1014,8 hPa 0,2 l/m 17,7 km/h (3 Bft) W-SW 251 0 min 0,000 mm 0,0 UV-I 0 W/m 5,4 C -0,4 C 25,7 km/h (4 Bft) 97,56 %
11.11.2017 00:26 6,4 C 7,8 C 93 % 1014,8 hPa 0,0 l/m 16,0 km/h (3 Bft) SW 234 0 min 0,000 mm 0,0 UV-I 0 W/m 5,4 C 0,3 C 24,1 km/h (4 Bft) 100,00 %
11.11.2017 00:28 6,4 C 7,8 C 93 % 1014,8 hPa 0,0 l/m 13,8 km/h (3 Bft) W-SW 246 0 min 0,000 mm 0,0 UV-I 0 W/m 5,4 C 1,4 C 22,5 km/h (4 Bft) 96,43 %
11.11.2017 00:30 6,4 C 7,8 C 93 % 1014,7 hPa 0,0 l/m 19,0 km/h (3 Bft) SW 215 0 min 0,000 mm 0,0 UV-I 0 W/m 5,4 C -1,0 C 27,4 km/h (4 Bft) 100,00 %
11.11.2017 00:32 6,4 C 7,8 C 93 % 1014,7 hPa 0,0 l/m 17,3 km/h (3 Bft) S-SW 209 0 min 0,000 mm 0,0 UV-I 0 W/m 5,4 C -0,3 C 25,7 km/h (4 Bft) 100,00 %
11.11.2017 00:34 6,4 C 7,8 C 93 % 1014,7 hPa 0,0 l/m 17,9 km/h (3 Bft) SW 217 0 min 0,000 mm 0,0 UV-I 0 W/m 5,4 C -0,5 C 27,4 km/h (4 Bft) 100,00 %
11.11.2017 00:36 6,4 C 7,8 C 93 % 1014,7 hPa 0,0 l/m 15,0 km/h (3 Bft) SW 231 0 min 0,000 mm 0,0 UV-I 0 W/m 5,4 C 0,8 C 20,9 km/h (4 Bft) 100,00 %
11.11.2017 00:38 6,4 C 7,8 C 93 % 1014,7 hPa 0,0 l/m 17,9 km/h (3 Bft) S-SW 210 0 min 0,000 mm 0,0 UV-I 0 W/m 5,4 C -0,5 C 25,7 km/h (4 Bft) 100,00 %
11.11.2017 00:40 6,4 C 7,8 C 93 % 1014,6 hPa 0,0 l/m 15,5 km/h (3 Bft) S-SW 213 0 min 0,000 mm 0,0 UV-I 0 W/m 5,4 C 0,5 C 24,1 km/h (4 Bft) 98,00 %
11.11.2017 00:42 6,3 C 7,8 C 93 % 1014,7 hPa 0,0 l/m 16,1 km/h (3 Bft) W-SW 240 0 min 0,000 mm 0,0 UV-I 0 W/m 5,3 C 0,1 C 29,0 km/h (5 Bft) 100,00 %
11.11.2017 00:44 6,4 C 7,8 C 93 % 1014,7 hPa 0,0 l/m 17,2 km/h (3 Bft) SW 234 0 min 0,000 mm 0,0 UV-I 0 W/m 5,4 C -0,2 C 25,7 km/h (4 Bft) 100,00 %
11.11.2017 00:46 6,4 C 7,8 C 93 % 1014,7 hPa 0,0 l/m 12,2 km/h (2 Bft) S-SW 203 0 min 0,000 mm 0,0 UV-I 0 W/m 5,4 C 2,3 C 20,9 km/h (4 Bft) 97,87 %
11.11.2017 00:48 6,3 C 7,8 C 93 % 1014,7 hPa 0,0 l/m 13,8 km/h (3 Bft) W-SW 240 0 min 0,000 mm 0,0 UV-I 0 W/m 5,3 C 1,3 C 20,9 km/h (4 Bft) 100,00 %
11.11.2017 00:50 6,3 C 7,8 C 94 % 1014,6 hPa 0,2 l/m 18,6 km/h (3 Bft) S-SW 197 0 min 0,000 mm 0,0 UV-I 0 W/m 5,4 C -0,9 C 25,7 km/h (4 Bft) 100,00 %
11.11.2017 00:52 6,3 C 7,8 C 94 % 1014,6 hPa 0,0 l/m 17,1 km/h (3 Bft) SW 219 0 min 0,000 mm 0,0 UV-I 0 W/m 5,4 C -0,3 C 24,1 km/h (4 Bft) 100,00 %
11.11.2017 00:54 6,3 C 7,8 C 94 % 1014,6 hPa 0,0 l/m 14,2 km/h (3 Bft) W-SW 246 0 min 0,000 mm 0,0 UV-I 0 W/m 5,4 C 1,1 C 20,9 km/h (4 Bft) 100,00 %
11.11.2017 00:56 6,3 C 7,8 C 94 % 1014,5 hPa 0,0 l/m 15,7 km/h (3 Bft) SW 234 0 min 0,000 mm 0,0 UV-I 0 W/m 5,4 C 0,3 C 20,9 km/h (4 Bft) 100,00 %
11.11.2017 00:58 6,3 C 7,8 C 94 % 1014,6 hPa 0,2 l/m 12,2 km/h (2 Bft) S-SW 210 0 min 0,000 mm 0,0 UV-I 0 W/m 5,4 C 2,1 C 17,7 km/h (3 Bft) 100,00 %
11.11.2017 01:00 6,3 C 7,8 C 94 % 1014,5 hPa 0,0 l/m 11,4 km/h (2 Bft) SW 225 0 min 0,000 mm 0,0 UV-I 0 W/m 5,4 C 2,6 C 17,7 km/h (3 Bft) 100,00 %
11.11.2017 01:02 6,2 C 7,8 C 94 % 1014,5 hPa 0,0 l/m 11,8 km/h (2 Bft) W-SW 243 0 min 0,000 mm 0,0 UV-I 0 W/m 5,3 C 2,3 C 17,7 km/h (3 Bft) 100,00 %
11.11.2017 01:04 6,2 C 7,8 C 94 % 1014,5 hPa 0,0 l/m 13,1 km/h (3 Bft) S-SW 197 0 min 0,000 mm 0,0 UV-I 0 W/m 5,3 C 1,5 C 19,3 km/h (3 Bft) 100,00 %
11.11.2017 01:06 6,2 C 7,8 C 95 % 1014,5 hPa 0,0 l/m 15,9 km/h (3 Bft) W-SW 245 0 min 0,000 mm 0,0 UV-I 0 W/m 5,5 C 0,1 C 22,5 km/h (4 Bft) 100,00 %
11.11.2017 01:08 6,3 C 7,8 C 95 % 1014,6 hPa 0,0 l/m 13,5 km/h (3 Bft) S-SW 205 0 min 0,000 mm 0,0 UV-I 0 W/m 5,6 C 1,4 C 20,9 km/h (4 Bft) 100,00 %
11.11.2017 01:10 6,3 C 7,8 C 95 % 1014,5 hPa 0,0 l/m 17,7 km/h (3 Bft) SW 216 0 min 0,000 mm 0,0 UV-I 0 W/m 5,6 C -0,6 C 25,7 km/h (4 Bft) 97,56 %
11.11.2017 01:12 6,3 C 7,8 C 94 % 1014,5 hPa 0,0 l/m 18,0 km/h (3 Bft) W-SW 242 0 min 0,000 mm 0,0 UV-I 0 W/m 5,4 C -0,7 C 30,6 km/h (5 Bft) 100,00 %
11.11.2017 01:14 6,3 C 7,8 C 94 % 1014,5 hPa 0,0 l/m 21,1 km/h (4 Bft) SW 230 0 min 0,000 mm 0,0 UV-I 0 W/m 5,4 C -1,9 C 29,0 km/h (5 Bft) 100,00 %
11.11.2017 01:16 6,3 C 7,8 C 94 % 1014,5 hPa 0,0 l/m 18,2 km/h (3 Bft) SW 225 0 min 0,000 mm 0,0 UV-I 0 W/m 5,4 C -0,8 C 29,0 km/h (5 Bft) 100,00 %
11.11.2017 01:18 6,3 C 7,8 C 94 % 1014,5 hPa 0,0 l/m 17,8 km/h (3 Bft) W-SW 238 0 min 0,000 mm 0,0 UV-I 0 W/m 5,4 C -0,6 C 25,7 km/h (4 Bft) 100,00 %
11.11.2017 01:20 6,4 C 7,8 C 94 % 1014,5 hPa 0,0 l/m 17,3 km/h (3 Bft) SW 219 0 min 0,000 mm 0,0 UV-I 0 W/m 5,5 C -0,3 C 25,7 km/h (4 Bft) 100,00 %
11.11.2017 01:22 6,4 C 7,8 C 94 % 1014,6 hPa 0,2 l/m 14,5 km/h (3 Bft) W-SW 240 0 min 0,000 mm 0,0 UV-I 0 W/m 5,5 C 1,0 C 22,5 km/h (4 Bft) 100,00 %
11.11.2017 01:24 6,4 C 7,8 C 94 % 1014,5 hPa 0,0 l/m 16,1 km/h (3 Bft) W-SW 249 0 min 0,000 mm 0,0 UV-I 0 W/m 5,5 C 0,3 C 22,5 km/h (4 Bft) 100,00 %
11.11.2017 01:26 6,4 C 7,8 C 94 % 1014,5 hPa 0,0 l/m 18,2 km/h (3 Bft) SW 233 0 min 0,000 mm 0,0 UV-I 0 W/m 5,5 C -0,7 C 30,6 km/h (5 Bft) 97,37 %
11.11.2017 01:28 6,4 C 7,8 C 94 % 1014,5 hPa 0,2 l/m 19,6 km/h (3 Bft) W-SW 250 0 min 0,000 mm 0,0 UV-I 0 W/m 5,5 C -1,2 C 27,4 km/h (4 Bft) 98,21 %
11.11.2017 01:30 6,4 C 7,8 C 94 % 1014,5 hPa 0,0 l/m 16,3 km/h (3 Bft) W-SW 246 0 min 0,000 mm 0,0 UV-I 0 W/m 5,5 C 0,2 C 25,7 km/h (4 Bft) 97,14 %
11.11.2017 01:32 6,4 C 7,8 C 94 % 1014,5 hPa 0,0 l/m 16,2 km/h (3 Bft) SW 227 0 min 0,000 mm 0,0 UV-I 0 W/m 5,5 C 0,2 C 22,5 km/h (4 Bft) 98,00 %
11.11.2017 01:34 6,4 C 7,8 C 94 % 1014,5 hPa 0,0 l/m 14,2 km/h (3 Bft) W 259 0 min 0,000 mm 0,0 UV-I 0 W/m 5,5 C 1,2 C 24,1 km/h (4 Bft) 97,87 %
11.11.2017 01:36 6,4 C 7,8 C 94 % 1014,5 hPa 0,2 l/m 18,5 km/h (3 Bft) W-SW 244 0 min 0,000 mm 0,0 UV-I 0 W/m 5,5 C -0,8 C 27,4 km/h (4 Bft) 96,00 %
11.11.2017 01:38 6,4 C 7,8 C 94 % 1014,5 hPa 0,0 l/m 16,4 km/h (3 Bft) SW 234 0 min 0,000 mm 0,0 UV-I 0 W/m 5,5 C 0,1 C 22,5 km/h (4 Bft) 92,45 %
11.11.2017 01:40 6,4 C 7,8 C 94 % 1014,5 hPa 0,0 l/m 17,3 km/h (3 Bft) W-SW 256 0 min 0,000 mm 0,0 UV-I 0 W/m 5,5 C -0,3 C 24,1 km/h (4 Bft) 94,74 %
11.11.2017 01:42 6,4 C 7,8 C 94 % 1014,5 hPa 0,0 l/m 17,5 km/h (3 Bft) SW 232 0 min 0,000 mm 0,0 UV-I 0 W/m 5,5 C -0,4 C 24,1 km/h (4 Bft) 97,56 %
11.11.2017 01:44 6,4 C 7,8 C 94 % 1014,5 hPa 0,2 l/m 18,9 km/h (3 Bft) SW 223 0 min 0,000 mm 0,0 UV-I 0 W/m 5,5 C -0,9 C 29,0 km/h (5 Bft) 96,43 %
11.11.2017 01:46 6,4 C 7,8 C 94 % 1014,5 hPa 0,0 l/m 15,4 km/h (3 Bft) S-SW 192 0 min 0,000 mm 0,0 UV-I 0 W/m 5,5 C 0,6 C 20,9 km/h (4 Bft) 97,44 %
11.11.2017 01:48 6,4 C 7,8 C 94 % 1014,5 hPa 0,0 l/m 14,8 km/h (3 Bft) SW 217 0 min 0,000 mm 0,0 UV-I 0 W/m 5,5 C 0,9 C 22,5 km/h (4 Bft) 98,04 %
11.11.2017 01:50 6,4 C 7,8 C 94 % 1014,5 hPa 0,0 l/m 17,7 km/h (3 Bft) SW 231 0 min 0,000 mm 0,0 UV-I 0 W/m 5,5 C -0,4 C 24,1 km/h (4 Bft) 97,87 %
11.11.2017 01:52 6,4 C 7,8 C 94 % 1014,5 hPa 0,0 l/m 16,3 km/h (3 Bft) SW 232 0 min 0,000 mm 0,0 UV-I 0 W/m 5,5 C 0,2 C 27,4 km/h (4 Bft) 95,74 %
11.11.2017 01:54 6,4 C 7,8 C 94 % 1014,6 hPa 0,0 l/m 15,9 km/h (3 Bft) S-SW 207 0 min 0,000 mm 0,0 UV-I 0 W/m 5,5 C 0,3 C 24,1 km/h (4 Bft) 97,87 %
11.11.2017 01:56 6,4 C 7,8 C 94 % 1014,6 hPa 0,2 l/m 18,5 km/h (3 Bft) SW 219 0 min 0,000 mm 0,0 UV-I 0 W/m 5,5 C -0,8 C 27,4 km/h (4 Bft) 96,23 %
11.11.2017 01:58 6,4 C 7,8 C 94 % 1014,6 hPa 0,0 l/m 16,9 km/h (3 Bft) W-SW 244 0 min 0,000 mm 0,0 UV-I 0 W/m 5,5 C -0,1 C 24,1 km/h (4 Bft) 97,22 %
11.11.2017 02:00 6,4 C 7,8 C 94 % 1014,5 hPa 0,0 l/m 17,3 km/h (3 Bft) S-SW 209 0 min 0,000 mm 0,0 UV-I 0 W/m 5,5 C -0,3 C 24,1 km/h (4 Bft) 98,21 %
11.11.2017 02:02 6,4 C 7,8 C 94 % 1014,5 hPa 0,0 l/m 17,5 km/h (3 Bft) W-SW 255 0 min 0,000 mm 0,0 UV-I 0 W/m 5,5 C -0,4 C 29,0 km/h (5 Bft) 100,00 %
11.11.2017 02:04 6,4 C 7,8 C 94 % 1014,5 hPa 0,0 l/m 16,4 km/h (3 Bft) W-SW 237 0 min 0,000 mm 0,0 UV-I 0 W/m 5,5 C 0,1 C 29,0 km/h (5 Bft) 97,87 %
11.11.2017 02:06 6,4 C 7,8 C 94 % 1014,5 hPa 0,0 l/m 15,6 km/h (3 Bft) W-SW 246 0 min 0,000 mm 0,0 UV-I 0 W/m 5,5 C 0,5 C 27,4 km/h (4 Bft) 100,00 %
11.11.2017 02:08 6,3 C 7,8 C 94 % 1014,5 hPa 0,0 l/m 15,9 km/h (3 Bft) W-SW 245 0 min 0,000 mm 0,0 UV-I 0 W/m 5,4 C 0,2 C 24,1 km/h (4 Bft) 100,00 %
11.11.2017 02:10 6,4 C 7,8 C 94 % 1014,5 hPa 0,0 l/m 13,0 km/h (3 Bft) SW 229 0 min 0,000 mm 0,0 UV-I 0 W/m 5,5 C 1,8 C 24,1 km/h (4 Bft) 100,00 %
11.11.2017 02:12 6,3 C 7,8 C 94 % 1014,5 hPa 0,0 l/m 12,4 km/h (3 Bft) SW 223 0 min 0,000 mm 0,0 UV-I 0 W/m 5,4 C 2,0 C 22,5 km/h (4 Bft) 97,56 %
11.11.2017 02:14 6,4 C 7,8 C 94 % 1014,4 hPa 0,0 l/m 12,9 km/h (3 Bft) W-SW 247 0 min 0,000 mm 0,0 UV-I 0 W/m 5,5 C 1,9 C 19,3 km/h (3 Bft) 100,00 %
11.11.2017 02:16 6,3 C 7,8 C 94 % 1014,5 hPa 0,0 l/m 15,3 km/h (3 Bft) W-SW 247 0 min 0,000 mm 0,0 UV-I 0 W/m 5,4 C 0,5 C 22,5 km/h (4 Bft) 100,00 %
11.11.2017 02:18 6,4 C 7,8 C 94 % 1014,5 hPa 0,0 l/m 13,0 km/h (3 Bft) SW 223 0 min 0,000 mm 0,0 UV-I 0 W/m 5,5 C 1,8 C 20,9 km/h (4 Bft) 100,00 %
11.11.2017 02:20 6,3 C 7,8 C 94 % 1014,6 hPa 0,2 l/m 17,5 km/h (3 Bft) SW 222 0 min 0,000 mm 0,0 UV-I 0 W/m 5,4 C -0,5 C 24,1 km/h (4 Bft) 100,00 %
11.11.2017 02:22 6,3 C 7,8 C 94 % 1014,5 hPa 0,0 l/m 13,6 km/h (3 Bft) W-SW 250 0 min 0,000 mm 0,0 UV-I 0 W/m 5,4 C 1,4 C 19,3 km/h (3 Bft) 100,00 %
11.11.2017 02:24 6,3 C 7,8 C 94 % 1014,6 hPa 0,0 l/m 18,2 km/h (3 Bft) SW 226 0 min 0,000 mm 0,0 UV-I 0 W/m 5,4 C -0,8 C 29,0 km/h (5 Bft) 100,00 %
11.11.2017 02:26 6,3 C 7,8 C 94 % 1014,6 hPa 0,0 l/m 15,0 km/h (3 Bft) SW 225 0 min 0,000 mm 0,0 UV-I 0 W/m 5,4 C 0,7 C 22,5 km/h (4 Bft) 97,62 %
11.11.2017 02:28 6,3 C 7,8 C 95 % 1014,5 hPa 0,2 l/m 15,8 km/h (3 Bft) S-SW 211 0 min 0,000 mm 0,0 UV-I 0 W/m 5,6 C 0,3 C 20,9 km/h (4 Bft) 96,15 %
11.11.2017 02:30 6,3 C 7,8 C 95 % 1014,6 hPa 0,0 l/m 16,0 km/h (3 Bft) W-SW 241 0 min 0,000 mm 0,0 UV-I 0 W/m 5,6 C 0,2 C 20,9 km/h (4 Bft) 97,92 %
11.11.2017 02:32 6,3 C 7,8 C 95 % 1014,5 hPa 0,0 l/m 13,5 km/h (3 Bft) SW 227 0 min 0,000 mm 0,0 UV-I 0 W/m 5,6 C 1,4 C 19,3 km/h (3 Bft) 98,00 %
11.11.2017 02:34 6,3 C 7,8 C 95 % 1014,5 hPa 0,0 l/m 14,1 km/h (3 Bft) SW 227 0 min 0,000 mm 0,0 UV-I 0 W/m 5,6 C 1,1 C 20,9 km/h (4 Bft) 96,15 %
11.11.2017 02:36 6,3 C 7,8 C 95 % 1014,5 hPa 0,0 l/m 17,1 km/h (3 Bft) SW 232 0 min 0,000 mm 0,0 UV-I 0 W/m 5,6 C -0,3 C 27,4 km/h (4 Bft) 98,53 %
11.11.2017 02:38 6,3 C 7,8 C 95 % 1014,6 hPa 0,0 l/m 15,5 km/h (3 Bft) S-SW 205 0 min 0,000 mm 0,0 UV-I 0 W/m 5,6 C 0,4 C 25,7 km/h (4 Bft) 97,56 %
11.11.2017 02:40 6,3 C 7,8 C 95 % 1014,6 hPa 0,0 l/m 11,8 km/h (2 Bft) SW 236 0 min 0,000 mm 0,0 UV-I 0 W/m 5,6 C 2,4 C 19,3 km/h (3 Bft) 98,00 %
11.11.2017 02:42 6,3 C 7,8 C 95 % 1014,5 hPa 0,0 l/m 13,0 km/h (3 Bft) SW 234 0 min 0,000 mm 0,0 UV-I 0 W/m 5,6 C 1,7 C 19,3 km/h (3 Bft) 97,56 %
11.11.2017 02:44 6,3 C 7,8 C 95 % 1014,5 hPa 0,2 l/m 12,7 km/h (3 Bft) W-SW 240 0 min 0,000 mm 0,0 UV-I 0 W/m 5,6 C 1,9 C 16,1 km/h (3 Bft) 96,00 %
11.11.2017 02:46 6,2 C 7,8 C 95 % 1014,5 hPa 0,0 l/m 12,8 km/h (3 Bft) W-SW 237 0 min 0,000 mm 0,0 UV-I 0 W/m 5,5 C 1,7 C 17,7 km/h (3 Bft) 96,23 %
11.11.2017 02:48 6,2 C 7,8 C 95 % 1014,5 hPa 0,0 l/m 13,3 km/h (3 Bft) W-SW 241 0 min 0,000 mm 0,0 UV-I 0 W/m 5,5 C 1,4 C 20,9 km/h (4 Bft) 95,12 %
11.11.2017 02:50 6,3 C 7,8 C 95 % 1014,5 hPa 0,0 l/m 14,2 km/h (3 Bft) W-SW 253 0 min 0,000 mm 0,0 UV-I 0 W/m 5,6 C 1,1 C 22,5 km/h (4 Bft) 98,00 %
11.11.2017 02:52 6,3 C 7,8 C 95 % 1014,5 hPa 0,0 l/m 9,8 km/h (2 Bft) S-SW 213 0 min 0,000 mm 0,0 UV-I 0 W/m 5,6 C 3,6 C 14,5 km/h (3 Bft) 94,74 %
11.11.2017 02:54 6,3 C 7,8 C 95 % 1014,6 hPa 0,0 l/m 13,4 km/h (3 Bft) W-SW 256 0 min 0,000 mm 0,0 UV-I 0 W/m 5,6 C 1,5 C 20,9 km/h (4 Bft) 96,30 %
11.11.2017 02:56 6,2 C 7,8 C 95 % 1014,5 hPa 0,0 l/m 15,0 km/h (3 Bft) W-SW 240 0 min 0,000 mm 0,0 UV-I 0 W/m 5,5 C 0,5 C 20,9 km/h (4 Bft) 97,56 %
11.11.2017 02:58 6,3 C 7,8 C 95 % 1014,5 hPa 0,0 l/m 14,1 km/h (3 Bft) W-SW 242 0 min 0,000 mm 0,0 UV-I 0 W/m 5,6 C 1,1 C 17,7 km/h (3 Bft) 98,21 %
11.11.2017 03:00 6,3 C 7,8 C 95 % 1014,6 hPa 0,0 l/m 13,9 km/h (3 Bft) SW 232 0 min 0,000 mm 0,0 UV-I 0 W/m 5,6 C 1,2 C 22,5 km/h (4 Bft) 97,87 %
11.11.2017 03:02 6,3 C 7,8 C 95 % 1014,6 hPa 0,2 l/m 13,8 km/h (3 Bft) W-SW 254 0 min 0,000 mm 0,0 UV-I 0 W/m 5,6 C 1,3 C 20,9 km/h (4 Bft) 97,87 %
11.11.2017 03:04 6,3 C 7,8 C 95 % 1014,6 hPa 0,0 l/m 11,0 km/h (2 Bft) W-SW 242 0 min 0,000 mm 0,0 UV-I 0 W/m 5,6 C 2,9 C 17,7 km/h (3 Bft) 97,22 %
11.11.2017 03:06 6,3 C 7,8 C 95 % 1014,5 hPa 0,0 l/m 11,1 km/h (2 Bft) W-SW 244 0 min 0,000 mm 0,0 UV-I 0 W/m 5,6 C 2,8 C 16,1 km/h (3 Bft) 98,08 %
11.11.2017 03:08 6,3 C 7,8 C 95 % 1014,5 hPa 0,0 l/m 12,5 km/h (3 Bft) W 277 0 min 0,000 mm 0,0 UV-I 0 W/m 5,6 C 2,0 C 17,7 km/h (3 Bft) 96,23 %
11.11.2017 03:10 6,2 C 7,8 C 95 % 1014,6 hPa 0,0 l/m 11,8 km/h (2 Bft) W-SW 252 0 min 0,000 mm 0,0 UV-I 0 W/m 5,5 C 2,3 C 16,1 km/h (3 Bft) 97,62 %
11.11.2017 03:12 6,2 C 7,8 C 95 % 1014,5 hPa 0,0 l/m 8,9 km/h (2 Bft) W 279 0 min 0,000 mm 0,0 UV-I 0 W/m 5,5 C 4,2 C 12,9 km/h (3 Bft) 97,73 %
11.11.2017 03:14 6,2 C 7,8 C 95 % 1014,5 hPa 0,0 l/m 11,9 km/h (2 Bft) W 263 0 min 0,000 mm 0,0 UV-I 0 W/m 5,5 C 2,2 C 19,3 km/h (3 Bft) 98,00 %
11.11.2017 03:16 6,2 C 7,8 C 95 % 1014,5 hPa 0,0 l/m 12,8 km/h (3 Bft) W-SW 252 0 min 0,000 mm 0,0 UV-I 0 W/m 5,5 C 1,7 C 17,7 km/h (3 Bft) 98,00 %
11.11.2017 03:18 6,2 C 7,8 C 95 % 1014,6 hPa 0,2 l/m 12,6 km/h (3 Bft) W 263 0 min 0,000 mm 0,0 UV-I 0 W/m 5,5 C 1,8 C 17,7 km/h (3 Bft) 97,87 %
11.11.2017 03:20 6,2 C 7,8 C 95 % 1014,6 hPa 0,0 l/m 10,8 km/h (2 Bft) W-NW 293 0 min 0,000 mm 0,0 UV-I 0 W/m 5,5 C 2,9 C 14,5 km/h (3 Bft) 96,00 %
11.11.2017 03:22 6,2 C 7,8 C 95 % 1014,6 hPa 0,0 l/m 10,4 km/h (2 Bft) W 262 0 min 0,000 mm 0,0 UV-I 0 W/m 5,5 C 3,1 C 16,1 km/h (3 Bft) 95,12 %
11.11.2017 03:24 6,2 C 7,8 C 95 % 1014,7 hPa 0,0 l/m 9,7 km/h (2 Bft) W 264 0 min 0,000 mm 0,0 UV-I 0 W/m 5,5 C 3,6 C 14,5 km/h (3 Bft) 97,56 %
11.11.2017 03:26 6,2 C 7,8 C 96 % 1014,7 hPa 0,0 l/m 13,6 km/h (3 Bft) W 272 0 min 0,000 mm 0,0 UV-I 0 W/m 5,6 C 1,2 C 17,7 km/h (3 Bft) 92,68 %
11.11.2017 03:28 6,2 C 7,8 C 96 % 1014,8 hPa 0,2 l/m 14,1 km/h (3 Bft) W 267 0 min 0,000 mm 0,0 UV-I 0 W/m 5,6 C 1,0 C 27,4 km/h (4 Bft) 96,43 %
11.11.2017 03:30 6,1 C 7,8 C 96 % 1014,8 hPa 0,2 l/m 13,8 km/h (3 Bft) W 267 0 min 0,000 mm 0,0 UV-I 0 W/m 5,5 C 1,0 C 38,6 km/h (5 Bft) 97,87 %
11.11.2017 03:32 6,0 C 7,8 C 95 % 1014,7 hPa 0,2 l/m 26,6 km/h (4 Bft) W 261 0 min 0,000 mm 0,0 UV-I 0 W/m 5,3 C -4,1 C 38,6 km/h (5 Bft) 100,00 %
11.11.2017 03:34 5,9 C 7,8 C 95 % 1014,6 hPa 0,0 l/m 24,3 km/h (4 Bft) W 268 0 min 0,000 mm 0,0 UV-I 0 W/m 5,2 C -3,5 C 40,2 km/h (6 Bft) 97,37 %
11.11.2017 03:36 5,8 C 7,8 C 94 % 1014,6 hPa 0,0 l/m 22,3 km/h (4 Bft) W 274 0 min 0,000 mm 0,0 UV-I 0 W/m 4,9 C -3,0 C 33,8 km/h (5 Bft) 96,23 %
11.11.2017 03:38 5,8 C 7,8 C 94 % 1014,6 hPa 0,2 l/m 21,4 km/h (4 Bft) W-SW 257 0 min 0,000 mm 0,0 UV-I 0 W/m 4,9 C -2,7 C 29,0 km/h (5 Bft) 94,00 %
11.11.2017 03:40 5,7 C 7,8 C 93 % 1014,6 hPa 0,0 l/m 24,6 km/h (4 Bft) W 261 0 min 0,000 mm 0,0 UV-I 0 W/m 4,7 C -3,9 C 37,0 km/h (5 Bft) 97,73 %
11.11.2017 03:42 5,7 C 7,8 C 93 % 1014,6 hPa 0,0 l/m 23,5 km/h (4 Bft) W-SW 253 0 min 0,000 mm 0,0 UV-I 0 W/m 4,7 C -3,5 C 38,6 km/h (5 Bft) 98,00 %
11.11.2017 03:44 5,7 C 7,8 C 93 % 1014,6 hPa 0,0 l/m 20,0 km/h (4 Bft) W 261 0 min 0,000 mm 0,0 UV-I 0 W/m 4,7 C -2,3 C 33,8 km/h (5 Bft) 93,62 %
11.11.2017 03:46 5,6 C 7,8 C 93 % 1014,7 hPa 0,0 l/m 20,7 km/h (4 Bft) W 271 0 min 0,000 mm 0,0 UV-I 0 W/m 4,6 C -2,7 C 33,8 km/h (5 Bft) 98,00 %
11.11.2017 03:48 5,6 C 7,8 C 93 % 1014,7 hPa 0,0 l/m 18,5 km/h (3 Bft) NW 312 0 min 0,000 mm 0,0 UV-I 0 W/m 4,6 C -1,8 C 27,4 km/h (4 Bft) 95,83 %
11.11.2017 03:50 5,6 C 7,8 C 92 % 1014,7 hPa 0,0 l/m 17,5 km/h (3 Bft) W 263 0 min 0,000 mm 0,0 UV-I 0 W/m 4,4 C -1,4 C 29,0 km/h (5 Bft) 98,31 %
11.11.2017 03:52 5,6 C 7,8 C 92 % 1015,0 hPa 0,0 l/m 13,8 km/h (3 Bft) W 273 0 min 0,000 mm 0,0 UV-I 0 W/m 4,4 C 0,4 C 19,3 km/h (3 Bft) 98,11 %
11.11.2017 03:54 5,6 C 7,8 C 93 % 1015,0 hPa 0,0 l/m 12,8 km/h (3 Bft) SW 229 0 min 0,000 mm 0,0 UV-I 0 W/m 4,6 C 1,0 C 19,3 km/h (3 Bft) 97,56 %
11.11.2017 03:56 5,6 C 7,8 C 93 % 1014,9 hPa 0,0 l/m 13,7 km/h (3 Bft) W 271 0 min 0,000 mm 0,0 UV-I 0 W/m 4,6 C 0,5 C 20,9 km/h (4 Bft) 96,23 %
11.11.2017 03:58 5,5 C 7,8 C 93 % 1014,8 hPa 0,0 l/m 7,2 km/h (2 Bft) W 260 0 min 0,000 mm 0,0 UV-I 0 W/m 4,5 C 4,8 C 12,9 km/h (3 Bft) 98,11 %
11.11.2017 04:00 5,4 C 7,8 C 93 % 1014,8 hPa 0,0 l/m 6,4 km/h (2 Bft) W-SW 247 0 min 0,000 mm 0,0 UV-I 0 W/m 4,4 C 5,4 C 9,7 km/h (2 Bft) 97,14 %
11.11.2017 04:02 5,4 C 7,8 C 94 % 1014,8 hPa 0,0 l/m 7,5 km/h (2 Bft) W 261 0 min 0,000 mm 0,0 UV-I 0 W/m 4,5 C 4,4 C 16,1 km/h (3 Bft) 100,00 %
11.11.2017 04:04 5,4 C 7,8 C 94 % 1014,8 hPa 0,0 l/m 9,0 km/h (2 Bft) W-SW 250 0 min 0,000 mm 0,0 UV-I 0 W/m 4,5 C 3,2 C 17,7 km/h (3 Bft) 98,21 %
11.11.2017 04:06 5,4 C 7,8 C 94 % 1014,9 hPa 0,0 l/m 6,5 km/h (2 Bft) W 259 0 min 0,000 mm 0,0 UV-I 0 W/m 4,5 C 5,3 C 11,3 km/h (2 Bft) 97,14 %
11.11.2017 04:08 5,3 C 7,8 C 94 % 1014,9 hPa 0,0 l/m 8,0 km/h (2 Bft) W-NW 284 0 min 0,000 mm 0,0 UV-I 0 W/m 4,4 C 3,9 C 12,9 km/h (3 Bft) 98,21 %
11.11.2017 04:10 5,3 C 7,8 C 94 % 1014,9 hPa 0,0 l/m 6,5 km/h (2 Bft) W 279 0 min 0,000 mm 0,0 UV-I 0 W/m 4,4 C 5,2 C 14,5 km/h (3 Bft) 97,56 %
11.11.2017 04:12 5,3 C 7,8 C 94 % 1014,7 hPa 0,0 l/m 7,8 km/h (2 Bft) W-SW 253 0 min 0,000 mm 0,0 UV-I 0 W/m 4,4 C 4,1 C 16,1 km/h (3 Bft) 100,00 %
11.11.2017 04:14 5,3 C 7,8 C 94 % 1014,7 hPa 0,0 l/m 7,8 km/h (2 Bft) W 259 0 min 0,000 mm 0,0 UV-I 0 W/m 4,4 C 4,1 C 12,9 km/h (3 Bft) 100,00 %
11.11.2017 04:16 5,3 C 7,8 C 94 % 1014,8 hPa 0,0 l/m 12,0 km/h (2 Bft) W-SW 257 0 min 0,000 mm 0,0 UV-I 0 W/m 4,4 C 1,1 C 20,9 km/h (4 Bft) 100,00 %
11.11.2017 04:18 5,3 C 7,8 C 94 % 1014,7 hPa 0,0 l/m 12,2 km/h (2 Bft) W 273 0 min 0,000 mm 0,0 UV-I 0 W/m 4,4 C 1,0 C 19,3 km/h (3 Bft) 100,00 %
11.11.2017 04:20 5,3 C 7,8 C 94 % 1014,7 hPa 0,0 l/m 11,6 km/h (2 Bft) W 261 0 min 0,000 mm 0,0 UV-I 0 W/m 4,4 C 1,3 C 17,7 km/h (3 Bft) 100,00 %
11.11.2017 04:22 5,3 C 7,8 C 94 % 1014,7 hPa 0,0 l/m 9,6 km/h (2 Bft) W-SW 258 0 min 0,000 mm 0,0 UV-I 0 W/m 4,4 C 2,7 C 14,5 km/h (3 Bft) 98,11 %
11.11.2017 04:24 5,3 C 7,8 C 94 % 1014,7 hPa 0,0 l/m 9,2 km/h (2 Bft) W 279 0 min 0,000 mm 0,0 UV-I 0 W/m 4,4 C 3,0 C 16,1 km/h (3 Bft) 97,73 %
11.11.2017 04:26 5,3 C 7,8 C 94 % 1014,7 hPa 0,0 l/m 9,2 km/h (2 Bft) W 267 0 min 0,000 mm 0,0 UV-I 0 W/m 4,4 C 3,0 C 12,9 km/h (3 Bft) 100,00 %
11.11.2017 04:28 5,3 C 7,8 C 94 % 1014,6 hPa 0,0 l/m 7,6 km/h (2 Bft) W 262 0 min 0,000 mm 0,0 UV-I 0 W/m 4,4 C 4,3 C 9,7 km/h (2 Bft) 100,00 %
11.11.2017 04:30 5,3 C 7,8 C 94 % 1014,8 hPa 0,0 l/m 10,2 km/h (2 Bft) W-SW 246 0 min 0,000 mm 0,0 UV-I 0 W/m 4,4 C 2,3 C 14,5 km/h (3 Bft) 98,28 %
11.11.2017 04:32 5,3 C 7,8 C 94 % 1014,7 hPa 0,0 l/m 8,0 km/h (2 Bft) W-SW 254 0 min 0,000 mm 0,0 UV-I 0 W/m 4,4 C 3,9 C 14,5 km/h (3 Bft) 100,00 %
11.11.2017 04:34 5,3 C 7,8 C 94 % 1014,8 hPa 0,0 l/m 8,1 km/h (2 Bft) W 260 0 min 0,000 mm 0,0 UV-I 0 W/m 4,4 C 3,8 C 11,3 km/h (2 Bft) 100,00 %
11.11.2017 04:36 5,3 C 7,8 C 94 % 1014,9 hPa 0,0 l/m 8,6 km/h (2 Bft) W 261 0 min 0,000 mm 0,0 UV-I 0 W/m 4,4 C 3,4 C 12,9 km/h (3 Bft) 100,00 %
11.11.2017 04:38 5,3 C 7,8 C 94 % 1014,8 hPa 0,0 l/m 10,0 km/h (2 Bft) W 265 0 min 0,000 mm 0,0 UV-I 0 W/m 4,4 C 2,4 C 14,5 km/h (3 Bft) 98,00 %
11.11.2017 04:40 5,3 C 7,8 C 94 % 1014,9 hPa 0,0 l/m 8,1 km/h (2 Bft) W 268 0 min 0,000 mm 0,0 UV-I 0 W/m 4,4 C 3,8 C 12,9 km/h (3 Bft) 100,00 %
11.11.2017 04:42 5,3 C 7,8 C 94 % 1014,8 hPa 0,0 l/m 7,6 km/h (2 Bft) W 265 0 min 0,000 mm 0,0 UV-I 0 W/m 4,4 C 4,3 C 14,5 km/h (3 Bft) 100,00 %
11.11.2017 04:44 5,3 C 7,8 C 94 % 1014,8 hPa 0,0 l/m 6,8 km/h (2 Bft) W 277 0 min 0,000 mm 0,0 UV-I 0 W/m 4,4 C 5,0 C 11,3 km/h (2 Bft) 100,00 %
11.11.2017 04:46 5,3 C 7,8 C 94 % 1014,8 hPa 0,0 l/m 8,1 km/h (2 Bft) W-SW 244 0 min 0,000 mm 0,0 UV-I 0 W/m 4,4 C 3,8 C 12,9 km/h (3 Bft) 100,00 %
11.11.2017 04:48 5,3 C 7,8 C 94 % 1014,8 hPa 0,0 l/m 11,1 km/h (2 Bft) W-SW 257 0 min 0,000 mm 0,0 UV-I 0 W/m 4,4 C 1,7 C 17,7 km/h (3 Bft) 98,21 %
11.11.2017 04:50 5,3 C 7,8 C 94 % 1015,0 hPa 0,0 l/m 10,5 km/h (2 Bft) W-SW 248 0 min 0,000 mm 0,0 UV-I 0 W/m 4,4 C 2,1 C 14,5 km/h (3 Bft) 100,00 %
11.11.2017 04:52 5,3 C 7,8 C 94 % 1014,9 hPa 0,0 l/m 10,5 km/h (2 Bft) W-SW 257 0 min 0,000 mm 0,0 UV-I 0 W/m 4,4 C 2,1 C 17,7 km/h (3 Bft) 100,00 %
11.11.2017 04:54 5,3 C 7,8 C 94 % 1015,0 hPa 0,0 l/m 9,9 km/h (2 Bft) W-SW 244 0 min 0,000 mm 0,0 UV-I 0 W/m 4,4 C 2,5 C 12,9 km/h (3 Bft) 100,00 %
11.11.2017 04:56 5,3 C 7,8 C 94 % 1015,0 hPa 0,0 l/m 10,8 km/h (2 Bft) W-SW 251 0 min 0,000 mm 0,0 UV-I 0 W/m 4,4 C 1,9 C 16,1 km/h (3 Bft) 96,43 %
11.11.2017 04:58 5,3 C 7,8 C 94 % 1014,9 hPa 0,0 l/m 9,5 km/h (2 Bft) W 274 0 min 0,000 mm 0,0 UV-I 0 W/m 4,4 C 2,8 C 12,9 km/h (3 Bft) 100,00 %
11.11.2017 05:00 5,4 C 7,8 C 94 % 1015,0 hPa 0,0 l/m 9,7 km/h (2 Bft) W-SW 238 0 min 0,000 mm 0,0 UV-I 0 W/m 4,5 C 2,7 C 12,9 km/h (3 Bft) 100,00 %
11.11.2017 05:03 5,4 C 7,8 C 94 % 1015,0 hPa 0,0 l/m 8,6 km/h (2 Bft) W 259 0 min 0,000 mm 0,0 UV-I 0 W/m 4,5 C 3,5 C 16,1 km/h (3 Bft) 97,18 %
11.11.2017 05:04 5,5 C 7,8 C 94 % 1015,0 hPa 0,0 l/m 8,5 km/h (2 Bft) SW 235 0 min 0,000 mm 0,0 UV-I 0 W/m 4,6 C 3,7 C 12,9 km/h (3 Bft) 100,00 %
11.11.2017 05:06 5,5 C 7,8 C 94 % 1015,0 hPa 0,0 l/m 9,4 km/h (2 Bft) W-SW 241 0 min 0,000 mm 0,0 UV-I 0 W/m 4,6 C 3,1 C 19,3 km/h (3 Bft) 100,00 %
11.11.2017 05:08 5,6 C 7,8 C 93 % 1015,1 hPa 0,0 l/m 11,8 km/h (2 Bft) W 261 0 min 0,000 mm 0,0 UV-I 0 W/m 4,6 C 1,6 C 19,3 km/h (3 Bft) 97,62 %
11.11.2017 05:10 5,6 C 7,8 C 93 % 1015,1 hPa 0,0 l/m 11,1 km/h (2 Bft) W-SW 253 0 min 0,000 mm 0,0 UV-I 0 W/m 4,6 C 2,0 C 16,1 km/h (3 Bft) 97,73 %
11.11.2017 05:12 5,6 C 7,8 C 93 % 1015,2 hPa 0,0 l/m 12,6 km/h (3 Bft) W-NW 283 0 min 0,000 mm 0,0 UV-I 0 W/m 4,6 C 1,1 C 17,7 km/h (3 Bft) 100,00 %
11.11.2017 05:14 5,6 C 7,8 C 93 % 1015,2 hPa 0,0 l/m 9,8 km/h (2 Bft) W 260 0 min 0,000 mm 0,0 UV-I 0 W/m 4,6 C 2,9 C 17,7 km/h (3 Bft) 100,00 %
11.11.2017 05:16 5,6 C 7,8 C 93 % 1015,1 hPa 0,0 l/m 15,3 km/h (3 Bft) W-SW 245 0 min 0,000 mm 0,0 UV-I 0 W/m 4,6 C -0,3 C 19,3 km/h (3 Bft) 98,11 %
11.11.2017 05:18 5,6 C 7,8 C 92 % 1015,0 hPa 0,0 l/m 9,7 km/h (2 Bft) W-SW 251 0 min 0,000 mm 0,0 UV-I 0 W/m 4,4 C 2,9 C 14,5 km/h (3 Bft) 100,00 %
11.11.2017 05:20 5,6 C 7,8 C 92 % 1015,0 hPa 0,0 l/m 11,2 km/h (2 Bft) W-SW 254 0 min 0,000 mm 0,0 UV-I 0 W/m 4,4 C 1,9 C 17,7 km/h (3 Bft) 100,00 %
11.11.2017 05:22 5,6 C 7,8 C 92 % 1015,0 hPa 0,0 l/m 13,8 km/h (3 Bft) W-SW 243 0 min 0,000 mm 0,0 UV-I 0 W/m 4,4 C 0,4 C 19,3 km/h (3 Bft) 98,11 %
11.11.2017 05:24 5,6 C 7,8 C 91 % 1015,0 hPa 0,0 l/m 12,5 km/h (3 Bft) W 270 0 min 0,000 mm 0,0 UV-I 0 W/m 4,2 C 1,2 C 19,3 km/h (3 Bft) 100,00 %
11.11.2017 05:26 5,6 C 7,8 C 91 % 1015,1 hPa 0,0 l/m 13,9 km/h (3 Bft) W-SW 257 0 min 0,000 mm 0,0 UV-I 0 W/m 4,2 C 0,4 C 20,9 km/h (4 Bft) 100,00 %
11.11.2017 05:28 5,6 C 7,8 C 91 % 1015,1 hPa 0,0 l/m 14,5 km/h (3 Bft) W-SW 255 0 min 0,000 mm 0,0 UV-I 0 W/m 4,2 C 0,1 C 20,9 km/h (4 Bft) 100,00 %
11.11.2017 05:30 5,6 C 7,8 C 91 % 1015,1 hPa 0,0 l/m 13,3 km/h (3 Bft) W-SW 256 0 min 0,000 mm 0,0 UV-I 0 W/m 4,2 C 0,7 C 20,9 km/h (4 Bft) 100,00 %
11.11.2017 05:32 5,6 C 7,8 C 91 % 1015,0 hPa 0,0 l/m 12,7 km/h (3 Bft) W-SW 243 0 min 0,000 mm 0,0 UV-I 0 W/m 4,2 C 1,0 C 19,3 km/h (3 Bft) 100,00 %
11.11.2017 05:34 5,6 C 7,8 C 90 % 1014,9 hPa 0,0 l/m 13,6 km/h (3 Bft) W-SW 257 0 min 0,000 mm 0,0 UV-I 0 W/m 4,1 C 0,5 C 22,5 km/h (4 Bft) 98,21 %
11.11.2017 05:36 5,6 C 7,8 C 90 % 1014,9 hPa 0,0 l/m 8,8 km/h (2 Bft) W-SW 242 0 min 0,000 mm 0,0 UV-I 0 W/m 4,1 C 3,6 C 14,5 km/h (3 Bft) 100,00 %
11.11.2017 05:38 5,6 C 7,8 C 90 % 1014,9 hPa 0,0 l/m 12,0 km/h (2 Bft) SW 223 0 min 0,000 mm 0,0 UV-I 0 W/m 4,1 C 1,4 C 17,7 km/h (3 Bft) 100,00 %
11.11.2017 05:40 5,7 C 7,8 C 90 % 1014,9 hPa 0,0 l/m 14,4 km/h (3 Bft) W-SW 243 0 min 0,000 mm 0,0 UV-I 0 W/m 4,2 C 0,2 C 19,3 km/h (3 Bft) 94,74 %
11.11.2017 05:42 5,6 C 7,8 C 89 % 1015,0 hPa 0,0 l/m 14,3 km/h (3 Bft) SW 229 0 min 0,000 mm 0,0 UV-I 0 W/m 3,9 C 0,2 C 20,9 km/h (4 Bft) 95,74 %
11.11.2017 05:44 5,6 C 7,8 C 90 % 1015,0 hPa 0,0 l/m 12,2 km/h (2 Bft) W-SW 238 0 min 0,000 mm 0,0 UV-I 0 W/m 4,1 C 1,3 C 19,3 km/h (3 Bft) 97,78 %
11.11.2017 05:46 5,6 C 7,8 C 90 % 1015,0 hPa 0,0 l/m 11,6 km/h (2 Bft) W-SW 250 0 min 0,000 mm 0,0 UV-I 0 W/m 4,1 C 1,7 C 17,7 km/h (3 Bft) 98,08 %
11.11.2017 05:48 5,6 C 7,8 C 89 % 1015,1 hPa 0,0 l/m 14,4 km/h (3 Bft) S-SW 202 0 min 0,000 mm 0,0 UV-I 0 W/m 3,9 C 0,1 C 20,9 km/h (4 Bft) 98,00 %
11.11.2017 05:50 5,5 C 7,8 C 89 % 1015,1 hPa 0,0 l/m 14,5 km/h (3 Bft) W-SW 250 0 min 0,000 mm 0,0 UV-I 0 W/m 3,8 C -0,1 C 19,3 km/h (3 Bft) 97,44 %
11.11.2017 05:52 5,4 C 7,8 C 89 % 1015,1 hPa 0,0 l/m 14,7 km/h (3 Bft) SW 225 0 min 0,000 mm 0,0 UV-I 0 W/m 3,7 C -0,3 C 20,9 km/h (4 Bft) 96,30 %
11.11.2017 05:54 5,4 C 7,8 C 89 % 1015,1 hPa 0,0 l/m 14,1 km/h (3 Bft) SW 222 0 min 0,000 mm 0,0 UV-I 0 W/m 3,7 C 0,0 C 22,5 km/h (4 Bft) 97,56 %
11.11.2017 05:56 5,4 C 7,8 C 89 % 1015,1 hPa 0,0 l/m 14,3 km/h (3 Bft) S-SW 213 0 min 0,000 mm 0,0 UV-I 0 W/m 3,7 C -0,1 C 29,0 km/h (5 Bft) 96,00 %
11.11.2017 05:58 5,4 C 7,8 C 89 % 1015,1 hPa 0,0 l/m 13,7 km/h (3 Bft) W 261 0 min 0,000 mm 0,0 UV-I 0 W/m 3,7 C 0,2 C 20,9 km/h (4 Bft) 97,87 %
11.11.2017 06:00 5,3 C 7,8 C 89 % 1015,1 hPa 0,0 l/m 9,1 km/h (2 Bft) W-SW 240 0 min 0,000 mm 0,0 UV-I 0 W/m 3,6 C 3,1 C 14,5 km/h (3 Bft) 95,74 %
11.11.2017 06:02 5,3 C 7,8 C 89 % 1015,2 hPa 0,0 l/m 11,2 km/h (2 Bft) S-SW 200 0 min 0,000 mm 0,0 UV-I 0 W/m 3,6 C 1,6 C 16,1 km/h (3 Bft) 94,87 %
11.11.2017 06:04 5,2 C 7,8 C 89 % 1015,1 hPa 0,0 l/m 14,2 km/h (3 Bft) S-SW 205 0 min 0,000 mm 0,0 UV-I 0 W/m 3,5 C -0,3 C 19,3 km/h (3 Bft) 98,21 %
11.11.2017 06:06 5,2 C 7,8 C 89 % 1015,1 hPa 0,0 l/m 14,2 km/h (3 Bft) S-SW 210 0 min 0,000 mm 0,0 UV-I 0 W/m 3,5 C -0,3 C 19,3 km/h (3 Bft) 98,00 %
11.11.2017 06:08 5,1 C 7,8 C 89 % 1015,1 hPa 0,0 l/m 13,0 km/h (3 Bft) S-SW 213 0 min 0,000 mm 0,0 UV-I 0 W/m 3,4 C 0,3 C 17,7 km/h (3 Bft) 97,56 %
11.11.2017 06:10 5,1 C 7,8 C 89 % 1015,1 hPa 0,0 l/m 13,6 km/h (3 Bft) SW 217 0 min 0,000 mm 0,0 UV-I 0 W/m 3,4 C -0,1 C 24,1 km/h (4 Bft) 97,87 %
11.11.2017 06:12 5,0 C 7,8 C 89 % 1015,2 hPa 0,0 l/m 16,4 km/h (3 Bft) W-SW 244 0 min 0,000 mm 0,0 UV-I 0 W/m 3,3 C -1,6 C 25,7 km/h (4 Bft) 94,12 %
11.11.2017 06:14 4,9 C 7,8 C 89 % 1015,2 hPa 0,0 l/m 18,4 km/h (3 Bft) W-SW 243 0 min 0,000 mm 0,0 UV-I 0 W/m 3,2 C -2,6 C 30,6 km/h (5 Bft) 100,00 %
11.11.2017 06:16 4,9 C 7,8 C 89 % 1015,2 hPa 0,0 l/m 20,1 km/h (4 Bft) SW 235 0 min 0,000 mm 0,0 UV-I 0 W/m 3,2 C -3,3 C 25,7 km/h (4 Bft) 98,11 %
11.11.2017 06:18 4,9 C 7,8 C 89 % 1015,2 hPa 0,0 l/m 13,2 km/h (3 Bft) SW 218 0 min 0,000 mm 0,0 UV-I 0 W/m 3,2 C -0,1 C 22,5 km/h (4 Bft) 95,74 %
11.11.2017 06:20 4,8 C 7,8 C 89 % 1015,2 hPa 0,0 l/m 17,1 km/h (3 Bft) SW 234 0 min 0,000 mm 0,0 UV-I 0 W/m 3,1 C -2,2 C 25,7 km/h (4 Bft) 95,12 %
11.11.2017 06:22 4,8 C 7,8 C 90 % 1015,2 hPa 0,0 l/m 13,8 km/h (3 Bft) W-SW 245 0 min 0,000 mm 0,0 UV-I 0 W/m 3,3 C -0,5 C 22,5 km/h (4 Bft) 98,11 %
11.11.2017 06:24 4,8 C 7,8 C 89 % 1015,2 hPa 0,0 l/m 16,7 km/h (3 Bft) SW 220 0 min 0,000 mm 0,0 UV-I 0 W/m 3,1 C -2,0 C 22,5 km/h (4 Bft) 97,22 %
11.11.2017 06:26 4,8 C 7,8 C 89 % 1015,2 hPa 0,0 l/m 17,4 km/h (3 Bft) W-SW 255 0 min 0,000 mm 0,0 UV-I 0 W/m 3,1 C -2,3 C 25,7 km/h (4 Bft) 97,87 %
11.11.2017 06:28 4,7 C 7,8 C 90 % 1015,2 hPa 0,0 l/m 15,4 km/h (3 Bft) SW 221 0 min 0,000 mm 0,0 UV-I 0 W/m 3,2 C -1,5 C 22,5 km/h (4 Bft) 96,23 %
11.11.2017 06:30 4,7 C 7,8 C 90 % 1015,2 hPa 0,0 l/m 12,7 km/h (3 Bft) SW 219 0 min 0,000 mm 0,0 UV-I 0 W/m 3,2 C -0,0 C 20,9 km/h (4 Bft) 97,56 %
11.11.2017 06:32 4,7 C 7,8 C 90 % 1015,1 hPa 0,0 l/m 16,5 km/h (3 Bft) SW 233 0 min 0,000 mm 0,0 UV-I 0 W/m 3,2 C -2,0 C 20,9 km/h (4 Bft) 97,56 %
11.11.2017 06:34 4,7 C 7,8 C 90 % 1015,2 hPa 0,0 l/m 16,7 km/h (3 Bft) SW 232 0 min 0,000 mm 0,0 UV-I 0 W/m 3,2 C -2,1 C 22,5 km/h (4 Bft) 98,11 %
11.11.2017 06:36 4,6 C 7,8 C 90 % 1015,3 hPa 0,0 l/m 16,1 km/h (3 Bft) SW 223 0 min 0,000 mm 0,0 UV-I 0 W/m 3,1 C -2,0 C 29,0 km/h (5 Bft) 95,74 %
11.11.2017 06:38 4,6 C 7,8 C 90 % 1015,3 hPa 0,0 l/m 15,7 km/h (3 Bft) SW 215 0 min 0,000 mm 0,0 UV-I 0 W/m 3,1 C -1,8 C 27,4 km/h (4 Bft) 96,43 %
11.11.2017 06:40 4,6 C 7,8 C 90 % 1015,4 hPa 0,0 l/m 16,1 km/h (3 Bft) SW 219 0 min 0,000 mm 0,0 UV-I 0 W/m 3,1 C -2,0 C 24,1 km/h (4 Bft) 95,45 %
11.11.2017 06:42 4,6 C 7,8 C 90 % 1015,5 hPa 0,0 l/m 16,3 km/h (3 Bft) S-SW 206 0 min 0,000 mm 0,0 UV-I 0 W/m 3,1 C -2,1 C 25,7 km/h (4 Bft) 98,00 %
11.11.2017 06:44 4,6 C 7,8 C 90 % 1015,4 hPa 0,0 l/m 14,5 km/h (3 Bft) S-SW 212 0 min 0,000 mm 0,0 UV-I 0 W/m 3,1 C -1,1 C 22,5 km/h (4 Bft) 97,56 %
11.11.2017 06:46 4,6 C 7,8 C 90 % 1015,4 hPa 0,0 l/m 20,2 km/h (4 Bft) W-SW 246 0 min 0,000 mm 0,0 UV-I 0 W/m 3,1 C -3,8 C 27,4 km/h (4 Bft) 96,23 %
11.11.2017 06:48 4,6 C 7,8 C 90 % 1015,3 hPa 0,0 l/m 19,0 km/h (3 Bft) S-SW 204 0 min 0,000 mm 0,0 UV-I 0 W/m 3,1 C -3,3 C 27,4 km/h (4 Bft) 97,56 %
11.11.2017 06:50 4,6 C 7,8 C 90 % 1015,4 hPa 0,0 l/m 17,0 km/h (3 Bft) SW 226 0 min 0,000 mm 0,0 UV-I 0 W/m 3,1 C -2,4 C 25,7 km/h (4 Bft) 95,12 %
11.11.2017 06:52 4,6 C 7,8 C 90 % 1015,4 hPa 0,0 l/m 16,4 km/h (3 Bft) SW 228 0 min 0,000 mm 0,0 UV-I 0 W/m 3,1 C -2,1 C 25,7 km/h (4 Bft) 96,23 %
11.11.2017 06:54 4,6 C 7,8 C 90 % 1015,6 hPa 0,0 l/m 19,8 km/h (3 Bft) SW 215 0 min 0,000 mm 0,0 UV-I 0 W/m 3,1 C -3,6 C 30,6 km/h (5 Bft) 97,87 %
11.11.2017 06:56 4,6 C 7,8 C 90 % 1015,6 hPa 0,0 l/m 17,9 km/h (3 Bft) SW 219 0 min 0,000 mm 0,0 UV-I 0 W/m 3,1 C -2,8 C 29,0 km/h (5 Bft) 97,87 %
11.11.2017 06:58 4,6 C 7,8 C 90 % 1015,6 hPa 0,0 l/m 18,3 km/h (3 Bft) SW 220 0 min 0,000 mm 0,0 UV-I 0 W/m 3,1 C -3,0 C 25,7 km/h (4 Bft) 97,73 %
11.11.2017 07:00 4,6 C 7,8 C 90 % 1015,6 hPa 0,0 l/m 20,1 km/h (4 Bft) SW 232 0 min 0,000 mm 0,0 UV-I 0 W/m 3,1 C -3,7 C 25,7 km/h (4 Bft) 98,00 %
11.11.2017 07:02 4,6 C 7,8 C 90 % 1015,6 hPa 0,0 l/m 16,9 km/h (3 Bft) W-SW 255 0 min 0,025 mm 0,0 UV-I 5 W/m 3,1 C -2,3 C 25,7 km/h (4 Bft) 97,62 %
11.11.2017 07:04 4,6 C 7,8 C 90 % 1015,6 hPa 0,0 l/m 15,7 km/h (3 Bft) S-SW 199 0 min 0,000 mm 0,0 UV-I 5 W/m 3,1 C -1,8 C 24,1 km/h (4 Bft) 95,12 %
11.11.2017 07:06 4,6 C 7,8 C 90 % 1015,6 hPa 0,0 l/m 10,9 km/h (2 Bft) SW 222 0 min 0,000 mm 0,0 UV-I 5 W/m 3,1 C 1,0 C 16,1 km/h (3 Bft) 94,64 %
11.11.2017 07:08 4,6 C 7,8 C 90 % 1015,7 hPa 0,0 l/m 16,0 km/h (3 Bft) W-SW 241 0 min 0,000 mm 0,0 UV-I 5 W/m 3,1 C -1,9 C 25,7 km/h (4 Bft) 98,00 %
11.11.2017 07:10 4,6 C 7,8 C 91 % 1015,8 hPa 0,0 l/m 11,6 km/h (2 Bft) SW 232 0 min 0,000 mm 0,0 UV-I 5 W/m 3,3 C 0,5 C 14,5 km/h (3 Bft) 98,00 %
11.11.2017 07:12 4,6 C 7,8 C 90 % 1015,9 hPa 0,0 l/m 13,8 km/h (3 Bft) S-SW 209 0 min 0,000 mm 0,0 UV-I 5 W/m 3,1 C -0,8 C 20,9 km/h (4 Bft) 95,74 %
11.11.2017 07:14 4,6 C 7,8 C 90 % 1015,7 hPa 0,0 l/m 19,3 km/h (3 Bft) W-SW 246 0 min 0,000 mm 0,0 UV-I 5 W/m 3,1 C -3,4 C 25,7 km/h (4 Bft) 97,56 %
11.11.2017 07:16 4,7 C 7,8 C 90 % 1015,8 hPa 0,0 l/m 18,4 km/h (3 Bft) SW 232 0 min 0,000 mm 0,0 UV-I 6 W/m 3,2 C -2,9 C 25,7 km/h (4 Bft) 100,00 %
11.11.2017 07:18 4,7 C 7,8 C 90 % 1015,8 hPa 0,0 l/m 14,3 km/h (3 Bft) SW 221 0 min 0,000 mm 0,0 UV-I 7 W/m 3,2 C -0,9 C 22,5 km/h (4 Bft) 97,56 %
11.11.2017 07:20 4,7 C 7,8 C 90 % 1015,8 hPa 0,0 l/m 12,8 km/h (3 Bft) SW 227 0 min 0,000 mm 0,0 UV-I 7 W/m 3,2 C -0,1 C 19,3 km/h (3 Bft) 97,73 %
11.11.2017 07:22 4,7 C 7,8 C 90 % 1015,9 hPa 0,0 l/m 12,9 km/h (3 Bft) W-SW 246 0 min 0,000 mm 0,0 UV-I 7 W/m 3,2 C -0,1 C 22,5 km/h (4 Bft) 100,00 %
11.11.2017 07:24 4,7 C 7,8 C 90 % 1015,8 hPa 0,0 l/m 13,9 km/h (3 Bft) SW 229 0 min 0,000 mm 0,0 UV-I 9 W/m 3,2 C -0,7 C 20,9 km/h (4 Bft) 100,00 %
11.11.2017 07:26 4,7 C 7,8 C 90 % 1015,9 hPa 0,0 l/m 15,1 km/h (3 Bft) SW 217 0 min 0,000 mm 0,0 UV-I 9 W/m 3,2 C -1,3 C 24,1 km/h (4 Bft) 100,00 %
11.11.2017 07:28 4,7 C 7,8 C 90 % 1015,9 hPa 0,0 l/m 16,1 km/h (3 Bft) SW 228 0 min 0,000 mm 0,0 UV-I 10 W/m 3,2 C -1,8 C 24,1 km/h (4 Bft) 100,00 %
11.11.2017 07:30 4,7 C 7,8 C 90 % 1015,9 hPa 0,0 l/m 16,5 km/h (3 Bft) SW 226 0 min 0,000 mm 0,0 UV-I 12 W/m 3,2 C -2,0 C 22,5 km/h (4 Bft) 95,74 %
11.11.2017 07:32 4,7 C 7,8 C 89 % 1015,8 hPa 0,0 l/m 16,1 km/h (3 Bft) SW 221 0 min 0,000 mm 0,0 UV-I 12 W/m 3,0 C -1,8 C 27,4 km/h (4 Bft) 100,00 %
11.11.2017 07:34 4,7 C 7,8 C 89 % 1015,8 hPa 0,0 l/m 10,5 km/h (2 Bft) SW 217 0 min 0,000 mm 0,0 UV-I 12 W/m 3,0 C 1,4 C 16,1 km/h (3 Bft) 97,73 %
11.11.2017 07:36 4,8 C 7,8 C 89 % 1015,8 hPa 0,0 l/m 14,1 km/h (3 Bft) W 261 0 min 0,000 mm 0,0 UV-I 14 W/m 3,1 C -0,7 C 22,5 km/h (4 Bft) 100,00 %
11.11.2017 07:38 4,7 C 7,8 C 89 % 1015,9 hPa 0,0 l/m 16,3 km/h (3 Bft) W-SW 246 0 min 0,000 mm 0,0 UV-I 14 W/m 3,0 C -1,9 C 22,5 km/h (4 Bft) 100,00 %
11.11.2017 07:40 4,8 C 7,8 C 89 % 1016,1 hPa 0,0 l/m 15,3 km/h (3 Bft) SW 232 0 min 0,000 mm 0,0 UV-I 13 W/m 3,1 C -1,3 C 25,7 km/h (4 Bft) 100,00 %
11.11.2017 07:42 4,8 C 7,8 C 89 % 1016,0 hPa 0,0 l/m 15,1 km/h (3 Bft) SW 222 0 min 0,000 mm 0,0 UV-I 20 W/m 3,1 C -1,2 C 24,1 km/h (4 Bft) 100,00 %
11.11.2017 07:44 4,8 C 7,8 C 89 % 1016,0 hPa 0,0 l/m 13,1 km/h (3 Bft) W-SW 243 0 min 0,000 mm 0,0 UV-I 19 W/m 3,1 C -0,1 C 22,5 km/h (4 Bft) 100,00 %
11.11.2017 07:46 4,8 C 7,8 C 89 % 1016,1 hPa 0,0 l/m 15,5 km/h (3 Bft) S-SW 213 0 min 0,000 mm 0,0 UV-I 14 W/m 3,1 C -1,4 C 20,9 km/h (4 Bft) 100,00 %
11.11.2017 07:48 4,8 C 7,8 C 89 % 1016,2 hPa 0,0 l/m 14,0 km/h (3 Bft) W-SW 251 0 min 0,000 mm 0,0 UV-I 14 W/m 3,1 C -0,6 C 27,4 km/h (4 Bft) 97,62 %
11.11.2017 07:50 4,8 C 7,8 C 89 % 1016,2 hPa 0,0 l/m 18,2 km/h (3 Bft) SW 232 0 min 0,000 mm 0,0 UV-I 18 W/m 3,1 C -2,7 C 27,4 km/h (4 Bft) 95,45 %
11.11.2017 07:52 4,8 C 7,8 C 89 % 1016,2 hPa 0,0 l/m 17,4 km/h (3 Bft) SW 220 0 min 0,000 mm 0,0 UV-I 17 W/m 3,1 C -2,3 C 24,1 km/h (4 Bft) 98,00 %
11.11.2017 07:54 4,8 C 7,8 C 89 % 1016,2 hPa 0,0 l/m 12,5 km/h (3 Bft) W-SW 240 0 min 0,000 mm 0,0 UV-I 16 W/m 3,1 C 0,2 C 20,9 km/h (4 Bft) 96,00 %
11.11.2017 07:56 4,8 C 7,8 C 89 % 1016,1 hPa 0,0 l/m 15,8 km/h (3 Bft) SW 233 0 min 0,000 mm 0,0 UV-I 17 W/m 3,1 C -1,6 C 22,5 km/h (4 Bft) 97,92 %
11.11.2017 07:58 4,8 C 7,8 C 89 % 1016,1 hPa 0,0 l/m 15,7 km/h (3 Bft) W-SW 248 0 min 0,000 mm 0,0 UV-I 19 W/m 3,1 C -1,5 C 25,7 km/h (4 Bft) 97,56 %
11.11.2017 08:00 4,8 C 7,8 C 89 % 1016,1 hPa 0,0 l/m 15,0 km/h (3 Bft) SW 224 0 min 0,026 mm 0,0 UV-I 21 W/m 3,1 C -1,2 C 20,9 km/h (4 Bft) 96,23 %
11.11.2017 08:02 4,8 C 7,8 C 89 % 1016,2 hPa 0,0 l/m 14,0 km/h (3 Bft) SW 224 0 min 0,000 mm 0,0 UV-I 24 W/m 3,1 C -0,6 C 22,5 km/h (4 Bft) 97,56 %
11.11.2017 08:04 4,8 C 7,8 C 89 % 1016,2 hPa 0,0 l/m 16,3 km/h (3 Bft) SW 215 0 min 0,000 mm 0,0 UV-I 25 W/m 3,1 C -1,8 C 24,1 km/h (4 Bft) 93,18 %
11.11.2017 08:06 4,8 C 7,8 C 89 % 1016,2 hPa 0,0 l/m 15,7 km/h (3 Bft) W-SW 254 0 min 0,000 mm 0,0 UV-I 26 W/m 3,1 C -1,5 C 22,5 km/h (4 Bft) 98,00 %
11.11.2017 08:08 4,8 C 7,8 C 89 % 1016,2 hPa 0,0 l/m 13,5 km/h (3 Bft) S-SW 195 0 min 0,000 mm 0,0 UV-I 26 W/m 3,1 C -0,4 C 20,9 km/h (4 Bft) 97,87 %
11.11.2017 08:10 4,8 C 7,8 C 89 % 1016,4 hPa 0,0 l/m 14,2 km/h (3 Bft) SW 225 0 min 0,000 mm 0,0 UV-I 26 W/m 3,1 C -0,7 C 22,5 km/h (4 Bft) 97,14 %
11.11.2017 08:12 4,8 C 7,8 C 88 % 1016,3 hPa 0,0 l/m 18,8 km/h (3 Bft) W-SW 243 0 min 0,000 mm 0,0 UV-I 26 W/m 3,0 C -2,9 C 25,7 km/h (4 Bft) 96,43 %
11.11.2017 08:14 4,8 C 7,8 C 88 % 1016,4 hPa 0,0 l/m 17,2 km/h (3 Bft) S-SW 209 0 min 0,000 mm 0,0 UV-I 28 W/m 3,0 C -2,2 C 22,5 km/h (4 Bft) 93,22 %
11.11.2017 08:16 4,8 C 7,8 C 88 % 1016,4 hPa 0,0 l/m 14,3 km/h (3 Bft) S-SW 213 0 min 0,000 mm 0,0 UV-I 30 W/m 3,0 C -0,8 C 19,3 km/h (3 Bft) 97,73 %
11.11.2017 08:18 4,8 C 7,8 C 88 % 1016,5 hPa 0,0 l/m 15,2 km/h (3 Bft) S-SW 213 0 min 0,000 mm 0,0 UV-I 33 W/m 3,0 C -1,3 C 22,5 km/h (4 Bft) 97,87 %
11.11.2017 08:20 4,8 C 7,8 C 88 % 1016,5 hPa 0,0 l/m 12,8 km/h (3 Bft) SW 232 0 min 0,000 mm 0,0 UV-I 35 W/m 3,0 C 0,0 C 20,9 km/h (4 Bft) 97,37 %
11.11.2017 08:22 4,8 C 7,8 C 88 % 1016,5 hPa 0,0 l/m 15,0 km/h (3 Bft) W-SW 251 0 min 0,000 mm 0,0 UV-I 35 W/m 3,0 C -1,2 C 20,9 km/h (4 Bft) 98,00 %
11.11.2017 08:24 4,7 C 7,8 C 88 % 1016,4 hPa 0,0 l/m 14,0 km/h (3 Bft) S-SW 205 0 min 0,000 mm 0,0 UV-I 38 W/m 2,9 C -0,8 C 24,1 km/h (4 Bft) 97,78 %
11.11.2017 08:26 4,7 C 7,8 C 88 % 1016,4 hPa 0,0 l/m 14,2 km/h (3 Bft) SW 227 0 min 0,000 mm 0,0 UV-I 39 W/m 2,9 C -0,9 C 22,5 km/h (4 Bft) 100,00 %
11.11.2017 08:28 4,7 C 7,8 C 88 % 1016,3 hPa 0,0 l/m 17,9 km/h (3 Bft) S 184 0 min 0,000 mm 0,0 UV-I 38 W/m 2,9 C -2,7 C 27,4 km/h (4 Bft) 100,00 %
11.11.2017 08:30 4,7 C 7,8 C 88 % 1016,3 hPa 0,0 l/m 18,5 km/h (3 Bft) SW 217 0 min 0,000 mm 0,0 UV-I 36 W/m 2,9 C -2,9 C 27,4 km/h (4 Bft) 98,00 %
11.11.2017 08:32 4,7 C 7,8 C 88 % 1016,4 hPa 0,0 l/m 16,3 km/h (3 Bft) SW 234 0 min 0,000 mm 0,0 UV-I 34 W/m 2,9 C -1,9 C 24,1 km/h (4 Bft) 100,00 %
11.11.2017 08:34 4,7 C 7,8 C 88 % 1016,5 hPa 0,0 l/m 16,0 km/h (3 Bft) S-SW 192 0 min 0,000 mm 0,0 UV-I 33 W/m 2,9 C -1,8 C 20,9 km/h (4 Bft) 96,23 %
11.11.2017 08:36 4,7 C 7,8 C 88 % 1016,6 hPa 0,0 l/m 14,3 km/h (3 Bft) SW 231 0 min 0,000 mm 0,0 UV-I 35 W/m 2,9 C -0,9 C 20,9 km/h (4 Bft) 98,11 %
11.11.2017 08:38 4,7 C 7,8 C 88 % 1016,5 hPa 0,0 l/m 16,5 km/h (3 Bft) SW 225 0 min 0,000 mm 0,0 UV-I 41 W/m 2,9 C -2,0 C 22,5 km/h (4 Bft) 100,00 %
11.11.2017 08:40 4,6 C 7,8 C 88 % 1016,5 hPa 0,0 l/m 14,2 km/h (3 Bft) S 190 0 min 0,000 mm 0,0 UV-I 43 W/m 2,8 C -1,0 C 25,7 km/h (4 Bft) 100,00 %
11.11.2017 08:42 4,6 C 7,8 C 88 % 1016,5 hPa 0,0 l/m 14,1 km/h (3 Bft) S-SW 204 0 min 0,000 mm 0,0 UV-I 46 W/m 2,8 C -0,9 C 22,5 km/h (4 Bft) 100,00 %
11.11.2017 08:44 4,6 C 7,8 C 88 % 1016,5 hPa 0,0 l/m 19,4 km/h (3 Bft) S-SW 194 0 min 0,000 mm 0,0 UV-I 45 W/m 2,8 C -3,4 C 30,6 km/h (5 Bft) 97,73 %
11.11.2017 08:46 4,6 C 7,8 C 88 % 1016,5 hPa 0,0 l/m 13,9 km/h (3 Bft) W 259 0 min 0,000 mm 0,0 UV-I 45 W/m 2,8 C -0,8 C 24,1 km/h (4 Bft) 100,00 %
11.11.2017 08:48 4,6 C 7,8 C 88 % 1016,4 hPa 0,0 l/m 14,5 km/h (3 Bft) SW 226 0 min 0,000 mm 0,0 UV-I 50 W/m 2,8 C -1,1 C 22,5 km/h (4 Bft) 100,00 %
11.11.2017 08:50 4,6 C 7,8 C 88 % 1016,4 hPa 0,0 l/m 13,2 km/h (3 Bft) SW 225 0 min 0,000 mm 0,0 UV-I 53 W/m 2,8 C -0,4 C 19,3 km/h (3 Bft) 100,00 %
11.11.2017 08:52 4,6 C 7,8 C 88 % 1016,4 hPa 0,0 l/m 12,5 km/h (3 Bft) S 191 0 min 0,000 mm 0,0 UV-I 56 W/m 2,8 C -0,0 C 16,1 km/h (3 Bft) 100,00 %
11.11.2017 08:54 4,6 C 7,8 C 88 % 1016,4 hPa 0,0 l/m 12,9 km/h (3 Bft) W-SW 239 0 min 0,000 mm 0,0 UV-I 60 W/m 2,8 C -0,2 C 19,3 km/h (3 Bft) 100,00 %
11.11.2017 08:56 4,6 C 7,8 C 88 % 1016,4 hPa 0,0 l/m 14,6 km/h (3 Bft) SW 225 0 min 0,000 mm 0,0 UV-I 58 W/m 2,8 C -1,2 C 24,1 km/h (4 Bft) 98,00 %
11.11.2017 08:58 4,6 C 7,8 C 88 % 1016,4 hPa 0,0 l/m 14,7 km/h (3 Bft) W-SW 248 0 min 0,000 mm 0,0 UV-I 60 W/m 2,8 C -1,3 C 24,1 km/h (4 Bft) 100,00 %
11.11.2017 09:00 4,6 C 7,8 C 88 % 1016,4 hPa 0,0 l/m 16,7 km/h (3 Bft) W-SW 237 0 min 0,025 mm 0,0 UV-I 62 W/m 2,8 C -2,3 C 25,7 km/h (4 Bft) 100,00 %
11.11.2017 09:02 4,6 C 7,8 C 87 % 1016,4 hPa 0,0 l/m 17,5 km/h (3 Bft) SW 219 0 min 0,000 mm 0,0 UV-I 62 W/m 2,6 C -2,6 C 24,1 km/h (4 Bft) 100,00 %
11.11.2017 09:04 4,6 C 7,8 C 87 % 1016,4 hPa 0,0 l/m 18,2 km/h (3 Bft) S-SW 211 0 min 0,000 mm 0,0 UV-I 63 W/m 2,6 C -2,9 C 25,7 km/h (4 Bft) 100,00 %
11.11.2017 09:06 4,6 C 7,8 C 87 % 1016,4 hPa 0,0 l/m 19,6 km/h (3 Bft) S-SW 202 0 min 0,000 mm 0,0 UV-I 67 W/m 2,6 C -3,5 C 25,7 km/h (4 Bft) 100,00 %
11.11.2017 09:08 4,6 C 7,8 C 87 % 1016,4 hPa 0,0 l/m 15,4 km/h (3 Bft) S-SW 213 0 min 0,000 mm 0,0 UV-I 64 W/m 2,6 C -1,6 C 25,7 km/h (4 Bft) 98,00 %
11.11.2017 09:10 4,6 C 7,8 C 87 % 1016,4 hPa 0,0 l/m 13,8 km/h (3 Bft) S-SW 192 0 min 0,000 mm 0,0 UV-I 66 W/m 2,6 C -0,8 C 24,1 km/h (4 Bft) 97,14 %
11.11.2017 09:12 4,6 C 7,8 C 87 % 1016,3 hPa 0,0 l/m 16,4 km/h (3 Bft) SW 234 0 min 0,000 mm 0,0 UV-I 68 W/m 2,6 C -2,1 C 25,7 km/h (4 Bft) 96,43 %
11.11.2017 09:14 4,6 C 7,8 C 87 % 1016,3 hPa 0,0 l/m 16,3 km/h (3 Bft) W-SW 242 0 min 0,000 mm 0,0 UV-I 70 W/m 2,6 C -2,1 C 22,5 km/h (4 Bft) 97,37 %
11.11.2017 09:16 4,6 C 7,8 C 87 % 1016,3 hPa 0,0 l/m 17,2 km/h (3 Bft) SW 219 0 min 0,000 mm 0,0 UV-I 73 W/m 2,6 C -2,5 C 29,0 km/h (5 Bft) 100,00 %
11.11.2017 09:18 4,6 C 7,8 C 87 % 1016,3 hPa 0,0 l/m 15,1 km/h (3 Bft) S-SW 210 0 min 0,000 mm 0,0 UV-I 74 W/m 2,6 C -1,5 C 22,5 km/h (4 Bft) 100,00 %
11.11.2017 09:20 4,6 C 7,8 C 87 % 1016,3 hPa 0,0 l/m 19,2 km/h (3 Bft) SW 223 0 min 0,000 mm 0,0 UV-I 77 W/m 2,6 C -3,4 C 27,4 km/h (4 Bft) 100,00 %
11.11.2017 09:22 4,6 C 7,8 C 87 % 1016,3 hPa 0,0 l/m 15,9 km/h (3 Bft) S-SW 207 0 min 0,000 mm 0,0 UV-I 77 W/m 2,6 C -1,9 C 24,1 km/h (4 Bft) 97,87 %
11.11.2017 09:24 4,6 C 7,8 C 87 % 1016,3 hPa 0,0 l/m 11,8 km/h (2 Bft) S-SW 211 0 min 0,000 mm 0,0 UV-I 78 W/m 2,6 C 0,4 C 20,9 km/h (4 Bft) 100,00 %
11.11.2017 09:26 4,6 C 7,8 C 87 % 1016,2 hPa 0,0 l/m 19,4 km/h (3 Bft) S-SW 198 0 min 0,000 mm 0,0 UV-I 77 W/m 2,6 C -3,4 C 32,2 km/h (5 Bft) 97,56 %
11.11.2017 09:28 4,6 C 7,8 C 87 % 1016,2 hPa 0,0 l/m 14,2 km/h (3 Bft) SW 229 0 min 0,000 mm 0,0 UV-I 76 W/m 2,6 C -1,0 C 22,5 km/h (4 Bft) 100,00 %
11.11.2017 09:30 4,6 C 7,8 C 87 % 1016,2 hPa 0,0 l/m 13,4 km/h (3 Bft) SW 229 0 min 0,000 mm 0,0 UV-I 85 W/m 2,6 C -0,5 C 22,5 km/h (4 Bft) 100,00 %
11.11.2017 09:32 4,6 C 7,8 C 87 % 1016,2 hPa 0,0 l/m 17,5 km/h (3 Bft) W 269 0 min 0,000 mm 0,0 UV-I 93 W/m 2,6 C -2,6 C 24,1 km/h (4 Bft) 100,00 %
11.11.2017 09:34 4,6 C 7,8 C 86 % 1016,1 hPa 0,0 l/m 17,7 km/h (3 Bft) SW 229 0 min 0,000 mm 0,0 UV-I 95 W/m 2,5 C -2,7 C 25,7 km/h (4 Bft) 100,00 %
11.11.2017 09:36 4,6 C 7,8 C 86 % 1016,2 hPa 0,0 l/m 12,3 km/h (3 Bft) SW 235 0 min 0,000 mm 0,0 UV-I 94 W/m 2,5 C 0,1 C 17,7 km/h (3 Bft) 98,00 %
11.11.2017 09:38 4,6 C 7,8 C 86 % 1016,2 hPa 0,0 l/m 14,6 km/h (3 Bft) S-SW 202 0 min 0,000 mm 0,0 UV-I 112 W/m 2,5 C -1,2 C 27,4 km/h (4 Bft) 100,00 %
11.11.2017 09:40 4,7 C 7,8 C 86 % 1016,1 hPa 0,0 l/m 17,6 km/h (3 Bft) SW 234 0 min 0,000 mm 0,0 UV-I 123 W/m 2,6 C -2,5 C 30,6 km/h (5 Bft) 100,00 %
11.11.2017 09:42 4,7 C 7,8 C 86 % 1016,1 hPa 0,0 l/m 14,6 km/h (3 Bft) S-SW 204 0 min 0,000 mm 0,0 UV-I 117 W/m 2,6 C -1,1 C 22,5 km/h (4 Bft) 100,00 %
11.11.2017 09:44 4,7 C 7,8 C 86 % 1016,1 hPa 0,0 l/m 12,6 km/h (3 Bft) S-SW 203 0 min 0,000 mm 0,0 UV-I 122 W/m 2,6 C 0,0 C 17,7 km/h (3 Bft) 96,30 %
11.11.2017 09:46 4,7 C 7,8 C 86 % 1016,1 hPa 0,0 l/m 13,5 km/h (3 Bft) W-SW 239 0 min 0,000 mm 0,0 UV-I 114 W/m 2,6 C -0,5 C 19,3 km/h (3 Bft) 100,00 %
11.11.2017 09:48 4,8 C 7,8 C 85 % 1016,1 hPa 0,0 l/m 12,8 km/h (3 Bft) SW 228 0 min 0,000 mm 0,0 UV-I 110 W/m 2,5 C 0,0 C 20,9 km/h (4 Bft) 100,00 %
11.11.2017 09:50 4,8 C 7,8 C 85 % 1016,0 hPa 0,0 l/m 17,7 km/h (3 Bft) S 176 0 min 0,000 mm 0,0 UV-I 101 W/m 2,5 C -2,5 C 29,0 km/h (5 Bft) 100,00 %
11.11.2017 09:52 4,8 C 7,8 C 85 % 1016,0 hPa 0,0 l/m 12,6 km/h (3 Bft) S 185 0 min 0,000 mm 0,3 UV-I 120 W/m 2,5 C 0,2 C 22,5 km/h (4 Bft) 100,00 %
11.11.2017 09:54 4,8 C 7,8 C 85 % 1015,9 hPa 0,0 l/m 14,9 km/h (3 Bft) S-SW 212 0 min 0,000 mm 0,5 UV-I 130 W/m 2,5 C -1,1 C 25,7 km/h (4 Bft) 100,00 %
11.11.2017 09:56 4,8 C 7,8 C 85 % 1016,0 hPa 0,0 l/m 12,8 km/h (3 Bft) S-SW 192 0 min 0,000 mm 0,5 UV-I 126 W/m 2,5 C 0,0 C 19,3 km/h (3 Bft) 100,00 %
11.11.2017 09:58 4,8 C 7,8 C 85 % 1016,0 hPa 0,0 l/m 12,6 km/h (3 Bft) SW 220 0 min 0,000 mm 0,5 UV-I 146 W/m 2,5 C 0,2 C 20,9 km/h (4 Bft) 96,23 %
11.11.2017 10:00 4,9 C 7,8 C 85 % 1016,0 hPa 0,0 l/m 15,4 km/h (3 Bft) SW 220 0 min 0,051 mm 0,5 UV-I 137 W/m 2,6 C -1,2 C 25,7 km/h (4 Bft) 97,56 %
11.11.2017 10:02 4,9 C 7,8 C 85 % 1015,9 hPa 0,0 l/m 12,4 km/h (3 Bft) S-SW 204 0 min 0,000 mm 0,5 UV-I 128 W/m 2,6 C 0,4 C 17,7 km/h (3 Bft) 98,21 %
11.11.2017 10:04 4,9 C 7,8 C 85 % 1015,9 hPa 0,0 l/m 15,7 km/h (3 Bft) S-SO 168 0 min 0,000 mm 0,5 UV-I 137 W/m 2,6 C -1,4 C 22,5 km/h (4 Bft) 92,11 %
11.11.2017 10:06 4,9 C 7,8 C 85 % 1015,8 hPa 0,0 l/m 20,6 km/h (4 Bft) SW 229 0 min 0,000 mm 0,6 UV-I 154 W/m 2,6 C -3,5 C 25,7 km/h (4 Bft) 94,74 %
11.11.2017 10:08 4,9 C 7,8 C 85 % 1015,8 hPa 0,0 l/m 17,3 km/h (3 Bft) W-SW 246 0 min 0,000 mm 0,6 UV-I 162 W/m 2,6 C -2,2 C 30,6 km/h (5 Bft) 96,43 %
11.11.2017 10:10 5,0 C 7,8 C 85 % 1015,8 hPa 0,0 l/m 15,7 km/h (3 Bft) SW 233 0 min 0,000 mm 0,6 UV-I 161 W/m 2,7 C -1,3 C 24,1 km/h (4 Bft) 96,00 %
11.11.2017 10:12 5,0 C 7,8 C 85 % 1015,7 hPa 0,0 l/m 16,5 km/h (3 Bft) W-SW 240 0 min 0,000 mm 0,6 UV-I 153 W/m 2,7 C -1,7 C 27,4 km/h (4 Bft) 94,74 %
11.11.2017 10:14 5,0 C 7,8 C 85 % 1015,7 hPa 0,0 l/m 16,0 km/h (3 Bft) SW 236 0 min 0,000 mm 0,6 UV-I 151 W/m 2,7 C -1,4 C 25,7 km/h (4 Bft) 94,64 %
11.11.2017 10:16 5,0 C 7,8 C 84 % 1015,7 hPa 0,0 l/m 22,5 km/h (4 Bft) SW 229 0 min 0,000 mm 0,6 UV-I 118 W/m 2,5 C -4,1 C 35,4 km/h (5 Bft) 94,29 %
11.11.2017 10:18 4,9 C 7,8 C 84 % 1015,8 hPa 0,0 l/m 17,3 km/h (3 Bft) S-SW 195 0 min 0,000 mm 0,6 UV-I 121 W/m 2,4 C -2,2 C 25,7 km/h (4 Bft) 92,86 %
11.11.2017 10:20 4,9 C 7,8 C 84 % 1015,7 hPa 0,0 l/m 23,4 km/h (4 Bft) S-SO 167 0 min 0,000 mm 0,6 UV-I 114 W/m 2,4 C -4,6 C 33,8 km/h (5 Bft) 92,00 %
11.11.2017 10:22 4,9 C 7,8 C 84 % 1015,7 hPa 0,0 l/m 23,0 km/h (4 Bft) W-SW 257 0 min 0,000 mm 0,6 UV-I 121 W/m 2,4 C -4,4 C 32,2 km/h (5 Bft) 95,12 %
11.11.2017 10:24 4,9 C 7,8 C 84 % 1015,7 hPa 0,0 l/m 22,6 km/h (4 Bft) SW 227 0 min 0,000 mm 0,7 UV-I 121 W/m 2,4 C -4,3 C 35,4 km/h (5 Bft) 95,24 %
11.11.2017 10:26 4,9 C 7,8 C 85 % 1015,7 hPa 0,0 l/m 16,9 km/h (3 Bft) W-SW 246 0 min 0,000 mm 0,7 UV-I 145 W/m 2,6 C -2,0 C 27,4 km/h (4 Bft) 98,18 %
11.11.2017 10:28 4,9 C 7,8 C 85 % 1015,8 hPa 0,0 l/m 22,0 km/h (4 Bft) SW 219 0 min 0,000 mm 0,8 UV-I 165 W/m 2,6 C -4,1 C 35,4 km/h (5 Bft) 95,24 %
11.11.2017 10:30 5,1 C 7,8 C 85 % 1015,7 hPa 0,0 l/m 17,0 km/h (3 Bft) SW 222 2 min 0,000 mm 0,8 UV-I 328 W/m 2,8 C -1,8 C 24,1 km/h (4 Bft) 96,23 %
11.11.2017 10:32 5,2 C 7,8 C 85 % 1015,7 hPa 0,0 l/m 19,9 km/h (4 Bft) S-SW 198 2 min 0,000 mm 0,8 UV-I 309 W/m 2,9 C -2,9 C 29,0 km/h (5 Bft) 95,74 %
11.11.2017 10:34 5,3 C 7,8 C 84 % 1015,7 hPa 0,0 l/m 19,8 km/h (3 Bft) W-SW 238 2 min 0,000 mm 0,8 UV-I 246 W/m 2,8 C -2,7 C 30,6 km/h (5 Bft) 97,56 %
11.11.2017 10:36 5,3 C 7,8 C 84 % 1015,8 hPa 0,0 l/m 22,1 km/h (4 Bft) SW 220 0 min 0,000 mm 0,7 UV-I 211 W/m 2,8 C -3,6 C 30,6 km/h (5 Bft) 93,18 %
11.11.2017 10:38 5,3 C 7,8 C 84 % 1015,9 hPa 0,0 l/m 18,2 km/h (3 Bft) W-SW 239 0 min 0,000 mm 0,7 UV-I 166 W/m 2,8 C -2,0 C 32,2 km/h (5 Bft) 97,73 %
11.11.2017 10:40 5,2 C 7,8 C 84 % 1015,8 hPa 0,0 l/m 23,6 km/h (4 Bft) SW 233 0 min 0,000 mm 0,7 UV-I 164 W/m 2,7 C -4,2 C 33,8 km/h (5 Bft) 96,61 %
11.11.2017 10:42 5,2 C 7,8 C 84 % 1015,6 hPa 0,0 l/m 15,2 km/h (3 Bft) SW 232 0 min 0,000 mm 0,6 UV-I 175 W/m 2,7 C -0,8 C 22,5 km/h (4 Bft) 95,74 %
11.11.2017 10:44 5,3 C 7,8 C 85 % 1015,6 hPa 0,0 l/m 14,3 km/h (3 Bft) SW 219 2 min 0,000 mm 0,7 UV-I 264 W/m 3,0 C -0,2 C 24,1 km/h (4 Bft) 94,74 %
11.11.2017 10:46 5,3 C 7,8 C 84 % 1015,5 hPa 0,0 l/m 19,6 km/h (3 Bft) S-SW 192 2 min 0,000 mm 0,7 UV-I 242 W/m 2,8 C -2,6 C 29,0 km/h (5 Bft) 96,23 %
11.11.2017 10:48 5,4 C 7,8 C 84 % 1015,4 hPa 0,0 l/m 18,4 km/h (3 Bft) SW 216 2 min 0,000 mm 0,8 UV-I 278 W/m 2,9 C -2,0 C 25,7 km/h (4 Bft) 94,74 %
11.11.2017 10:50 5,4 C 7,8 C 84 % 1015,4 hPa 0,0 l/m 16,7 km/h (3 Bft) SW 221 2 min 0,000 mm 0,9 UV-I 294 W/m 2,9 C -1,3 C 25,7 km/h (4 Bft) 96,61 %
11.11.2017 10:52 5,6 C 7,8 C 84 % 1015,5 hPa 0,0 l/m 18,8 km/h (3 Bft) W-SW 238 2 min 0,000 mm 0,8 UV-I 261 W/m 3,1 C -1,9 C 27,4 km/h (4 Bft) 97,73 %
11.11.2017 10:54 5,6 C 7,8 C 84 % 1015,6 hPa 0,0 l/m 24,8 km/h (4 Bft) SW 229 2 min 0,000 mm 0,8 UV-I 302 W/m 3,1 C -4,1 C 38,6 km/h (5 Bft) 98,00 %
11.11.2017 10:56 5,7 C 7,8 C 83 % 1015,4 hPa 0,0 l/m 21,2 km/h (4 Bft) SW 235 2 min 0,000 mm 0,9 UV-I 351 W/m 3,0 C -2,7 C 33,8 km/h (5 Bft) 97,56 %
11.11.2017 10:58 5,7 C 7,8 C 84 % 1015,3 hPa 0,0 l/m 17,5 km/h (3 Bft) SW 216 2 min 0,000 mm 0,8 UV-I 268 W/m 3,2 C -1,2 C 25,7 km/h (4 Bft) 97,56 %
11.11.2017 11:00 5,7 C 7,8 C 84 % 1015,3 hPa 0,0 l/m 23,0 km/h (4 Bft) W-SW 244 2 min 0,102 mm 0,8 UV-I 225 W/m 3,2 C -3,3 C 35,4 km/h (5 Bft) 96,23 %
11.11.2017 11:02 5,7 C 7,8 C 83 % 1015,2 hPa 0,0 l/m 21,7 km/h (4 Bft) SW 226 2 min 0,000 mm 0,9 UV-I 273 W/m 3,0 C -2,9 C 30,6 km/h (5 Bft) 96,00 %
11.11.2017 11:04 5,7 C 7,8 C 83 % 1015,3 hPa 0,0 l/m 21,5 km/h (4 Bft) W-SW 238 2 min 0,000 mm 0,8 UV-I 249 W/m 3,0 C -2,8 C 30,6 km/h (5 Bft) 97,44 %
11.11.2017 11:06 5,7 C 7,8 C 84 % 1015,2 hPa 0,0 l/m 18,4 km/h (3 Bft) SW 219 2 min 0,000 mm 0,8 UV-I 228 W/m 3,2 C -1,6 C 27,4 km/h (4 Bft) 97,87 %
11.11.2017 11:08 5,7 C 7,8 C 83 % 1015,2 hPa 0,0 l/m 20,7 km/h (4 Bft) SW 233 0 min 0,000 mm 0,8 UV-I 223 W/m 3,0 C -2,5 C 32,2 km/h (5 Bft) 98,00 %
11.11.2017 11:10 5,7 C 7,8 C 84 % 1015,2 hPa 0,0 l/m 20,7 km/h (4 Bft) SW 236 2 min 0,000 mm 0,8 UV-I 267 W/m 3,2 C -2,5 C 25,7 km/h (4 Bft) 97,73 %
11.11.2017 11:13 5,8 C 7,8 C 85 % 1015,2 hPa 0,0 l/m 15,3 km/h (3 Bft) SW 221 3 min 0,000 mm 0,8 UV-I 275 W/m 3,5 C -0,1 C 24,1 km/h (4 Bft) 97,14 %
11.11.2017 11:14 5,8 C 7,8 C 84 % 1015,2 hPa 0,0 l/m 22,4 km/h (4 Bft) S-SW 199 0 min 0,000 mm 0,8 UV-I 204 W/m 3,3 C -3,0 C 30,6 km/h (5 Bft) 100,00 %
11.11.2017 11:16 5,8 C 7,8 C 84 % 1015,2 hPa 0,0 l/m 19,6 km/h (3 Bft) W-SW 251 0 min 0,000 mm 0,8 UV-I 195 W/m 3,3 C -2,0 C 35,4 km/h (5 Bft) 97,56 %
11.11.2017 11:18 5,7 C 7,8 C 84 % 1015,2 hPa 0,0 l/m 18,7 km/h (3 Bft) S-SW 210 0 min 0,000 mm 0,8 UV-I 215 W/m 3,2 C -1,8 C 29,0 km/h (5 Bft) 96,00 %
11.11.2017 11:20 5,8 C 7,8 C 84 % 1015,1 hPa 0,0 l/m 15,0 km/h (3 Bft) W-SW 250 2 min 0,000 mm 0,8 UV-I 230 W/m 3,3 C 0,0 C 25,7 km/h (4 Bft) 97,78 %
11.11.2017 11:22 5,8 C 7,8 C 84 % 1015,1 hPa 0,0 l/m 20,4 km/h (4 Bft) SW 229 2 min 0,000 mm 0,8 UV-I 246 W/m 3,3 C -2,3 C 33,8 km/h (5 Bft) 96,00 %
11.11.2017 11:24 5,8 C 7,8 C 83 % 1015,0 hPa 0,0 l/m 24,5 km/h (4 Bft) S-SW 211 2 min 0,000 mm 0,8 UV-I 242 W/m 3,1 C -3,7 C 35,4 km/h (5 Bft) 97,73 %
11.11.2017 11:26 5,8 C 7,8 C 83 % 1015,1 hPa 0,0 l/m 27,4 km/h (4 Bft) W-SW 254 2 min 0,000 mm 0,8 UV-I 233 W/m 3,1 C -4,6 C 35,4 km/h (5 Bft) 98,11 %
11.11.2017 11:28 5,8 C 7,8 C 83 % 1015,0 hPa 0,0 l/m 22,0 km/h (4 Bft) W-SW 237 0 min 0,000 mm 0,8 UV-I 227 W/m 3,1 C -2,9 C 35,4 km/h (5 Bft) 97,56 %
11.11.2017 11:30 5,8 C 7,8 C 83 % 1015,0 hPa 0,0 l/m 17,7 km/h (3 Bft) W-SW 240 2 min 0,000 mm 0,8 UV-I 242 W/m 3,1 C -1,2 C 30,6 km/h (5 Bft) 100,00 %
11.11.2017 11:32 5,9 C 7,8 C 84 % 1015,0 hPa 0,0 l/m 16,6 km/h (3 Bft) W-SW 241 2 min 0,000 mm 0,8 UV-I 263 W/m 3,4 C -0,6 C 27,4 km/h (4 Bft) 97,87 %
11.11.2017 11:34 5,9 C 7,8 C 84 % 1015,0 hPa 0,0 l/m 13,6 km/h (3 Bft) W 261 2 min 0,000 mm 0,8 UV-I 255 W/m 3,4 C 0,9 C 22,5 km/h (4 Bft) 100,00 %
11.11.2017 11:36 6,1 C 7,8 C 83 % 1014,9 hPa 0,0 l/m 20,2 km/h (4 Bft) W-SW 257 2 min 0,000 mm 0,8 UV-I 250 W/m 3,4 C -1,8 C 30,6 km/h (5 Bft) 100,00 %
11.11.2017 11:38 6,1 C 7,8 C 83 % 1014,8 hPa 0,0 l/m 22,3 km/h (4 Bft) W-SW 248 2 min 0,000 mm 0,9 UV-I 267 W/m 3,4 C -2,6 C 33,8 km/h (5 Bft) 100,00 %
11.11.2017 11:40 6,1 C 7,8 C 83 % 1014,8 hPa 0,0 l/m 21,2 km/h (4 Bft) W-SW 242 2 min 0,000 mm 0,8 UV-I 241 W/m 3,4 C -2,2 C 30,6 km/h (5 Bft) 100,00 %
11.11.2017 11:42 6,1 C 7,8 C 82 % 1014,8 hPa 0,0 l/m 26,1 km/h (4 Bft) S-SO 161 0 min 0,000 mm 0,8 UV-I 213 W/m 3,3 C -3,8 C 35,4 km/h (5 Bft) 100,00 %
11.11.2017 11:44 6,1 C 7,8 C 82 % 1014,8 hPa 0,0 l/m 23,1 km/h (4 Bft) W 263 0 min 0,000 mm 0,8 UV-I 229 W/m 3,3 C -2,9 C 33,8 km/h (5 Bft) 98,18 %
11.11.2017 11:46 6,1 C 7,8 C 82 % 1014,7 hPa 0,0 l/m 26,5 km/h (4 Bft) W-SW 242 2 min 0,000 mm 0,8 UV-I 230 W/m 3,3 C -3,9 C 37,0 km/h (5 Bft) 97,92 %
11.11.2017 11:48 6,1 C 7,8 C 82 % 1014,7 hPa 0,0 l/m 24,4 km/h (4 Bft) W-SW 252 0 min 0,000 mm 0,8 UV-I 229 W/m 3,3 C -3,3 C 38,6 km/h (5 Bft) 97,37 %
11.11.2017 11:50 6,1 C 7,8 C 83 % 1014,7 hPa 0,0 l/m 22,7 km/h (4 Bft) SW 235 0 min 0,000 mm 0,8 UV-I 222 W/m 3,4 C -2,7 C 32,2 km/h (5 Bft) 98,00 %
11.11.2017 11:52 6,1 C 7,8 C 83 % 1014,7 hPa 0,0 l/m 19,1 km/h (3 Bft) S 191 0 min 0,000 mm 0,8 UV-I 202 W/m 3,4 C -1,4 C 27,4 km/h (4 Bft) 98,00 %
11.11.2017 11:54 6,2 C 7,8 C 83 % 1014,7 hPa 0,0 l/m 22,3 km/h (4 Bft) W-SW 237 0 min 0,000 mm 0,7 UV-I 183 W/m 3,5 C -2,4 C 32,2 km/h (5 Bft) 97,56 %
11.11.2017 11:56 6,2 C 7,8 C 83 % 1014,7 hPa 0,0 l/m 13,2 km/h (3 Bft) SW 221 0 min 0,000 mm 0,7 UV-I 179 W/m 3,5 C 1,5 C 22,5 km/h (4 Bft) 96,00 %
11.11.2017 11:58 6,3 C 7,8 C 83 % 1014,7 hPa 0,0 l/m 16,9 km/h (3 Bft) SW 232 0 min 0,000 mm 0,7 UV-I 185 W/m 3,6 C -0,2 C 27,4 km/h (4 Bft) 96,23 %
11.11.2017 12:00 6,3 C 7,8 C 83 % 1014,6 hPa 0,0 l/m 20,6 km/h (4 Bft) S-SW 211 0 min 0,127 mm 0,7 UV-I 183 W/m 3,6 C -1,7 C 32,2 km/h (5 Bft) 100,00 %
11.11.2017 12:03 6,3 C 7,8 C 82 % 1014,6 hPa 0,0 l/m 19,9 km/h (4 Bft) SW 231 0 min 0,000 mm 0,7 UV-I 184 W/m 3,5 C -1,5 C 32,2 km/h (5 Bft) 97,30 %
11.11.2017 12:04 6,3 C 7,8 C 82 % 1014,6 hPa 0,0 l/m 21,1 km/h (4 Bft) SW 221 0 min 0,000 mm 0,7 UV-I 181 W/m 3,5 C -1,9 C 27,4 km/h (4 Bft) 96,15 %
11.11.2017 12:06 6,3 C 7,8 C 82 % 1014,6 hPa 0,0 l/m 19,8 km/h (3 Bft) SW 221 0 min 0,000 mm 0,7 UV-I 183 W/m 3,5 C -1,4 C 33,8 km/h (5 Bft) 95,12 %
11.11.2017 12:08 6,3 C 7,8 C 82 % 1014,6 hPa 0,0 l/m 20,1 km/h (4 Bft) W-SW 242 0 min 0,000 mm 0,7 UV-I 178 W/m 3,5 C -1,5 C 30,6 km/h (5 Bft) 98,00 %
11.11.2017 12:10 6,3 C 7,8 C 82 % 1014,6 hPa 0,0 l/m 16,7 km/h (3 Bft) W-SW 240 0 min 0,000 mm 0,7 UV-I 173 W/m 3,5 C -0,1 C 25,7 km/h (4 Bft) 97,73 %
11.11.2017 12:12 6,4 C 7,8 C 82 % 1014,5 hPa 0,0 l/m 20,8 km/h (4 Bft) S-SW 202 0 min 0,000 mm 0,6 UV-I 167 W/m 3,6 C -1,7 C 32,2 km/h (5 Bft) 97,56 %
11.11.2017 12:14 6,4 C 7,8 C 81 % 1014,5 hPa 0,0 l/m 16,1 km/h (3 Bft) W-SW 253 0 min 0,000 mm 0,6 UV-I 162 W/m 3,4 C 0,3 C 24,1 km/h (4 Bft) 98,21 %
11.11.2017 12:16 6,4 C 7,8 C 81 % 1014,4 hPa 0,0 l/m 19,9 km/h (4 Bft) SW 227 0 min 0,000 mm 0,6 UV-I 168 W/m 3,4 C -1,3 C 25,7 km/h (4 Bft) 97,87 %
11.11.2017 12:18 6,5 C 7,8 C 81 % 1014,3 hPa 0,0 l/m 20,1 km/h (4 Bft) SW 232 0 min 0,000 mm 0,7 UV-I 188 W/m 3,5 C -1,3 C 29,0 km/h (5 Bft) 100,00 %
11.11.2017 12:20 6,5 C 7,8 C 81 % 1014,4 hPa 0,0 l/m 16,4 km/h (3 Bft) SW 234 0 min 0,000 mm 0,7 UV-I 186 W/m 3,5 C 0,2 C 25,7 km/h (4 Bft) 100,00 %
11.11.2017 12:22 6,6 C 7,8 C 81 % 1014,3 hPa 0,0 l/m 17,4 km/h (3 Bft) W-SW 257 0 min 0,000 mm 0,6 UV-I 177 W/m 3,6 C -0,1 C 25,7 km/h (4 Bft) 97,62 %
11.11.2017 12:24 6,6 C 7,8 C 80 % 1014,3 hPa 0,0 l/m 21,9 km/h (4 Bft) W-SW 250 0 min 0,000 mm 0,7 UV-I 175 W/m 3,4 C -1,8 C 33,8 km/h (5 Bft) 100,00 %
11.11.2017 12:26 6,6 C 7,8 C 80 % 1014,3 hPa 0,0 l/m 19,3 km/h (3 Bft) W-SW 244 0 min 0,000 mm 0,7 UV-I 178 W/m 3,4 C -0,8 C 25,7 km/h (4 Bft) 100,00 %
11.11.2017 12:28 6,6 C 7,8 C 80 % 1014,2 hPa 0,0 l/m 20,1 km/h (4 Bft) SW 233 0 min 0,000 mm 0,7 UV-I 182 W/m 3,4 C -1,1 C 32,2 km/h (5 Bft) 97,62 %
11.11.2017 12:30 6,7 C 7,8 C 79 % 1014,1 hPa 0,0 l/m 19,1 km/h (3 Bft) S-SW 213 0 min 0,000 mm 0,7 UV-I 193 W/m 3,3 C -0,6 C 30,6 km/h (5 Bft) 100,00 %
11.11.2017 12:32 6,7 C 7,8 C 78 % 1014,1 hPa 0,0 l/m 15,7 km/h (3 Bft) W-SW 253 0 min 0,000 mm 0,8 UV-I 216 W/m 3,1 C 0,8 C 24,1 km/h (4 Bft) 100,00 %
11.11.2017 12:34 6,7 C 7,8 C 78 % 1014,2 hPa 0,0 l/m 16,5 km/h (3 Bft) SW 224 2 min 0,000 mm 0,8 UV-I 223 W/m 3,1 C 0,4 C 29,0 km/h (5 Bft) 100,00 %
11.11.2017 12:36 6,8 C 7,8 C 77 % 1014,0 hPa 0,0 l/m 22,0 km/h (4 Bft) S 188 0 min 0,000 mm 0,7 UV-I 194 W/m 3,1 C -1,6 C 30,6 km/h (5 Bft) 100,00 %
11.11.2017 12:38 6,8 C 7,8 C 77 % 1014,0 hPa 0,0 l/m 19,6 km/h (3 Bft) W-SW 238 0 min 0,000 mm 0,7 UV-I 177 W/m 3,1 C -0,7 C 32,2 km/h (5 Bft) 98,00 %
11.11.2017 12:40 6,8 C 7,8 C 77 % 1013,9 hPa 0,0 l/m 20,1 km/h (4 Bft) SW 224 0 min 0,000 mm 0,7 UV-I 180 W/m 3,1 C -0,9 C 30,6 km/h (5 Bft) 100,00 %
11.11.2017 12:42 6,8 C 7,8 C 77 % 1013,9 hPa 0,0 l/m 20,4 km/h (4 Bft) SW 231 0 min 0,000 mm 0,6 UV-I 179 W/m 3,1 C -1,0 C 29,0 km/h (5 Bft) 97,56 %
11.11.2017 12:44 6,8 C 7,8 C 76 % 1013,9 hPa 0,0 l/m 19,7 km/h (3 Bft) W-SW 238 0 min 0,000 mm 0,6 UV-I 165 W/m 2,9 C -0,7 C 33,8 km/h (5 Bft) 100,00 %
11.11.2017 12:46 6,8 C 7,8 C 75 % 1013,9 hPa 0,0 l/m 24,5 km/h (4 Bft) SW 222 0 min 0,000 mm 0,6 UV-I 170 W/m 2,7 C -2,4 C 37,0 km/h (5 Bft) 98,31 %
11.11.2017 12:48 6,8 C 7,8 C 75 % 1013,9 hPa 0,0 l/m 22,2 km/h (4 Bft) S 190 0 min 0,000 mm 0,5 UV-I 141 W/m 2,7 C -1,6 C 32,2 km/h (5 Bft) 97,37 %
11.11.2017 12:50 6,8 C 7,8 C 75 % 1013,7 hPa 0,0 l/m 20,3 km/h (4 Bft) SW 220 0 min 0,000 mm 0,1 UV-I 101 W/m 2,7 C -1,0 C 29,0 km/h (5 Bft) 100,00 %
11.11.2017 12:52 6,8 C 7,8 C 75 % 1013,7 hPa 0,0 l/m 21,0 km/h (4 Bft) W-SW 246 0 min 0,000 mm 0,0 UV-I 87 W/m 2,7 C -1,2 C 32,2 km/h (5 Bft) 100,00 %
11.11.2017 12:54 6,7 C 7,8 C 74 % 1013,7 hPa 0,0 l/m 20,5 km/h (4 Bft) SW 234 0 min 0,000 mm 0,0 UV-I 84 W/m 2,4 C -1,2 C 30,6 km/h (5 Bft) 100,00 %
11.11.2017 12:56 6,7 C 7,8 C 75 % 1013,7 hPa 0,0 l/m 22,2 km/h (4 Bft) W-SW 245 0 min 0,000 mm 0,0 UV-I 88 W/m 2,6 C -1,8 C 32,2 km/h (5 Bft) 100,00 %
11.11.2017 12:58 6,7 C 7,8 C 74 % 1013,7 hPa 0,0 l/m 20,4 km/h (4 Bft) SW 228 0 min 0,000 mm 0,0 UV-I 96 W/m 2,4 C -1,1 C 32,2 km/h (5 Bft) 100,00 %
11.11.2017 13:00 6,7 C 7,8 C 75 % 1013,9 hPa 0,0 l/m 22,0 km/h (4 Bft) W-SW 238 0 min 0,000 mm 0,0 UV-I 100 W/m 2,6 C -1,7 C 33,8 km/h (5 Bft) 94,44 %
11.11.2017 13:02 6,7 C 7,8 C 75 % 1013,7 hPa 0,0 l/m 19,9 km/h (4 Bft) W-SW 256 0 min 0,101 mm 0,0 UV-I 113 W/m 2,6 C -0,9 C 32,2 km/h (5 Bft) 100,00 %
11.11.2017 13:04 6,7 C 7,8 C 75 % 1013,6 hPa 0,0 l/m 17,7 km/h (3 Bft) SW 231 0 min 0,000 mm 0,5 UV-I 125 W/m 2,6 C -0,1 C 22,5 km/h (4 Bft) 100,00 %
11.11.2017 13:06 6,7 C 7,8 C 75 % 1013,6 hPa 0,0 l/m 19,9 km/h (4 Bft) W-SW 242 0 min 0,000 mm 0,1 UV-I 126 W/m 2,6 C -0,9 C 27,4 km/h (4 Bft) 100,00 %
11.11.2017 13:08 6,7 C 7,8 C 75 % 1013,6 hPa 0,0 l/m 22,1 km/h (4 Bft) SW 235 0 min 0,000 mm 0,0 UV-I 107 W/m 2,6 C -1,7 C 32,2 km/h (5 Bft) 100,00 %
11.11.2017 13:10 6,7 C 7,8 C 75 % 1013,6 hPa 0,0 l/m 17,4 km/h (3 Bft) SW 236 0 min 0,000 mm 0,0 UV-I 102 W/m 2,6 C 0,1 C 25,7 km/h (4 Bft) 100,00 %
11.11.2017 13:12 6,7 C 7,8 C 76 % 1013,5 hPa 0,0 l/m 17,4 km/h (3 Bft) SW 214 0 min 0,000 mm 0,0 UV-I 104 W/m 2,8 C 0,1 C 25,7 km/h (4 Bft) 100,00 %
11.11.2017 13:14 6,7 C 7,8 C 76 % 1013,5 hPa 0,0 l/m 19,5 km/h (3 Bft) SW 235 0 min 0,000 mm 0,0 UV-I 111 W/m 2,8 C -0,8 C 32,2 km/h (5 Bft) 97,87 %
11.11.2017 13:16 6,7 C 7,8 C 75 % 1013,4 hPa 0,0 l/m 18,8 km/h (3 Bft) SW 228 0 min 0,000 mm 0,0 UV-I 117 W/m 2,6 C -0,5 C 29,0 km/h (5 Bft) 100,00 %
11.11.2017 13:18 6,7 C 7,8 C 76 % 1013,3 hPa 0,0 l/m 17,3 km/h (3 Bft) S-SW 208 0 min 0,000 mm 0,0 UV-I 108 W/m 2,8 C 0,1 C 27,4 km/h (4 Bft) 100,00 %
11.11.2017 13:20 6,7 C 7,8 C 77 % 1013,4 hPa 0,0 l/m 15,2 km/h (3 Bft) SW 227 0 min 0,000 mm 0,0 UV-I 99 W/m 3,0 C 1,0 C 25,7 km/h (4 Bft) 97,37 %
11.11.2017 13:22 6,7 C 7,8 C 76 % 1013,2 hPa 0,0 l/m 15,3 km/h (3 Bft) SW 214 0 min 0,000 mm 0,0 UV-I 95 W/m 2,8 C 1,0 C 24,1 km/h (4 Bft) 98,21 %
11.11.2017 13:24 6,7 C 7,8 C 76 % 1013,2 hPa 0,0 l/m 15,1 km/h (3 Bft) S-SW 200 0 min 0,000 mm 0,0 UV-I 86 W/m 2,8 C 1,1 C 24,1 km/h (4 Bft) 98,25 %
11.11.2017 13:26 6,7 C 7,8 C 76 % 1013,2 hPa 0,0 l/m 14,6 km/h (3 Bft) S-SW 203 0 min 0,000 mm 0,0 UV-I 70 W/m 2,8 C 1,3 C 22,5 km/h (4 Bft) 97,56 %
11.11.2017 13:28 6,7 C 7,8 C 76 % 1013,2 hPa 0,0 l/m 16,2 km/h (3 Bft) S-SW 204 0 min 0,000 mm 0,0 UV-I 64 W/m 2,8 C 0,6 C 25,7 km/h (4 Bft) 100,00 %
11.11.2017 13:30 6,6 C 7,8 C 76 % 1013,1 hPa 0,0 l/m 14,0 km/h (3 Bft) W-SW 252 0 min 0,000 mm 0,0 UV-I 70 W/m 2,7 C 1,5 C 22,5 km/h (4 Bft) 97,87 %
11.11.2017 13:32 6,6 C 7,8 C 76 % 1013,1 hPa 0,0 l/m 14,3 km/h (3 Bft) S-SW 213 0 min 0,000 mm 0,0 UV-I 66 W/m 2,7 C 1,4 C 19,3 km/h (3 Bft) 100,00 %
11.11.2017 13:34 6,6 C 7,8 C 76 % 1013,1 hPa 0,0 l/m 20,4 km/h (4 Bft) SW 214 0 min 0,000 mm 0,0 UV-I 55 W/m 2,7 C -1,3 C 27,4 km/h (4 Bft) 100,00 %
11.11.2017 13:36 6,6 C 7,8 C 76 % 1013,0 hPa 0,0 l/m 14,3 km/h (3 Bft) S-SW 197 0 min 0,000 mm 0,0 UV-I 55 W/m 2,7 C 1,4 C 24,1 km/h (4 Bft) 97,73 %
11.11.2017 13:38 6,6 C 7,8 C 76 % 1012,9 hPa 0,0 l/m 15,9 km/h (3 Bft) S-SW 196 0 min 0,000 mm 0,0 UV-I 55 W/m 2,7 C 0,6 C 22,5 km/h (4 Bft) 100,00 %
11.11.2017 13:40 6,6 C 7,8 C 76 % 1012,9 hPa 0,0 l/m 17,3 km/h (3 Bft) S-SW 202 0 min 0,000 mm 0,0 UV-I 52 W/m 2,7 C -0,0 C 24,1 km/h (4 Bft) 98,08 %
11.11.2017 13:42 6,5 C 7,8 C 76 % 1012,9 hPa 0,0 l/m 13,0 km/h (3 Bft) S 186 0 min 0,000 mm 0,0 UV-I 46 W/m 2,6 C 1,9 C 22,5 km/h (4 Bft) 94,87 %
11.11.2017 13:44 6,5 C 7,8 C 75 % 1012,8 hPa 0,0 l/m 15,3 km/h (3 Bft) SW 218 0 min 0,000 mm 0,0 UV-I 40 W/m 2,4 C 0,7 C 22,5 km/h (4 Bft) 96,43 %
11.11.2017 13:46 6,5 C 7,8 C 76 % 1012,9 hPa 0,0 l/m 13,3 km/h (3 Bft) SW 217 0 min 0,000 mm 0,0 UV-I 37 W/m 2,6 C 1,8 C 20,9 km/h (4 Bft) 100,00 %
11.11.2017 13:48 6,4 C 7,8 C 75 % 1012,9 hPa 0,0 l/m 14,6 km/h (3 Bft) SW 215 0 min 0,000 mm 0,0 UV-I 35 W/m 2,3 C 1,0 C 20,9 km/h (4 Bft) 95,74 %
11.11.2017 13:50 6,4 C 7,8 C 76 % 1012,8 hPa 0,0 l/m 13,5 km/h (3 Bft) S-SW 209 0 min 0,000 mm 0,0 UV-I 35 W/m 2,5 C 1,5 C 17,7 km/h (3 Bft) 95,45 %
11.11.2017 13:52 6,4 C 7,8 C 76 % 1012,7 hPa 0,0 l/m 16,1 km/h (3 Bft) W 259 0 min 0,000 mm 0,0 UV-I 37 W/m 2,5 C 0,3 C 24,1 km/h (4 Bft) 96,43 %
11.11.2017 13:54 6,4 C 7,8 C 76 % 1012,8 hPa 0,0 l/m 13,3 km/h (3 Bft) SW 218 0 min 0,000 mm 0,0 UV-I 41 W/m 2,5 C 1,6 C 19,3 km/h (3 Bft) 97,73 %
11.11.2017 13:56 6,4 C 7,8 C 76 % 1012,8 hPa 0,0 l/m 14,1 km/h (3 Bft) W-SW 240 0 min 0,000 mm 0,0 UV-I 46 W/m 2,5 C 1,2 C 19,3 km/h (3 Bft) 96,23 %
11.11.2017 13:58 6,4 C 7,8 C 76 % 1012,7 hPa 0,0 l/m 14,6 km/h (3 Bft) W-SW 239 0 min 0,000 mm 0,0 UV-I 46 W/m 2,5 C 1,0 C 22,5 km/h (4 Bft) 97,56 %
11.11.2017 14:00 6,4 C 7,8 C 77 % 1012,7 hPa 0,0 l/m 14,8 km/h (3 Bft) SW 223 0 min 0,076 mm 0,0 UV-I 51 W/m 2,7 C 0,9 C 20,9 km/h (4 Bft) 98,00 %
11.11.2017 14:02 6,4 C 7,8 C 77 % 1012,7 hPa 0,0 l/m 14,9 km/h (3 Bft) W-SW 239 0 min 0,000 mm 0,0 UV-I 56 W/m 2,7 C 0,8 C 24,1 km/h (4 Bft) 97,56 %
11.11.2017 14:04 6,4 C 7,8 C 77 % 1012,7 hPa 0,0 l/m 13,9 km/h (3 Bft) SW 216 0 min 0,000 mm 0,0 UV-I 59 W/m 2,7 C 1,3 C 22,5 km/h (4 Bft) 95,74 %
11.11.2017 14:06 6,4 C 7,8 C 78 % 1012,6 hPa 0,0 l/m 12,7 km/h (3 Bft) SW 232 0 min 0,000 mm 0,0 UV-I 64 W/m 2,8 C 2,0 C 20,9 km/h (4 Bft) 98,00 %
11.11.2017 14:08 6,4 C 7,8 C 78 % 1012,6 hPa 0,0 l/m 13,4 km/h (3 Bft) S-SW 209 0 min 0,000 mm 0,0 UV-I 64 W/m 2,8 C 1,6 C 19,3 km/h (3 Bft) 98,00 %
11.11.2017 14:10 6,4 C 7,8 C 78 % 1012,6 hPa 0,0 l/m 8,6 km/h (2 Bft) SW 236 0 min 0,000 mm 0,0 UV-I 58 W/m 2,8 C 4,6 C 14,5 km/h (3 Bft) 95,12 %
11.11.2017 14:12 6,4 C 7,8 C 79 % 1012,6 hPa 0,0 l/m 7,9 km/h (2 Bft) W-SW 243 0 min 0,000 mm 0,0 UV-I 59 W/m 3,0 C 5,2 C 14,5 km/h (3 Bft) 98,00 %
11.11.2017 14:14 6,3 C 7,8 C 79 % 1012,5 hPa 0,0 l/m 10,1 km/h (2 Bft) S 180 0 min 0,000 mm 0,0 UV-I 59 W/m 2,9 C 3,4 C 20,9 km/h (4 Bft) 100,00 %
11.11.2017 14:16 6,3 C 7,8 C 79 % 1012,5 hPa 0,0 l/m 14,2 km/h (3 Bft) W-SW 242 0 min 0,000 mm 0,0 UV-I 63 W/m 2,9 C 1,1 C 24,1 km/h (4 Bft) 100,00 %
11.11.2017 14:18 6,4 C 7,8 C 78 % 1012,4 hPa 0,0 l/m 11,4 km/h (2 Bft) S-SW 207 0 min 0,000 mm 0,0 UV-I 78 W/m 2,8 C 2,7 C 20,9 km/h (4 Bft) 98,11 %
11.11.2017 14:20 6,4 C 7,8 C 79 % 1012,4 hPa 0,0 l/m 10,2 km/h (2 Bft) W-SW 238 0 min 0,000 mm 0,0 UV-I 89 W/m 3,0 C 3,5 C 19,3 km/h (3 Bft) 98,18 %
11.11.2017 14:22 6,4 C 7,8 C 78 % 1012,3 hPa 0,0 l/m 11,9 km/h (2 Bft) S-SW 207 0 min 0,000 mm 0,0 UV-I 93 W/m 2,8 C 2,4 C 22,5 km/h (4 Bft) 100,00 %
11.11.2017 14:24 6,4 C 7,8 C 78 % 1012,3 hPa 0,0 l/m 11,9 km/h (2 Bft) SW 229 0 min 0,000 mm 0,0 UV-I 90 W/m 2,8 C 2,4 C 20,9 km/h (4 Bft) 97,73 %
11.11.2017 14:26 6,4 C 7,8 C 78 % 1012,3 hPa 0,0 l/m 11,9 km/h (2 Bft) SW 223 0 min 0,000 mm 0,0 UV-I 84 W/m 2,8 C 2,4 C 19,3 km/h (3 Bft) 98,11 %
11.11.2017 14:28 6,5 C 7,8 C 78 % 1012,4 hPa 0,0 l/m 14,9 km/h (3 Bft) S-SW 211 0 min 0,000 mm 0,0 UV-I 92 W/m 2,9 C 0,9 C 25,7 km/h (4 Bft) 100,00 %
11.11.2017 14:30 6,5 C 7,8 C 78 % 1012,2 hPa 0,0 l/m 11,7 km/h (2 Bft) SW 228 0 min 0,000 mm 0,0 UV-I 99 W/m 2,9 C 2,7 C 24,1 km/h (4 Bft) 100,00 %
11.11.2017 14:32 6,6 C 7,8 C 78 % 1012,2 hPa 0,0 l/m 15,0 km/h (3 Bft) SW 227 0 min 0,000 mm 0,0 UV-I 97 W/m 3,0 C 1,0 C 25,7 km/h (4 Bft) 100,00 %
11.11.2017 14:34 6,6 C 7,8 C 78 % 1012,1 hPa 0,0 l/m 15,4 km/h (3 Bft) W-SW 246 0 min 0,000 mm 0,0 UV-I 90 W/m 3,0 C 0,8 C 22,5 km/h (4 Bft) 100,00 %
11.11.2017 14:36 6,6 C 7,8 C 78 % 1012,2 hPa 0,0 l/m 8,9 km/h (2 Bft) SW 220 0 min 0,000 mm 0,0 UV-I 80 W/m 3,0 C 4,6 C 14,5 km/h (3 Bft) 97,87 %
11.11.2017 14:38 6,6 C 7,8 C 78 % 1012,2 hPa 0,0 l/m 9,8 km/h (2 Bft) W-SW 256 0 min 0,000 mm 0,0 UV-I 70 W/m 3,0 C 4,0 C 16,1 km/h (3 Bft) 98,00 %
11.11.2017 14:40 6,6 C 7,8 C 79 % 1012,2 hPa 0,0 l/m 12,3 km/h (3 Bft) S 188 0 min 0,000 mm 0,0 UV-I 64 W/m 3,2 C 2,4 C 17,7 km/h (3 Bft) 97,56 %
11.11.2017 14:42 6,6 C 7,8 C 79 % 1012,2 hPa 0,0 l/m 12,9 km/h (3 Bft) W-SW 250 0 min 0,000 mm 0,0 UV-I 59 W/m 3,2 C 2,1 C 19,3 km/h (3 Bft) 97,87 %
11.11.2017 14:44 6,6 C 7,8 C 79 % 1012,1 hPa 0,0 l/m 13,1 km/h (3 Bft) S-SW 205 0 min 0,000 mm 0,0 UV-I 58 W/m 3,2 C 2,0 C 20,9 km/h (4 Bft) 98,00 %
11.11.2017 14:46 6,5 C 7,8 C 79 % 1012,1 hPa 0,0 l/m 14,1 km/h (3 Bft) SW 232 0 min 0,000 mm 0,0 UV-I 62 W/m 3,1 C 1,3 C 22,5 km/h (4 Bft) 98,00 %
11.11.2017 14:48 6,5 C 7,8 C 80 % 1012,1 hPa 0,0 l/m 14,1 km/h (3 Bft) S 190 0 min 0,000 mm 0,0 UV-I 59 W/m 3,3 C 1,3 C 24,1 km/h (4 Bft) 97,37 %
11.11.2017 14:50 6,5 C 7,8 C 79 % 1012,1 hPa 0,0 l/m 14,8 km/h (3 Bft) SW 214 0 min 0,000 mm 0,0 UV-I 55 W/m 3,1 C 1,0 C 20,9 km/h (4 Bft) 95,45 %
11.11.2017 14:52 6,5 C 7,8 C 79 % 1012,1 hPa 0,0 l/m 11,0 km/h (2 Bft) SW 234 0 min 0,000 mm 0,0 UV-I 54 W/m 3,1 C 3,1 C 19,3 km/h (3 Bft) 98,21 %
11.11.2017 14:54 6,5 C 7,8 C 80 % 1012,0 hPa 0,0 l/m 12,4 km/h (3 Bft) SW 224 0 min 0,000 mm 0,0 UV-I 53 W/m 3,3 C 2,3 C 19,3 km/h (3 Bft) 95,12 %
11.11.2017 14:56 6,5 C 7,8 C 80 % 1012,1 hPa 0,0 l/m 12,0 km/h (2 Bft) SW 217 0 min 0,000 mm 0,0 UV-I 53 W/m 3,3 C 2,5 C 22,5 km/h (4 Bft) 97,87 %
11.11.2017 14:58 6,4 C 7,8 C 80 % 1012,0 hPa 0,0 l/m 10,4 km/h (2 Bft) SW 225 0 min 0,000 mm 0,0 UV-I 54 W/m 3,2 C 3,4 C 14,5 km/h (3 Bft) 94,34 %
11.11.2017 15:00 6,4 C 7,8 C 81 % 1012,0 hPa 0,0 l/m 10,7 km/h (2 Bft) SW 236 0 min 0,051 mm 0,0 UV-I 57 W/m 3,4 C 3,2 C 16,1 km/h (3 Bft) 98,04 %
11.11.2017 15:02 6,4 C 7,8 C 81 % 1012,0 hPa 0,0 l/m 8,5 km/h (2 Bft) S-SW 212 0 min 0,000 mm 0,0 UV-I 55 W/m 3,4 C 4,7 C 14,5 km/h (3 Bft) 97,22 %
11.11.2017 15:04 6,4 C 7,8 C 81 % 1011,9 hPa 0,0 l/m 6,5 km/h (2 Bft) S-SW 207 0 min 0,000 mm 0,0 UV-I 54 W/m 3,4 C 6,3 C 9,7 km/h (2 Bft) 96,23 %
11.11.2017 15:06 6,4 C 7,8 C 82 % 1011,8 hPa 0,0 l/m 11,3 km/h (2 Bft) W-SW 256 0 min 0,000 mm 0,0 UV-I 54 W/m 3,6 C 2,8 C 19,3 km/h (3 Bft) 95,12 %
11.11.2017 15:08 6,3 C 7,8 C 82 % 1011,7 hPa 0,0 l/m 11,9 km/h (2 Bft) S-SW 197 0 min 0,000 mm 0,0 UV-I 54 W/m 3,5 C 2,3 C 22,5 km/h (4 Bft) 95,74 %
11.11.2017 15:10 6,3 C 7,8 C 82 % 1011,8 hPa 0,0 l/m 11,6 km/h (2 Bft) SW 220 0 min 0,000 mm 0,0 UV-I 50 W/m 3,5 C 2,5 C 19,3 km/h (3 Bft) 98,11 %
11.11.2017 15:12 6,2 C 7,8 C 83 % 1011,8 hPa 0,0 l/m 13,3 km/h (3 Bft) S-SW 212 0 min 0,000 mm 0,0 UV-I 46 W/m 3,5 C 1,4 C 20,9 km/h (4 Bft) 98,00 %
11.11.2017 15:14 6,2 C 7,8 C 83 % 1011,7 hPa 0,0 l/m 15,6 km/h (3 Bft) S-SW 211 0 min 0,000 mm 0,0 UV-I 42 W/m 3,5 C 0,2 C 24,1 km/h (4 Bft) 97,87 %
11.11.2017 15:16 6,2 C 7,8 C 83 % 1011,7 hPa 0,0 l/m 15,5 km/h (3 Bft) SW 226 0 min 0,000 mm 0,0 UV-I 40 W/m 3,5 C 0,3 C 24,1 km/h (4 Bft) 92,11 %
11.11.2017 15:18 6,1 C 7,8 C 83 % 1011,7 hPa 0,0 l/m 12,1 km/h (2 Bft) SW 232 0 min 0,000 mm 0,0 UV-I 38 W/m 3,4 C 2,0 C 16,1 km/h (3 Bft) 94,64 %
11.11.2017 15:20 6,1 C 7,8 C 84 % 1011,7 hPa 0,0 l/m 11,3 km/h (2 Bft) W-SW 240 0 min 0,000 mm 0,0 UV-I 35 W/m 3,6 C 2,4 C 16,1 km/h (3 Bft) 97,44 %
11.11.2017 15:22 6,0 C 7,8 C 85 % 1011,7 hPa 0,0 l/m 8,4 km/h (2 Bft) S-SW 202 0 min 0,000 mm 0,0 UV-I 35 W/m 3,7 C 4,3 C 12,9 km/h (3 Bft) 97,73 %
11.11.2017 15:24 5,9 C 7,8 C 85 % 1011,6 hPa 0,2 l/m 10,3 km/h (2 Bft) S-SW 200 0 min 0,000 mm 0,0 UV-I 35 W/m 3,6 C 2,9 C 17,7 km/h (3 Bft) 98,11 %
11.11.2017 15:26 5,9 C 7,8 C 86 % 1011,6 hPa 0,0 l/m 11,1 km/h (2 Bft) SW 217 0 min 0,000 mm 0,0 UV-I 33 W/m 3,7 C 2,3 C 14,5 km/h (3 Bft) 94,74 %
11.11.2017 15:28 5,8 C 7,8 C 86 % 1011,6 hPa 0,0 l/m 11,6 km/h (2 Bft) W-SW 244 0 min 0,000 mm 0,0 UV-I 33 W/m 3,6 C 1,9 C 19,3 km/h (3 Bft) 98,25 %
11.11.2017 15:30 5,8 C 7,8 C 86 % 1011,6 hPa 0,0 l/m 10,8 km/h (2 Bft) SW 232 0 min 0,000 mm 0,0 UV-I 32 W/m 3,6 C 2,4 C 17,7 km/h (3 Bft) 97,56 %
11.11.2017 15:32 5,8 C 7,8 C 86 % 1011,5 hPa 0,0 l/m 9,8 km/h (2 Bft) SW 215 0 min 0,000 mm 0,0 UV-I 32 W/m 3,6 C 3,1 C 16,1 km/h (3 Bft) 98,00 %
11.11.2017 15:34 5,8 C 7,8 C 87 % 1011,4 hPa 0,0 l/m 9,7 km/h (2 Bft) S-SW 211 0 min 0,000 mm 0,0 UV-I 31 W/m 3,8 C 3,2 C 14,5 km/h (3 Bft) 97,73 %
11.11.2017 15:36 5,8 C 7,8 C 87 % 1011,5 hPa 0,0 l/m 10,1 km/h (2 Bft) S 188 0 min 0,000 mm 0,0 UV-I 28 W/m 3,8 C 2,9 C 14,5 km/h (3 Bft) 97,62 %
11.11.2017 15:38 5,8 C 7,8 C 87 % 1011,4 hPa 0,0 l/m 8,3 km/h (2 Bft) S 180 0 min 0,000 mm 0,0 UV-I 28 W/m 3,8 C 4,2 C 11,3 km/h (2 Bft) 98,25 %
11.11.2017 15:40 5,7 C 7,8 C 87 % 1011,3 hPa 0,0 l/m 10,1 km/h (2 Bft) SW 221 0 min 0,000 mm 0,0 UV-I 27 W/m 3,7 C 2,8 C 16,1 km/h (3 Bft) 96,00 %
11.11.2017 15:42 5,7 C 7,8 C 87 % 1011,2 hPa 0,0 l/m 11,4 km/h (2 Bft) S-SW 195 0 min 0,000 mm 0,0 UV-I 26 W/m 3,7 C 1,9 C 16,1 km/h (3 Bft) 97,22 %
11.11.2017 15:44 5,7 C 7,8 C 88 % 1011,2 hPa 0,0 l/m 9,9 km/h (2 Bft) SW 221 0 min 0,000 mm 0,0 UV-I 24 W/m 3,9 C 2,9 C 19,3 km/h (3 Bft) 98,08 %
11.11.2017 15:46 5,7 C 7,8 C 88 % 1011,2 hPa 0,0 l/m 9,7 km/h (2 Bft) SW 227 0 min 0,000 mm 0,0 UV-I 20 W/m 3,9 C 3,1 C 14,5 km/h (3 Bft) 96,23 %
11.11.2017 15:48 5,6 C 7,8 C 88 % 1011,2 hPa 0,0 l/m 8,8 km/h (2 Bft) S-SW 211 0 min 0,000 mm 0,0 UV-I 19 W/m 3,8 C 3,6 C 11,3 km/h (2 Bft) 97,56 %
11.11.2017 15:50 5,6 C 7,8 C 88 % 1011,1 hPa 0,0 l/m 9,5 km/h (2 Bft) W-SW 238 0 min 0,000 mm 0,0 UV-I 18 W/m 3,8 C 3,1 C 17,7 km/h (3 Bft) 97,56 %
11.11.2017 15:52 5,6 C 7,8 C 89 % 1011,1 hPa 0,0 l/m 9,1 km/h (2 Bft) S-SW 210 0 min 0,000 mm 0,0 UV-I 16 W/m 3,9 C 3,4 C 14,5 km/h (3 Bft) 96,43 %
11.11.2017 15:54 5,6 C 7,8 C 89 % 1011,1 hPa 0,0 l/m 7,2 km/h (2 Bft) SW 221 0 min 0,000 mm 0,0 UV-I 14 W/m 3,9 C 4,9 C 12,9 km/h (3 Bft) 98,00 %
11.11.2017 15:56 5,6 C 7,8 C 89 % 1011,0 hPa 0,0 l/m 8,8 km/h (2 Bft) SW 214 0 min 0,000 mm 0,0 UV-I 12 W/m 3,9 C 3,6 C 14,5 km/h (3 Bft) 97,56 %
11.11.2017 15:58 5,5 C 7,8 C 89 % 1011,0 hPa 0,0 l/m 8,5 km/h (2 Bft) SW 223 0 min 0,000 mm 0,0 UV-I 12 W/m 3,8 C 3,7 C 17,7 km/h (3 Bft) 97,37 %
11.11.2017 16:00 5,5 C 7,8 C 89 % 1010,9 hPa 0,0 l/m 8,0 km/h (2 Bft) S-SW 206 0 min 0,026 mm 0,0 UV-I 12 W/m 3,8 C 4,1 C 11,3 km/h (2 Bft) 96,67 %
11.11.2017 16:02 5,4 C 7,8 C 90 % 1010,9 hPa 0,2 l/m 6,6 km/h (2 Bft) S 191 0 min 0,000 mm 0,0 UV-I 11 W/m 3,9 C 5,2 C 12,9 km/h (3 Bft) 98,63 %
11.11.2017 16:04 5,4 C 7,8 C 90 % 1010,9 hPa 0,0 l/m 6,8 km/h (2 Bft) S-SW 194 0 min 0,000 mm 0,0 UV-I 11 W/m 3,9 C 5,1 C 12,9 km/h (3 Bft) 97,56 %
11.11.2017 16:06 5,4 C 7,8 C 90 % 1010,9 hPa 0,0 l/m 6,7 km/h (2 Bft) S-SW 213 0 min 0,000 mm 0,0 UV-I 11 W/m 3,9 C 5,2 C 11,3 km/h (2 Bft) 96,23 %
11.11.2017 16:08 5,4 C 7,8 C 91 % 1010,8 hPa 0,0 l/m 5,3 km/h (1 Bft) SW 221 0 min 0,000 mm 0,0 UV-I 11 W/m 4,1 C 5,4 C 8,0 km/h (2 Bft) 97,56 %
11.11.2017 16:10 5,4 C 7,8 C 91 % 1010,8 hPa 0,0 l/m 4,5 km/h (1 Bft) S-SW 202 0 min 0,000 mm 0,0 UV-I 10 W/m 4,1 C 5,4 C 8,0 km/h (2 Bft) 100,00 %
11.11.2017 16:12 5,4 C 7,8 C 91 % 1010,8 hPa 0,0 l/m 4,9 km/h (1 Bft) S-SW 201 0 min 0,000 mm 0,0 UV-I 9 W/m 4,1 C 5,4 C 8,0 km/h (2 Bft) 98,11 %
11.11.2017 16:14 5,3 C 7,8 C 91 % 1010,7 hPa 0,0 l/m 7,0 km/h (2 Bft) S-SW 197 0 min 0,000 mm 0,0 UV-I 9 W/m 4,0 C 4,8 C 9,7 km/h (2 Bft) 97,73 %
11.11.2017 16:16 5,3 C 7,8 C 91 % 1010,7 hPa 0,0 l/m 6,5 km/h (2 Bft) S 178 0 min 0,000 mm 0,0 UV-I 8 W/m 4,0 C 5,2 C 11,3 km/h (2 Bft) 100,00 %
11.11.2017 16:18 5,3 C 7,8 C 91 % 1010,6 hPa 0,0 l/m 5,7 km/h (1 Bft) S-SW 209 0 min 0,000 mm 0,0 UV-I 7 W/m 4,0 C 5,3 C 9,7 km/h (2 Bft) 96,00 %
11.11.2017 16:20 5,3 C 7,8 C 91 % 1010,6 hPa 0,0 l/m 4,8 km/h (1 Bft) S-SW 201 0 min 0,000 mm 0,0 UV-I 7 W/m 4,0 C 5,3 C 9,7 km/h (2 Bft) 100,00 %
11.11.2017 16:22 5,3 C 7,8 C 92 % 1010,6 hPa 0,0 l/m 5,1 km/h (1 Bft) S-SW 198 0 min 0,000 mm 0,0 UV-I 7 W/m 4,1 C 5,3 C 9,7 km/h (2 Bft) 100,00 %
11.11.2017 16:24 5,3 C 7,8 C 92 % 1010,5 hPa 0,2 l/m 4,0 km/h (1 Bft) S 183 0 min 0,000 mm 0,0 UV-I 5 W/m 4,1 C 5,3 C 6,4 km/h (2 Bft) 100,00 %
11.11.2017 16:26 5,3 C 7,8 C 92 % 1010,5 hPa 0,0 l/m 3,1 km/h (1 Bft) S 191 0 min 0,000 mm 0,0 UV-I 5 W/m 4,1 C 5,3 C 6,4 km/h (2 Bft) 100,00 %
11.11.2017 16:28 5,3 C 7,8 C 92 % 1010,5 hPa 0,0 l/m 3,5 km/h (1 Bft) S 180 0 min 0,000 mm 0,0 UV-I 5 W/m 4,1 C 5,3 C 4,8 km/h (1 Bft) 100,00 %
11.11.2017 16:30 5,3 C 7,8 C 92 % 1010,4 hPa 0,0 l/m 4,5 km/h (1 Bft) S 185 0 min 0,000 mm 0,0 UV-I 3 W/m 4,1 C 5,3 C 9,7 km/h (2 Bft) 100,00 %
11.11.2017 16:32 5,2 C 7,8 C 92 % 1010,4 hPa 0,0 l/m 3,2 km/h (1 Bft) S 182 0 min 0,000 mm 0,0 UV-I 1 W/m 4,0 C 5,2 C 4,8 km/h (1 Bft) 100,00 %
11.11.2017 16:34 5,2 C 7,8 C 92 % 1010,4 hPa 0,0 l/m 3,0 km/h (1 Bft) S 182 0 min 0,000 mm 0,0 UV-I 0 W/m 4,0 C 5,2 C 6,4 km/h (2 Bft) 100,00 %
11.11.2017 16:36 5,2 C 7,8 C 92 % 1010,4 hPa 0,0 l/m 3,5 km/h (1 Bft) S-SW 200 0 min 0,000 mm 0,0 UV-I 0 W/m 4,0 C 5,2 C 6,4 km/h (2 Bft) 98,11 %
11.11.2017 16:38 5,2 C 7,8 C 92 % 1010,3 hPa 0,0 l/m 3,7 km/h (1 Bft) S-SO 166 0 min 0,000 mm 0,0 UV-I 0 W/m 4,0 C 5,2 C 6,4 km/h (2 Bft) 98,00 %
11.11.2017 16:40 5,2 C 7,8 C 92 % 1010,3 hPa 0,0 l/m 4,5 km/h (1 Bft) S 180 0 min 0,000 mm 0,0 UV-I 0 W/m 4,0 C 5,2 C 6,4 km/h (2 Bft) 100,00 %
11.11.2017 16:42 5,2 C 7,8 C 92 % 1010,2 hPa 0,2 l/m 3,6 km/h (1 Bft) S 183 0 min 0,000 mm 0,0 UV-I 0 W/m 4,0 C 5,2 C 6,4 km/h (2 Bft) 100,00 %
11.11.2017 16:44 5,2 C 7,8 C 93 % 1010,1 hPa 0,0 l/m 2,4 km/h (1 Bft) S 171 0 min 0,000 mm 0,0 UV-I 0 W/m 4,2 C 5,2 C 4,8 km/h (1 Bft) 100,00 %
11.11.2017 16:46 5,2 C 7,8 C 93 % 1010,0 hPa 0,0 l/m 2,2 km/h (1 Bft) S 171 0 min 0,000 mm 0,0 UV-I 0 W/m 4,2 C 5,2 C 6,4 km/h (2 Bft) 100,00 %
11.11.2017 16:48 5,2 C 7,8 C 93 % 1010,0 hPa 0,0 l/m 2,1 km/h (1 Bft) S 179 0 min 0,000 mm 0,0 UV-I 0 W/m 4,2 C 5,2 C 4,8 km/h (1 Bft) 100,00 %
11.11.2017 16:50 5,2 C 7,8 C 93 % 1010,0 hPa 0,0 l/m 1,6 km/h (1 Bft) S-SO 166 0 min 0,000 mm 0,0 UV-I 0 W/m 4,2 C 5,2 C 4,8 km/h (1 Bft) 100,00 %
11.11.2017 16:52 5,2 C 7,8 C 93 % 1009,9 hPa 0,0 l/m 3,5 km/h (1 Bft) SO 144 0 min 0,000 mm 0,0 UV-I 0 W/m 4,2 C 5,2 C 6,4 km/h (2 Bft) 94,74 %
11.11.2017 16:54 5,1 C 7,8 C 93 % 1009,9 hPa 0,0 l/m 2,5 km/h (1 Bft) S-SO 150 0 min 0,000 mm 0,0 UV-I 0 W/m 4,1 C 5,1 C 4,8 km/h (1 Bft) 100,00 %
11.11.2017 16:56 5,1 C 7,8 C 93 % 1009,9 hPa 0,0 l/m 2,6 km/h (1 Bft) S-SO 159 0 min 0,000 mm 0,0 UV-I 0 W/m 4,1 C 5,1 C 6,4 km/h (2 Bft) 100,00 %
11.11.2017 16:58 5,1 C 7,8 C 93 % 1010,0 hPa 0,2 l/m 2,2 km/h (1 Bft) S-SO 159 0 min 0,000 mm 0,0 UV-I 0 W/m 4,1 C 5,1 C 3,2 km/h (1 Bft) 100,00 %
11.11.2017 17:00 5,1 C 7,8 C 93 % 1009,9 hPa 0,0 l/m 1,8 km/h (1 Bft) S-SO 159 0 min 0,000 mm 0,0 UV-I 0 W/m 4,1 C 5,1 C 3,2 km/h (1 Bft) 100,00 %
11.11.2017 17:02 5,1 C 7,8 C 93 % 1009,9 hPa 0,0 l/m 1,7 km/h (1 Bft) S-SO 159 0 min 0,000 mm 0,0 UV-I 0 W/m 4,1 C 5,1 C 6,4 km/h (2 Bft) 100,00 %
11.11.2017 17:04 5,1 C 7,8 C 93 % 1009,9 hPa 0,0 l/m 2,2 km/h (1 Bft) S-SO 159 0 min 0,000 mm 0,0 UV-I 0 W/m 4,1 C 5,1 C 3,2 km/h (1 Bft) 98,00 %
11.11.2017 17:06 5,1 C 7,8 C 93 % 1009,9 hPa 0,0 l/m 2,3 km/h (1 Bft) S-SO 159 0 min 0,000 mm 0,0 UV-I 0 W/m 4,1 C 5,1 C 6,4 km/h (2 Bft) 97,56 %
11.11.2017 17:08 5,1 C 7,8 C 94 % 1009,9 hPa 0,2 l/m 1,8 km/h (1 Bft) S-SO 159 0 min 0,000 mm 0,0 UV-I 0 W/m 4,2 C 5,1 C 3,2 km/h (1 Bft) 100,00 %
11.11.2017 17:10 5,1 C 7,8 C 94 % 1009,8 hPa 0,0 l/m 2,7 km/h (1 Bft) S-SO 153 0 min 0,000 mm 0,0 UV-I 0 W/m 4,2 C 5,1 C 6,4 km/h (2 Bft) 100,00 %
11.11.2017 17:12 5,1 C 7,8 C 94 % 1009,9 hPa 0,0 l/m 2,7 km/h (1 Bft) S-SW 193 0 min 0,000 mm 0,0 UV-I 0 W/m 4,2 C 5,1 C 4,8 km/h (1 Bft) 100,00 %
11.11.2017 17:14 5,0 C 7,8 C 94 % 1009,8 hPa 0,0 l/m 2,3 km/h (1 Bft) S-SO 167 0 min 0,000 mm 0,0 UV-I 0 W/m 4,1 C 5,0 C 6,4 km/h (2 Bft) 100,00 %
11.11.2017 17:16 5,0 C 7,8 C 94 % 1009,7 hPa 0,2 l/m 3,8 km/h (1 Bft) SO 140 0 min 0,000 mm 0,0 UV-I 0 W/m 4,1 C 5,0 C 6,4 km/h (2 Bft) 100,00 %
11.11.2017 17:18 5,0 C 7,8 C 94 % 1009,8 hPa 0,0 l/m 3,3 km/h (1 Bft) S 180 0 min 0,000 mm 0,0 UV-I 0 W/m 4,1 C 5,0 C 6,4 km/h (2 Bft) 98,00 %
11.11.2017 17:20 5,0 C 7,8 C 94 % 1009,7 hPa 0,0 l/m 1,9 km/h (1 Bft) S 178 0 min 0,000 mm 0,0 UV-I 0 W/m 4,1 C 5,0 C 3,2 km/h (1 Bft) 100,00 %
11.11.2017 17:22 5,0 C 7,8 C 94 % 1009,7 hPa 0,2 l/m 2,2 km/h (1 Bft) S 178 0 min 0,000 mm 0,0 UV-I 0 W/m 4,1 C 5,0 C 3,2 km/h (1 Bft) 100,00 %
11.11.2017 17:24 5,0 C 7,8 C 94 % 1009,7 hPa 0,0 l/m 2,2 km/h (1 Bft) S 178 0 min 0,000 mm 0,0 UV-I 0 W/m 4,1 C 5,0 C 4,8 km/h (1 Bft) 100,00 %
11.11.2017 17:26 5,1 C 7,8 C 94 % 1009,7 hPa 0,0 l/m 2,3 km/h (1 Bft) S-SO 165 0 min 0,000 mm 0,0 UV-I 0 W/m 4,2 C 5,1 C 6,4 km/h (2 Bft) 100,00 %
11.11.2017 17:28 5,1 C 7,8 C 94 % 1009,7 hPa 0,0 l/m 2,2 km/h (1 Bft) S-SO 162 0 min 0,000 mm 0,0 UV-I 0 W/m 4,2 C 5,1 C 6,4 km/h (2 Bft) 100,00 %
11.11.2017 17:30 5,1 C 7,8 C 94 % 1009,7 hPa 0,2 l/m 0,8 km/h (0 Bft) S-SO 162 0 min 0,000 mm 0,0 UV-I 0 W/m 4,2 C 5,1 C 3,2 km/h (1 Bft) 97,14 %
11.11.2017 17:32 5,1 C 7,8 C 94 % 1009,6 hPa 0,0 l/m 1,2 km/h (1 Bft) S-SO 162 0 min 0,000 mm 0,0 UV-I 0 W/m 4,2 C 5,1 C 6,4 km/h (2 Bft) 100,00 %
11.11.2017 17:34 5,1 C 7,8 C 95 % 1009,6 hPa 0,2 l/m 2,1 km/h (1 Bft) S-SO 162 0 min 0,000 mm 0,0 UV-I 0 W/m 4,4 C 5,1 C 3,2 km/h (1 Bft) 100,00 %
11.11.2017 17:36 5,0 C 7,8 C 95 % 1009,5 hPa 0,0 l/m 1,1 km/h (1 Bft) S-SO 162 0 min 0,000 mm 0,0 UV-I 0 W/m 4,3 C 5,0 C 3,2 km/h (1 Bft) 100,00 %
11.11.2017 17:38 5,0 C 7,8 C 95 % 1009,5 hPa 0,0 l/m 2,2 km/h (1 Bft) S 183 0 min 0,000 mm 0,0 UV-I 0 W/m 4,3 C 5,0 C 6,4 km/h (2 Bft) 100,00 %
11.11.2017 17:40 5,0 C 7,8 C 95 % 1009,4 hPa 0,0 l/m 2,2 km/h (1 Bft) S 183 0 min 0,000 mm 0,0 UV-I 0 W/m 4,3 C 5,0 C 4,8 km/h (1 Bft) 100,00 %
11.11.2017 17:42 4,9 C 7,8 C 95 % 1009,5 hPa 0,0 l/m 1,1 km/h (1 Bft) S 183 0 min 0,000 mm 0,0 UV-I 0 W/m 4,2 C 4,9 C 3,2 km/h (1 Bft) 100,00 %
11.11.2017 17:44 4,9 C 7,8 C 95 % 1009,4 hPa 0,0 l/m 4,1 km/h (1 Bft) S-SO 151 0 min 0,000 mm 0,0 UV-I 0 W/m 4,2 C 4,9 C 6,4 km/h (2 Bft) 95,12 %
11.11.2017 17:46 4,9 C 7,8 C 95 % 1009,4 hPa 0,0 l/m 3,6 km/h (1 Bft) S-SO 166 0 min 0,000 mm 0,0 UV-I 0 W/m 4,2 C 4,9 C 6,4 km/h (2 Bft) 97,87 %
11.11.2017 17:48 5,0 C 7,8 C 95 % 1009,4 hPa 0,0 l/m 3,2 km/h (1 Bft) S-SO 166 0 min 0,000 mm 0,0 UV-I 0 W/m 4,3 C 5,0 C 6,4 km/h (2 Bft) 96,23 %
11.11.2017 17:50 5,0 C 7,8 C 95 % 1009,4 hPa 0,2 l/m 3,6 km/h (1 Bft) S-SO 157 0 min 0,000 mm 0,0 UV-I 0 W/m 4,3 C 5,0 C 6,4 km/h (2 Bft) 95,45 %
11.11.2017 17:52 5,1 C 7,8 C 95 % 1009,4 hPa 0,0 l/m 3,0 km/h (1 Bft) S-SO 157 0 min 0,000 mm 0,0 UV-I 0 W/m 4,4 C 5,1 C 8,0 km/h (2 Bft) 97,56 %
11.11.2017 17:54 5,1 C 7,8 C 95 % 1009,3 hPa 0,0 l/m 2,0 km/h (1 Bft) S-SO 155 0 min 0,000 mm 0,0 UV-I 0 W/m 4,4 C 5,1 C 4,8 km/h (1 Bft) 98,00 %
11.11.2017 17:56 5,1 C 7,8 C 95 % 1009,4 hPa 0,0 l/m 2,8 km/h (1 Bft) S 187 0 min 0,000 mm 0,0 UV-I 0 W/m 4,4 C 5,1 C 6,4 km/h (2 Bft) 98,00 %
11.11.2017 17:58 5,1 C 7,8 C 95 % 1009,4 hPa 0,0 l/m 2,6 km/h (1 Bft) S 177 0 min 0,000 mm 0,0 UV-I 0 W/m 4,4 C 5,1 C 4,8 km/h (1 Bft) 98,00 %
11.11.2017 18:00 5,1 C 7,8 C 95 % 1009,4 hPa 0,0 l/m 3,9 km/h (1 Bft) S-SW 196 0 min 0,000 mm 0,0 UV-I 0 W/m 4,4 C 5,1 C 8,0 km/h (2 Bft) 97,56 %
11.11.2017 18:02 5,1 C 7,8 C 95 % 1009,4 hPa 0,2 l/m 4,5 km/h (1 Bft) S 188 0 min 0,000 mm 0,0 UV-I 0 W/m 4,4 C 5,1 C 8,0 km/h (2 Bft) 96,23 %
11.11.2017 18:04 5,1 C 7,8 C 95 % 1009,4 hPa 0,0 l/m 3,2 km/h (1 Bft) S 188 0 min 0,000 mm 0,0 UV-I 0 W/m 4,4 C 5,1 C 6,4 km/h (2 Bft) 97,56 %
11.11.2017 18:06 5,1 C 7,8 C 95 % 1009,4 hPa 0,0 l/m 4,5 km/h (1 Bft) S 184 0 min 0,000 mm 0,0 UV-I 0 W/m 4,4 C 5,1 C 8,0 km/h (2 Bft) 95,74 %
11.11.2017 18:08 5,1 C 7,8 C 95 % 1009,4 hPa 0,0 l/m 2,7 km/h (1 Bft) S 182 0 min 0,000 mm 0,0 UV-I 0 W/m 4,4 C 5,1 C 4,8 km/h (1 Bft) 95,74 %
11.11.2017 18:10 5,1 C 7,8 C 95 % 1009,4 hPa 0,0 l/m 1,9 km/h (1 Bft) S 184 0 min 0,000 mm 0,0 UV-I 0 W/m 4,4 C 5,1 C 4,8 km/h (1 Bft) 98,00 %
11.11.2017 18:12 5,1 C 7,8 C 95 % 1009,3 hPa 0,0 l/m 4,8 km/h (1 Bft) S-SW 195 0 min 0,000 mm 0,0 UV-I 0 W/m 4,4 C 5,1 C 8,0 km/h (2 Bft) 100,00 %
11.11.2017 18:14 5,0 C 7,8 C 95 % 1009,3 hPa 0,2 l/m 3,7 km/h (1 Bft) S 169 0 min 0,000 mm 0,0 UV-I 0 W/m 4,3 C 5,0 C 6,4 km/h (2 Bft) 97,56 %
11.11.2017 18:16 5,0 C 7,8 C 95 % 1009,2 hPa 0,0 l/m 2,5 km/h (1 Bft) SO 146 0 min 0,000 mm 0,0 UV-I 0 W/m 4,3 C 5,0 C 6,4 km/h (2 Bft) 95,24 %
11.11.2017 18:18 5,0 C 7,8 C 95 % 1009,3 hPa 0,0 l/m 3,4 km/h (1 Bft) S-SO 150 0 min 0,000 mm 0,0 UV-I 0 W/m 4,3 C 5,0 C 8,0 km/h (2 Bft) 98,18 %
11.11.2017 18:20 5,0 C 7,8 C 95 % 1009,3 hPa 0,2 l/m 5,6 km/h (1 Bft) S-SW 205 0 min 0,000 mm 0,0 UV-I 0 W/m 4,3 C 5,0 C 9,7 km/h (2 Bft) 100,00 %
11.11.2017 18:22 5,0 C 7,8 C 95 % 1009,3 hPa 0,0 l/m 4,1 km/h (1 Bft) S 169 0 min 0,000 mm 0,0 UV-I 0 W/m 4,3 C 5,0 C 6,4 km/h (2 Bft) 96,30 %
11.11.2017 18:24 5,0 C 7,8 C 95 % 1009,3 hPa 0,0 l/m 5,1 km/h (1 Bft) S-SW 193 0 min 0,000 mm 0,0 UV-I 0 W/m 4,3 C 5,0 C 6,4 km/h (2 Bft) 98,21 %
11.11.2017 18:26 5,0 C 7,8 C 95 % 1009,2 hPa 0,0 l/m 4,2 km/h (1 Bft) S 175 0 min 0,000 mm 0,0 UV-I 0 W/m 4,3 C 5,0 C 6,4 km/h (2 Bft) 97,56 %
11.11.2017 18:28 4,9 C 7,8 C 95 % 1009,3 hPa 0,2 l/m 3,4 km/h (1 Bft) S 175 0 min 0,000 mm 0,0 UV-I 0 W/m 4,2 C 4,9 C 6,4 km/h (2 Bft) 96,92 %
11.11.2017 18:30 4,9 C 7,8 C 95 % 1009,2 hPa 0,0 l/m 3,9 km/h (1 Bft) S-SO 163 0 min 0,000 mm 0,0 UV-I 0 W/m 4,2 C 4,9 C 8,0 km/h (2 Bft) 100,00 %
11.11.2017 18:32 4,9 C 7,8 C 95 % 1009,3 hPa 0,0 l/m 6,0 km/h (2 Bft) S 186 0 min 0,000 mm 0,0 UV-I 0 W/m 4,2 C 4,9 C 9,7 km/h (2 Bft) 96,23 %
11.11.2017 18:34 4,9 C 7,8 C 95 % 1009,2 hPa 0,2 l/m 4,6 km/h (1 Bft) S-SW 198 0 min 0,000 mm 0,0 UV-I 0 W/m 4,2 C 4,9 C 8,0 km/h (2 Bft) 98,11 %
11.11.2017 18:36 4,9 C 7,8 C 95 % 1009,3 hPa 0,0 l/m 6,9 km/h (2 Bft) S-SW 196 0 min 0,000 mm 0,0 UV-I 0 W/m 4,2 C 4,5 C 9,7 km/h (2 Bft) 97,37 %
11.11.2017 18:38 4,9 C 7,8 C 95 % 1009,3 hPa 0,0 l/m 5,4 km/h (1 Bft) S 189 0 min 0,000 mm 0,0 UV-I 0 W/m 4,2 C 4,9 C 9,7 km/h (2 Bft) 97,87 %
11.11.2017 18:40 4,9 C 7,8 C 95 % 1009,3 hPa 0,2 l/m 6,1 km/h (2 Bft) S 181 0 min 0,000 mm 0,0 UV-I 0 W/m 4,2 C 4,9 C 9,7 km/h (2 Bft) 92,00 %
11.11.2017 18:42 4,9 C 7,8 C 95 % 1009,3 hPa 0,0 l/m 3,7 km/h (1 Bft) S-SO 167 0 min 0,000 mm 0,0 UV-I 0 W/m 4,2 C 4,9 C 9,7 km/h (2 Bft) 98,11 %
11.11.2017 18:44 4,9 C 7,8 C 95 % 1009,2 hPa 0,2 l/m 6,5 km/h (2 Bft) S-SO 158 0 min 0,000 mm 0,0 UV-I 0 W/m 4,2 C 4,8 C 12,9 km/h (3 Bft) 97,37 %
11.11.2017 18:46 4,9 C 7,8 C 95 % 1009,2 hPa 0,0 l/m 6,7 km/h (2 Bft) SW 233 0 min 0,000 mm 0,0 UV-I 0 W/m 4,2 C 4,7 C 12,9 km/h (3 Bft) 98,00 %
11.11.2017 18:48 4,9 C 7,8 C 95 % 1009,2 hPa 0,0 l/m 7,4 km/h (2 Bft) S-SW 202 0 min 0,000 mm 0,0 UV-I 0 W/m 4,2 C 4,0 C 9,7 km/h (2 Bft) 97,56 %
11.11.2017 18:50 4,9 C 7,8 C 95 % 1009,2 hPa 0,0 l/m 6,0 km/h (2 Bft) S 191 0 min 0,000 mm 0,0 UV-I 0 W/m 4,2 C 4,9 C 9,7 km/h (2 Bft) 98,11 %
11.11.2017 18:52 4,9 C 7,8 C 95 % 1009,1 hPa 0,2 l/m 6,3 km/h (2 Bft) S 175 0 min 0,000 mm 0,0 UV-I 0 W/m 4,2 C 4,9 C 11,3 km/h (2 Bft) 93,62 %
11.11.2017 18:54 4,9 C 7,8 C 95 % 1009,1 hPa 0,0 l/m 4,9 km/h (1 Bft) S 174 0 min 0,000 mm 0,0 UV-I 0 W/m 4,2 C 4,9 C 8,0 km/h (2 Bft) 95,24 %
11.11.2017 18:56 4,9 C 7,8 C 95 % 1009,0 hPa 0,2 l/m 3,6 km/h (1 Bft) S 180 0 min 0,000 mm 0,0 UV-I 0 W/m 4,2 C 4,9 C 6,4 km/h (2 Bft) 97,87 %
11.11.2017 18:58 4,9 C 7,8 C 95 % 1009,0 hPa 0,0 l/m 5,0 km/h (1 Bft) S-SO 163 0 min 0,000 mm 0,0 UV-I 0 W/m 4,2 C 4,9 C 8,0 km/h (2 Bft) 98,11 %
11.11.2017 19:00 5,0 C 7,8 C 95 % 1009,0 hPa 0,0 l/m 4,2 km/h (1 Bft) S 179 0 min 0,000 mm 0,0 UV-I 0 W/m 4,3 C 5,0 C 11,3 km/h (2 Bft) 97,96 %
11.11.2017 19:02 5,0 C 7,8 C 95 % 1008,9 hPa 0,0 l/m 3,4 km/h (1 Bft) S 173 0 min 0,000 mm 0,0 UV-I 0 W/m 4,3 C 5,0 C 8,0 km/h (2 Bft) 97,92 %
11.11.2017 19:04 5,0 C 7,8 C 95 % 1008,9 hPa 0,0 l/m 4,7 km/h (1 Bft) S 170 0 min 0,000 mm 0,0 UV-I 0 W/m 4,3 C 5,0 C 8,0 km/h (2 Bft) 97,56 %
11.11.2017 19:06 5,0 C 7,8 C 95 % 1008,9 hPa 0,2 l/m 4,5 km/h (1 Bft) S 187 0 min 0,000 mm 0,0 UV-I 0 W/m 4,3 C 5,0 C 8,0 km/h (2 Bft) 97,87 %
11.11.2017 19:08 5,1 C 7,8 C 95 % 1008,8 hPa 0,0 l/m 5,0 km/h (1 Bft) S 191 0 min 0,000 mm 0,0 UV-I 0 W/m 4,4 C 5,1 C 9,7 km/h (2 Bft) 98,11 %
11.11.2017 19:10 5,1 C 7,8 C 95 % 1008,8 hPa 0,0 l/m 6,9 km/h (2 Bft) S-SW 201 0 min 0,000 mm 0,0 UV-I 0 W/m 4,4 C 4,7 C 12,9 km/h (3 Bft) 97,37 %
11.11.2017 19:12 5,2 C 7,8 C 95 % 1008,7 hPa 0,0 l/m 4,8 km/h (1 Bft) S-SW 192 0 min 0,000 mm 0,0 UV-I 0 W/m 4,5 C 5,2 C 11,3 km/h (2 Bft) 96,23 %
11.11.2017 19:14 5,2 C 7,8 C 95 % 1008,7 hPa 0,0 l/m 5,6 km/h (1 Bft) S-SO 167 0 min 0,000 mm 0,0 UV-I 0 W/m 4,5 C 5,2 C 9,7 km/h (2 Bft) 100,00 %
11.11.2017 19:16 5,2 C 7,8 C 95 % 1008,7 hPa 0,2 l/m 5,7 km/h (1 Bft) S 175 0 min 0,000 mm 0,0 UV-I 0 W/m 4,5 C 5,2 C 11,3 km/h (2 Bft) 97,56 %
11.11.2017 19:18 5,2 C 7,8 C 95 % 1008,7 hPa 0,0 l/m 5,7 km/h (1 Bft) S 182 0 min 0,000 mm 0,0 UV-I 0 W/m 4,5 C 5,2 C 9,7 km/h (2 Bft) 94,64 %
11.11.2017 19:20 5,2 C 7,8 C 95 % 1008,6 hPa 0,0 l/m 6,0 km/h (2 Bft) S-SW 196 0 min 0,000 mm 0,0 UV-I 0 W/m 4,5 C 5,2 C 9,7 km/h (2 Bft) 97,87 %
11.11.2017 19:22 5,2 C 7,8 C 95 % 1008,5 hPa 0,0 l/m 6,8 km/h (2 Bft) S 183 0 min 0,000 mm 0,0 UV-I 0 W/m 4,5 C 4,9 C 11,3 km/h (2 Bft) 97,87 %
11.11.2017 19:24 5,3 C 7,8 C 95 % 1008,5 hPa 0,0 l/m 9,6 km/h (2 Bft) S 188 0 min 0,000 mm 0,0 UV-I 0 W/m 4,6 C 2,7 C 17,7 km/h (3 Bft) 97,37 %
11.11.2017 19:26 5,3 C 7,8 C 95 % 1008,5 hPa 0,2 l/m 9,1 km/h (2 Bft) SW 219 0 min 0,000 mm 0,0 UV-I 0 W/m 4,6 C 3,1 C 14,5 km/h (3 Bft) 98,11 %
11.11.2017 19:28 5,4 C 7,8 C 95 % 1008,4 hPa 0,0 l/m 12,9 km/h (3 Bft) SW 229 0 min 0,000 mm 0,0 UV-I 0 W/m 4,7 C 0,7 C 19,3 km/h (3 Bft) 100,00 %
11.11.2017 19:30 5,6 C 7,8 C 95 % 1008,4 hPa 0,0 l/m 11,2 km/h (2 Bft) S-SW 200 0 min 0,000 mm 0,0 UV-I 0 W/m 4,9 C 1,9 C 17,7 km/h (3 Bft) 100,00 %
11.11.2017 19:32 5,6 C 7,8 C 95 % 1008,3 hPa 0,0 l/m 12,5 km/h (3 Bft) SW 234 0 min 0,000 mm 0,0 UV-I 0 W/m 4,9 C 1,2 C 20,9 km/h (4 Bft) 100,00 %
11.11.2017 19:34 5,7 C 7,8 C 95 % 1008,3 hPa 0,2 l/m 12,7 km/h (3 Bft) S-SW 201 0 min 0,000 mm 0,0 UV-I 0 W/m 5,0 C 1,2 C 17,7 km/h (3 Bft) 100,00 %
11.11.2017 19:36 5,7 C 7,8 C 95 % 1008,3 hPa 0,0 l/m 12,6 km/h (3 Bft) S-SO 148 0 min 0,000 mm 0,0 UV-I 0 W/m 5,0 C 1,2 C 20,9 km/h (4 Bft) 100,00 %
11.11.2017 19:38 5,8 C 7,8 C 95 % 1008,2 hPa 0,0 l/m 12,9 km/h (3 Bft) SW 217 0 min 0,000 mm 0,0 UV-I 0 W/m 5,1 C 1,2 C 22,5 km/h (4 Bft) 100,00 %
11.11.2017 19:40 5,9 C 7,8 C 95 % 1008,2 hPa 0,0 l/m 13,0 km/h (3 Bft) S-SW 212 0 min 0,000 mm 0,0 UV-I 0 W/m 5,2 C 1,2 C 22,5 km/h (4 Bft) 98,46 %
11.11.2017 19:42 5,9 C 7,8 C 94 % 1008,1 hPa 0,0 l/m 13,3 km/h (3 Bft) SW 221 0 min 0,000 mm 0,0 UV-I 0 W/m 5,0 C 1,1 C 20,9 km/h (4 Bft) 100,00 %
11.11.2017 19:44 6,1 C 7,8 C 94 % 1008,0 hPa 0,2 l/m 13,9 km/h (3 Bft) SW 219 0 min 0,000 mm 0,0 UV-I 0 W/m 5,2 C 1,0 C 20,9 km/h (4 Bft) 100,00 %
11.11.2017 19:46 6,2 C 7,8 C 94 % 1007,9 hPa 0,0 l/m 14,9 km/h (3 Bft) SW 217 0 min 0,000 mm 0,0 UV-I 0 W/m 5,3 C 0,6 C 20,9 km/h (4 Bft) 97,87 %
11.11.2017 19:48 6,2 C 7,8 C 94 % 1007,8 hPa 0,0 l/m 15,5 km/h (3 Bft) S-SW 203 0 min 0,000 mm 0,0 UV-I 0 W/m 5,3 C 0,3 C 24,1 km/h (4 Bft) 96,23 %
11.11.2017 19:50 6,3 C 7,8 C 94 % 1007,8 hPa 0,0 l/m 16,2 km/h (3 Bft) S-SW 194 0 min 0,000 mm 0,0 UV-I 0 W/m 5,4 C 0,1 C 24,1 km/h (4 Bft) 95,74 %
11.11.2017 19:52 6,3 C 7,8 C 93 % 1007,8 hPa 0,2 l/m 16,3 km/h (3 Bft) S-SW 202 0 min 0,000 mm 0,0 UV-I 0 W/m 5,3 C 0,0 C 30,6 km/h (5 Bft) 97,56 %
11.11.2017 19:54 6,3 C 7,8 C 93 % 1007,8 hPa 0,0 l/m 14,1 km/h (3 Bft) S 188 0 min 0,000 mm 0,0 UV-I 0 W/m 5,3 C 1,1 C 24,1 km/h (4 Bft) 95,12 %
11.11.2017 19:56 6,3 C 7,8 C 94 % 1007,7 hPa 0,0 l/m 15,5 km/h (3 Bft) SW 226 0 min 0,000 mm 0,0 UV-I 0 W/m 5,4 C 0,4 C 25,7 km/h (4 Bft) 98,11 %
11.11.2017 19:58 6,3 C 7,8 C 94 % 1007,7 hPa 0,0 l/m 17,0 km/h (3 Bft) S-SW 197 0 min 0,000 mm 0,0 UV-I 0 W/m 5,4 C -0,3 C 29,0 km/h (5 Bft) 98,11 %
11.11.2017 20:00 6,4 C 7,8 C 93 % 1007,7 hPa 0,2 l/m 21,1 km/h (4 Bft) O-SO 110 0 min 0,000 mm 0,0 UV-I 0 W/m 5,4 C -1,8 C 35,4 km/h (5 Bft) 95,45 %
11.11.2017 20:02 6,4 C 7,8 C 93 % 1007,7 hPa 0,0 l/m 15,7 km/h (3 Bft) SW 219 0 min 0,000 mm 0,0 UV-I 0 W/m 5,4 C 0,4 C 27,4 km/h (4 Bft) 97,56 %
11.11.2017 20:04 6,5 C 7,8 C 93 % 1007,6 hPa 0,0 l/m 19,0 km/h (3 Bft) SW 221 0 min 0,000 mm 0,0 UV-I 0 W/m 5,5 C -0,9 C 29,0 km/h (5 Bft) 98,00 %
11.11.2017 20:06 6,4 C 7,8 C 93 % 1007,6 hPa 0,0 l/m 13,5 km/h (3 Bft) SW 219 0 min 0,000 mm 0,0 UV-I 0 W/m 5,4 C 1,5 C 25,7 km/h (4 Bft) 97,37 %
11.11.2017 20:08 6,4 C 7,8 C 93 % 1007,5 hPa 0,2 l/m 12,7 km/h (3 Bft) SW 218 0 min 0,000 mm 0,0 UV-I 0 W/m 5,4 C 2,0 C 20,9 km/h (4 Bft) 96,00 %
11.11.2017 20:10 6,5 C 7,8 C 93 % 1007,5 hPa 0,0 l/m 17,5 km/h (3 Bft) S-SW 200 0 min 0,000 mm 0,0 UV-I 0 W/m 5,5 C -0,2 C 37,0 km/h (5 Bft) 98,00 %
11.11.2017 20:12 6,6 C 7,8 C 93 % 1007,5 hPa 0,0 l/m 16,8 km/h (3 Bft) S-SW 209 0 min 0,000 mm 0,0 UV-I 0 W/m 5,6 C 0,2 C 30,6 km/h (5 Bft) 96,00 %
11.11.2017 20:14 6,6 C 7,8 C 93 % 1007,4 hPa 0,0 l/m 16,9 km/h (3 Bft) S 181 0 min 0,000 mm 0,0 UV-I 0 W/m 5,6 C 0,1 C 25,7 km/h (4 Bft) 95,24 %
11.11.2017 20:16 6,6 C 7,8 C 92 % 1007,4 hPa 0,0 l/m 16,7 km/h (3 Bft) SW 234 0 min 0,000 mm 0,0 UV-I 0 W/m 5,4 C 0,2 C 27,4 km/h (4 Bft) 96,36 %
11.11.2017 20:18 6,6 C 7,8 C 93 % 1007,4 hPa 0,2 l/m 15,5 km/h (3 Bft) SW 219 0 min 0,000 mm 0,0 UV-I 0 W/m 5,6 C 0,8 C 25,7 km/h (4 Bft) 96,30 %
11.11.2017 20:20 6,6 C 7,8 C 92 % 1007,4 hPa 0,0 l/m 19,2 km/h (3 Bft) W-SW 238 0 min 0,000 mm 0,0 UV-I 0 W/m 5,4 C -0,8 C 27,4 km/h (4 Bft) 98,31 %
11.11.2017 20:23 6,7 C 7,8 C 92 % 1007,4 hPa 0,0 l/m 17,4 km/h (3 Bft) SW 215 0 min 0,000 mm 0,0 UV-I 0 W/m 5,5 C 0,1 C 27,4 km/h (4 Bft) 97,14 %
11.11.2017 20:24 6,7 C 7,8 C 92 % 1007,4 hPa 0,0 l/m 14,9 km/h (3 Bft) S-SW 198 0 min 0,000 mm 0,0 UV-I 0 W/m 5,5 C 1,2 C 19,3 km/h (3 Bft) 100,00 %
11.11.2017 20:26 6,7 C 7,8 C 92 % 1007,3 hPa 0,2 l/m 17,7 km/h (3 Bft) SW 228 0 min 0,000 mm 0,0 UV-I 0 W/m 5,5 C -0,1 C 27,4 km/h (4 Bft) 97,73 %
11.11.2017 20:28 6,7 C 7,8 C 92 % 1007,3 hPa 0,0 l/m 15,2 km/h (3 Bft) SW 226 0 min 0,000 mm 0,0 UV-I 0 W/m 5,5 C 1,0 C 27,4 km/h (4 Bft) 96,43 %
11.11.2017 20:30 6,7 C 7,8 C 92 % 1007,3 hPa 0,0 l/m 15,5 km/h (3 Bft) S-SW 208 0 min 0,000 mm 0,0 UV-I 0 W/m 5,5 C 0,9 C 25,7 km/h (4 Bft) 97,37 %
11.11.2017 20:32 6,7 C 7,8 C 92 % 1007,3 hPa 0,0 l/m 13,4 km/h (3 Bft) S 190 0 min 0,000 mm 0,0 UV-I 0 W/m 5,5 C 1,9 C 24,1 km/h (4 Bft) 100,00 %
11.11.2017 20:34 6,7 C 7,8 C 92 % 1007,3 hPa 0,0 l/m 19,0 km/h (3 Bft) SW 217 0 min 0,000 mm 0,0 UV-I 0 W/m 5,5 C -0,6 C 30,6 km/h (5 Bft) 100,00 %
11.11.2017 20:36 6,7 C 7,8 C 93 % 1007,3 hPa 0,0 l/m 15,9 km/h (3 Bft) S-SW 204 0 min 0,000 mm 0,0 UV-I 0 W/m 5,6 C 0,7 C 20,9 km/h (4 Bft) 98,00 %
11.11.2017 20:38 6,7 C 7,8 C 93 % 1007,3 hPa 0,2 l/m 18,1 km/h (3 Bft) W-SW 252 0 min 0,000 mm 0,0 UV-I 0 W/m 5,6 C -0,2 C 27,4 km/h (4 Bft) 100,00 %
11.11.2017 20:40 6,8 C 7,8 C 92 % 1007,3 hPa 0,0 l/m 18,1 km/h (3 Bft) SW 232 0 min 0,000 mm 0,0 UV-I 0 W/m 5,6 C -0,1 C 25,7 km/h (4 Bft) 100,00 %
11.11.2017 20:42 6,8 C 7,8 C 92 % 1007,3 hPa 0,0 l/m 16,4 km/h (3 Bft) SW 224 0 min 0,000 mm 0,0 UV-I 0 W/m 5,6 C 0,6 C 24,1 km/h (4 Bft) 100,00 %
11.11.2017 20:44 6,8 C 7,8 C 92 % 1007,3 hPa 0,0 l/m 15,0 km/h (3 Bft) SW 219 0 min 0,000 mm 0,0 UV-I 0 W/m 5,6 C 1,3 C 29,0 km/h (5 Bft) 100,00 %
11.11.2017 20:46 6,8 C 7,8 C 92 % 1007,3 hPa 0,0 l/m 13,5 km/h (3 Bft) SW 226 0 min 0,000 mm 0,0 UV-I 0 W/m 5,6 C 2,0 C 19,3 km/h (3 Bft) 100,00 %
11.11.2017 20:48 6,8 C 7,8 C 93 % 1007,3 hPa 0,0 l/m 16,3 km/h (3 Bft) SW 215 0 min 0,000 mm 0,0 UV-I 0 W/m 5,7 C 0,7 C 25,7 km/h (4 Bft) 96,23 %
11.11.2017 20:50 6,8 C 7,8 C 93 % 1007,3 hPa 0,2 l/m 14,2 km/h (3 Bft) W-SW 248 0 min 0,000 mm 0,0 UV-I 0 W/m 5,7 C 1,6 C 25,7 km/h (4 Bft) 100,00 %
11.11.2017 20:52 6,8 C 7,8 C 93 % 1007,3 hPa 0,0 l/m 16,8 km/h (3 Bft) W-SW 246 0 min 0,000 mm 0,0 UV-I 0 W/m 5,7 C 0,4 C 25,7 km/h (4 Bft) 100,00 %
11.11.2017 20:54 6,8 C 7,8 C 93 % 1007,3 hPa 0,0 l/m 18,2 km/h (3 Bft) W 259 0 min 0,000 mm 0,0 UV-I 0 W/m 5,7 C -0,2 C 27,4 km/h (4 Bft) 100,00 %
11.11.2017 20:56 6,8 C 7,8 C 93 % 1007,3 hPa 0,0 l/m 14,0 km/h (3 Bft) SW 225 0 min 0,000 mm 0,0 UV-I 0 W/m 5,7 C 1,8 C 20,9 km/h (4 Bft) 100,00 %
11.11.2017 20:58 6,8 C 7,8 C 93 % 1007,1 hPa 0,0 l/m 16,8 km/h (3 Bft) SW 234 0 min 0,000 mm 0,0 UV-I 0 W/m 5,7 C 0,4 C 22,5 km/h (4 Bft) 100,00 %
11.11.2017 21:00 6,8 C 7,8 C 93 % 1007,3 hPa 0,2 l/m 15,5 km/h (3 Bft) S-SW 196 0 min 0,000 mm 0,0 UV-I 0 W/m 5,7 C 1,0 C 24,1 km/h (4 Bft) 98,21 %
11.11.2017 21:02 6,8 C 7,8 C 93 % 1007,2 hPa 0,0 l/m 15,0 km/h (3 Bft) SW 230 0 min 0,025 mm 0,0 UV-I 0 W/m 5,7 C 1,3 C 27,4 km/h (4 Bft) 97,22 %
11.11.2017 21:04 6,8 C 7,8 C 93 % 1007,2 hPa 0,0 l/m 17,8 km/h (3 Bft) SW 233 0 min 0,000 mm 0,0 UV-I 0 W/m 5,7 C 0,0 C 29,0 km/h (5 Bft) 100,00 %
11.11.2017 21:06 6,8 C 7,8 C 93 % 1007,2 hPa 0,0 l/m 15,7 km/h (3 Bft) SW 228 0 min 0,000 mm 0,0 UV-I 0 W/m 5,7 C 0,9 C 22,5 km/h (4 Bft) 100,00 %
11.11.2017 21:08 6,8 C 7,8 C 93 % 1007,2 hPa 0,2 l/m 12,4 km/h (3 Bft) S-SW 211 0 min 0,000 mm 0,0 UV-I 0 W/m 5,7 C 2,6 C 19,3 km/h (3 Bft) 97,37 %
11.11.2017 21:10 6,8 C 7,8 C 93 % 1007,1 hPa 0,0 l/m 14,9 km/h (3 Bft) SW 227 0 min 0,000 mm 0,0 UV-I 0 W/m 5,7 C 1,3 C 22,5 km/h (4 Bft) 100,00 %
11.11.2017 21:12 6,8 C 7,8 C 93 % 1007,2 hPa 0,0 l/m 16,8 km/h (3 Bft) SW 222 0 min 0,000 mm 0,0 UV-I 0 W/m 5,7 C 0,4 C 24,1 km/h (4 Bft) 100,00 %
11.11.2017 21:14 6,9 C 7,8 C 93 % 1007,1 hPa 0,0 l/m 18,1 km/h (3 Bft) SW 235 0 min 0,000 mm 0,0 UV-I 0 W/m 5,8 C 0,0 C 25,7 km/h (4 Bft) 97,73 %
11.11.2017 21:16 6,9 C 7,8 C 93 % 1007,1 hPa 0,2 l/m 17,8 km/h (3 Bft) SW 218 0 min 0,000 mm 0,0 UV-I 0 W/m 5,8 C 0,1 C 22,5 km/h (4 Bft) 100,00 %
11.11.2017 21:18 6,9 C 7,8 C 93 % 1007,1 hPa 0,0 l/m 15,5 km/h (3 Bft) SW 219 0 min 0,000 mm 0,0 UV-I 0 W/m 5,8 C 1,1 C 22,5 km/h (4 Bft) 100,00 %
11.11.2017 21:20 6,9 C 7,8 C 93 % 1007,1 hPa 0,0 l/m 14,6 km/h (3 Bft) SW 218 0 min 0,000 mm 0,0 UV-I 0 W/m 5,8 C 1,6 C 22,5 km/h (4 Bft) 100,00 %
11.11.2017 21:22 6,9 C 7,8 C 93 % 1007,1 hPa 0,0 l/m 13,3 km/h (3 Bft) W-SW 246 0 min 0,000 mm 0,0 UV-I 0 W/m 5,8 C 2,2 C 20,9 km/h (4 Bft) 100,00 %
11.11.2017 21:24 6,9 C 7,8 C 93 % 1007,1 hPa 0,0 l/m 16,6 km/h (3 Bft) SW 228 0 min 0,000 mm 0,0 UV-I 0 W/m 5,8 C 0,6 C 24,1 km/h (4 Bft) 100,00 %
11.11.2017 21:26 7,0 C 7,8 C 93 % 1007,1 hPa 0,0 l/m 17,0 km/h (3 Bft) SW 234 0 min 0,000 mm 0,0 UV-I 0 W/m 5,9 C 0,6 C 22,5 km/h (4 Bft) 98,11 %
11.11.2017 21:28 7,1 C 7,8 C 93 % 1007,1 hPa 0,0 l/m 17,4 km/h (3 Bft) W-SW 241 0 min 0,000 mm 0,0 UV-I 0 W/m 6,0 C 0,6 C 27,4 km/h (4 Bft) 100,00 %
11.11.2017 21:30 7,1 C 7,8 C 93 % 1007,1 hPa 0,2 l/m 16,7 km/h (3 Bft) SW 227 0 min 0,000 mm 0,0 UV-I 0 W/m 6,0 C 0,9 C 27,4 km/h (4 Bft) 100,00 %
11.11.2017 21:32 7,1 C 7,8 C 93 % 1007,1 hPa 0,0 l/m 17,6 km/h (3 Bft) W-SW 239 0 min 0,000 mm 0,0 UV-I 0 W/m 6,0 C 0,5 C 24,1 km/h (4 Bft) 100,00 %
11.11.2017 21:34 7,1 C 7,8 C 93 % 1007,1 hPa 0,0 l/m 20,7 km/h (4 Bft) W-SW 244 0 min 0,000 mm 0,0 UV-I 0 W/m 6,0 C -0,7 C 29,0 km/h (5 Bft) 100,00 %
11.11.2017 21:36 7,2 C 7,8 C 93 % 1007,0 hPa 0,0 l/m 18,4 km/h (3 Bft) SW 229 0 min 0,000 mm 0,0 UV-I 0 W/m 6,1 C 0,3 C 25,7 km/h (4 Bft) 100,00 %
11.11.2017 21:38 7,1 C 7,8 C 93 % 1007,1 hPa 0,0 l/m 15,1 km/h (3 Bft) W-SW 240 0 min 0,000 mm 0,0 UV-I 0 W/m 6,0 C 1,6 C 20,9 km/h (4 Bft) 100,00 %
11.11.2017 21:40 7,2 C 7,8 C 93 % 1007,0 hPa 0,2 l/m 17,4 km/h (3 Bft) S-SW 211 0 min 0,000 mm 0,0 UV-I 0 W/m 6,1 C 0,7 C 25,7 km/h (4 Bft) 100,00 %
11.11.2017 21:42 7,2 C 7,8 C 93 % 1007,1 hPa 0,0 l/m 19,8 km/h (3 Bft) SW 230 0 min 0,000 mm 0,0 UV-I 0 W/m 6,1 C -0,3 C 27,4 km/h (4 Bft) 98,11 %
11.11.2017 21:44 7,2 C 7,8 C 93 % 1007,0 hPa 0,0 l/m 18,1 km/h (3 Bft) SW 235 0 min 0,000 mm 0,0 UV-I 0 W/m 6,1 C 0,4 C 32,2 km/h (5 Bft) 100,00 %
11.11.2017 21:46 7,2 C 7,8 C 93 % 1007,0 hPa 0,0 l/m 16,3 km/h (3 Bft) SW 215 0 min 0,000 mm 0,0 UV-I 0 W/m 6,1 C 1,2 C 27,4 km/h (4 Bft) 100,00 %
11.11.2017 21:48 7,2 C 7,8 C 93 % 1007,0 hPa 0,2 l/m 16,0 km/h (3 Bft) S-SW 211 0 min 0,000 mm 0,0 UV-I 0 W/m 6,1 C 1,3 C 24,1 km/h (4 Bft) 100,00 %
11.11.2017 21:50 7,2 C 7,8 C 93 % 1007,0 hPa 0,0 l/m 15,4 km/h (3 Bft) SW 219 0 min 0,000 mm 0,0 UV-I 0 W/m 6,1 C 1,6 C 24,1 km/h (4 Bft) 100,00 %
11.11.2017 21:52 7,2 C 7,8 C 93 % 1006,9 hPa 0,0 l/m 17,3 km/h (3 Bft) SW 219 0 min 0,000 mm 0,0 UV-I 0 W/m 6,1 C 0,7 C 29,0 km/h (5 Bft) 100,00 %
11.11.2017 21:54 7,2 C 7,8 C 93 % 1007,0 hPa 0,0 l/m 17,8 km/h (3 Bft) S-SW 203 0 min 0,000 mm 0,0 UV-I 0 W/m 6,1 C 0,5 C 27,4 km/h (4 Bft) 97,67 %
11.11.2017 21:56 7,2 C 7,8 C 93 % 1006,9 hPa 0,0 l/m 14,2 km/h (3 Bft) S-SW 199 0 min 0,000 mm 0,0 UV-I 0 W/m 6,1 C 2,1 C 19,3 km/h (3 Bft) 93,18 %
11.11.2017 21:58 7,2 C 7,8 C 93 % 1006,9 hPa 0,0 l/m 19,3 km/h (3 Bft) SW 221 0 min 0,000 mm 0,0 UV-I 0 W/m 6,1 C -0,1 C 30,6 km/h (5 Bft) 97,73 %
11.11.2017 22:00 7,2 C 7,8 C 93 % 1006,9 hPa 0,2 l/m 16,9 km/h (3 Bft) SW 222 0 min 0,025 mm 0,0 UV-I 0 W/m 6,1 C 0,9 C 27,4 km/h (4 Bft) 94,34 %
11.11.2017 22:02 7,2 C 7,8 C 93 % 1006,9 hPa 0,0 l/m 16,3 km/h (3 Bft) W-SW 255 0 min 0,000 mm 0,0 UV-I 0 W/m 6,1 C 1,2 C 25,7 km/h (4 Bft) 97,37 %
11.11.2017 22:04 7,2 C 7,8 C 93 % 1006,9 hPa 0,0 l/m 20,6 km/h (4 Bft) W-SW 251 0 min 0,000 mm 0,0 UV-I 0 W/m 6,1 C -0,5 C 27,4 km/h (4 Bft) 97,87 %
11.11.2017 22:06 7,2 C 7,8 C 93 % 1006,8 hPa 0,0 l/m 18,4 km/h (3 Bft) W-SW 248 0 min 0,000 mm 0,0 UV-I 0 W/m 6,1 C 0,3 C 25,7 km/h (4 Bft) 96,43 %
11.11.2017 22:08 7,3 C 7,8 C 93 % 1006,9 hPa 0,0 l/m 16,8 km/h (3 Bft) W-SW 239 0 min 0,000 mm 0,0 UV-I 0 W/m 6,2 C 1,1 C 30,6 km/h (5 Bft) 96,00 %
11.11.2017 22:10 7,3 C 7,8 C 93 % 1006,8 hPa 0,0 l/m 21,2 km/h (4 Bft) W-SW 250 0 min 0,000 mm 0,0 UV-I 0 W/m 6,2 C -0,6 C 33,8 km/h (5 Bft) 97,56 %
11.11.2017 22:12 7,3 C 7,8 C 93 % 1006,8 hPa 0,0 l/m 15,7 km/h (3 Bft) S-SW 196 0 min 0,000 mm 0,0 UV-I 0 W/m 6,2 C 1,5 C 24,1 km/h (4 Bft) 98,11 %
11.11.2017 22:14 7,3 C 7,8 C 93 % 1006,7 hPa 0,0 l/m 19,6 km/h (3 Bft) SW 227 0 min 0,000 mm 0,0 UV-I 0 W/m 6,2 C -0,1 C 35,4 km/h (5 Bft) 97,67 %
11.11.2017 22:16 7,3 C 7,8 C 93 % 1006,7 hPa 0,0 l/m 20,5 km/h (4 Bft) SW 234 0 min 0,000 mm 0,0 UV-I 0 W/m 6,2 C -0,4 C 32,2 km/h (5 Bft) 97,92 %
11.11.2017 22:18 7,4 C 7,8 C 93 % 1006,7 hPa 0,0 l/m 21,0 km/h (4 Bft) W 276 0 min 0,000 mm 0,0 UV-I 0 W/m 6,3 C -0,4 C 32,2 km/h (5 Bft) 95,74 %
11.11.2017 22:20 7,4 C 7,8 C 92 % 1006,8 hPa 0,0 l/m 16,5 km/h (3 Bft) SW 231 0 min 0,000 mm 0,0 UV-I 0 W/m 6,2 C 1,3 C 25,7 km/h (4 Bft) 95,74 %
11.11.2017 22:22 7,4 C 7,8 C 92 % 1006,7 hPa 0,0 l/m 18,5 km/h (3 Bft) W-SW 242 0 min 0,000 mm 0,0 UV-I 0 W/m 6,2 C 0,5 C 37,0 km/h (5 Bft) 97,87 %
11.11.2017 22:24 7,4 C 7,8 C 93 % 1006,8 hPa 0,0 l/m 17,9 km/h (3 Bft) SW 236 0 min 0,000 mm 0,0 UV-I 0 W/m 6,3 C 0,7 C 27,4 km/h (4 Bft) 97,56 %
11.11.2017 22:26 7,5 C 7,8 C 93 % 1006,8 hPa 0,0 l/m 18,2 km/h (3 Bft) SW 217 0 min 0,000 mm 0,0 UV-I 0 W/m 6,4 C 0,7 C 27,4 km/h (4 Bft) 94,34 %
11.11.2017 22:28 7,5 C 7,8 C 92 % 1006,8 hPa 0,0 l/m 18,5 km/h (3 Bft) SW 236 0 min 0,000 mm 0,0 UV-I 0 W/m 6,3 C 0,6 C 27,4 km/h (4 Bft) 95,45 %
11.11.2017 22:30 7,5 C 7,8 C 92 % 1006,8 hPa 0,0 l/m 20,6 km/h (4 Bft) SW 235 0 min 0,000 mm 0,0 UV-I 0 W/m 6,3 C -0,2 C 29,0 km/h (5 Bft) 94,74 %
11.11.2017 22:32 7,5 C 7,8 C 92 % 1006,8 hPa 0,0 l/m 18,4 km/h (3 Bft) SW 219 0 min 0,000 mm 0,0 UV-I 0 W/m 6,3 C 0,7 C 33,8 km/h (5 Bft) 96,77 %
11.11.2017 22:34 7,6 C 7,8 C 93 % 1006,8 hPa 0,0 l/m 22,3 km/h (4 Bft) SW 232 0 min 0,000 mm 0,0 UV-I 0 W/m 6,5 C -0,6 C 32,2 km/h (5 Bft) 97,37 %
11.11.2017 22:36 7,6 C 7,8 C 92 % 1006,8 hPa 0,2 l/m 19,2 km/h (3 Bft) SW 233 0 min 0,000 mm 0,0 UV-I 0 W/m 6,4 C 0,5 C 32,2 km/h (5 Bft) 98,00 %
11.11.2017 22:38 7,6 C 7,8 C 92 % 1006,8 hPa 0,0 l/m 19,7 km/h (3 Bft) W-SW 248 0 min 0,000 mm 0,0 UV-I 0 W/m 6,4 C 0,3 C 25,7 km/h (4 Bft) 96,55 %
11.11.2017 22:40 7,6 C 7,8 C 92 % 1006,7 hPa 0,0 l/m 19,0 km/h (3 Bft) SW 228 0 min 0,000 mm 0,0 UV-I 0 W/m 6,4 C 0,6 C 27,4 km/h (4 Bft) 98,53 %
11.11.2017 22:42 7,5 C 7,8 C 93 % 1006,7 hPa 0,0 l/m 18,1 km/h (3 Bft) W-SW 240 0 min 0,000 mm 0,0 UV-I 0 W/m 6,4 C 0,8 C 27,4 km/h (4 Bft) 100,00 %
11.11.2017 22:44 7,5 C 7,8 C 93 % 1006,6 hPa 0,0 l/m 12,1 km/h (2 Bft) W-SW 238 0 min 0,000 mm 0,0 UV-I 0 W/m 6,4 C 3,6 C 19,3 km/h (3 Bft) 97,56 %
11.11.2017 22:46 7,5 C 7,8 C 93 % 1006,6 hPa 0,0 l/m 19,1 km/h (3 Bft) SW 236 0 min 0,000 mm 0,0 UV-I 0 W/m 6,4 C 0,4 C 38,6 km/h (5 Bft) 95,74 %
11.11.2017 22:48 7,5 C 7,8 C 93 % 1006,6 hPa 0,0 l/m 17,9 km/h (3 Bft) SW 226 0 min 0,000 mm 0,0 UV-I 0 W/m 6,4 C 0,9 C 30,6 km/h (5 Bft) 95,74 %
11.11.2017 22:50 7,5 C 7,8 C 93 % 1006,6 hPa 0,2 l/m 17,0 km/h (3 Bft) S-SW 201 0 min 0,000 mm 0,0 UV-I 0 W/m 6,4 C 1,2 C 25,7 km/h (4 Bft) 98,11 %
11.11.2017 22:52 7,5 C 7,8 C 93 % 1006,6 hPa 0,0 l/m 15,7 km/h (3 Bft) SW 216 0 min 0,000 mm 0,0 UV-I 0 W/m 6,4 C 1,8 C 24,1 km/h (4 Bft) 97,44 %
11.11.2017 22:54 7,5 C 7,8 C 93 % 1006,6 hPa 0,0 l/m 17,8 km/h (3 Bft) W-SW 237 0 min 0,000 mm 0,0 UV-I 0 W/m 6,4 C 0,9 C 29,0 km/h (5 Bft) 98,00 %
11.11.2017 22:56 7,5 C 7,8 C 93 % 1006,6 hPa 0,0 l/m 15,7 km/h (3 Bft) S-SW 198 0 min 0,000 mm 0,0 UV-I 0 W/m 6,4 C 1,8 C 29,0 km/h (5 Bft) 94,34 %
11.11.2017 22:58 7,5 C 7,8 C 93 % 1006,6 hPa 0,0 l/m 16,9 km/h (3 Bft) W 259 0 min 0,000 mm 0,0 UV-I 0 W/m 6,4 C 1,3 C 24,1 km/h (4 Bft) 97,37 %
11.11.2017 23:00 7,5 C 7,8 C 93 % 1006,6 hPa 0,0 l/m 17,9 km/h (3 Bft) W-SW 242 0 min 0,000 mm 0,0 UV-I 0 W/m 6,4 C 0,9 C 25,7 km/h (4 Bft) 98,11 %
11.11.2017 23:02 7,5 C 7,8 C 93 % 1006,6 hPa 0,0 l/m 22,0 km/h (4 Bft) W-SW 256 0 min 0,026 mm 0,0 UV-I 0 W/m 6,4 C -0,6 C 33,8 km/h (5 Bft) 97,37 %
11.11.2017 23:04 7,5 C 7,8 C 93 % 1006,6 hPa 0,2 l/m 20,6 km/h (4 Bft) W-SW 257 0 min 0,000 mm 0,0 UV-I 0 W/m 6,4 C -0,2 C 32,2 km/h (5 Bft) 96,61 %
11.11.2017 23:06 7,5 C 7,8 C 93 % 1006,6 hPa 0,0 l/m 20,6 km/h (4 Bft) SW 216 0 min 0,000 mm 0,0 UV-I 0 W/m 6,4 C -0,2 C 30,6 km/h (5 Bft) 97,73 %
11.11.2017 23:08 7,5 C 7,8 C 93 % 1006,6 hPa 0,0 l/m 17,9 km/h (3 Bft) W-SW 240 0 min 0,000 mm 0,0 UV-I 0 W/m 6,4 C 0,9 C 29,0 km/h (5 Bft) 97,37 %
11.11.2017 23:10 7,5 C 7,8 C 93 % 1006,7 hPa 0,0 l/m 21,0 km/h (4 Bft) SW 227 0 min 0,000 mm 0,0 UV-I 0 W/m 6,4 C -0,3 C 29,0 km/h (5 Bft) 96,43 %
11.11.2017 23:12 7,5 C 7,8 C 93 % 1006,6 hPa 0,0 l/m 15,6 km/h (3 Bft) W-SW 238 0 min 0,000 mm 0,0 UV-I 0 W/m 6,4 C 1,8 C 27,4 km/h (4 Bft) 97,73 %
11.11.2017 23:14 7,5 C 7,8 C 93 % 1006,7 hPa 0,0 l/m 17,2 km/h (3 Bft) S-SW 204 0 min 0,000 mm 0,0 UV-I 0 W/m 6,4 C 1,1 C 25,7 km/h (4 Bft) 97,56 %
11.11.2017 23:16 7,5 C 7,8 C 93 % 1006,6 hPa 0,2 l/m 18,2 km/h (3 Bft) SW 235 0 min 0,000 mm 0,0 UV-I 0 W/m 6,4 C 0,7 C 25,7 km/h (4 Bft) 98,21 %
11.11.2017 23:18 7,4 C 7,8 C 93 % 1006,6 hPa 0,0 l/m 18,1 km/h (3 Bft) SW 229 0 min 0,000 mm 0,0 UV-I 0 W/m 6,3 C 0,6 C 25,7 km/h (4 Bft) 97,73 %
11.11.2017 23:20 7,5 C 7,8 C 93 % 1006,6 hPa 0,0 l/m 20,6 km/h (4 Bft) W-SW 241 0 min 0,000 mm 0,0 UV-I 0 W/m 6,4 C -0,2 C 29,0 km/h (5 Bft) 97,56 %
11.11.2017 23:22 7,4 C 7,8 C 94 % 1006,7 hPa 0,0 l/m 17,4 km/h (3 Bft) SW 215 0 min 0,000 mm 0,0 UV-I 0 W/m 6,5 C 0,9 C 29,0 km/h (5 Bft) 97,87 %
11.11.2017 23:24 7,4 C 7,8 C 94 % 1006,7 hPa 0,0 l/m 16,4 km/h (3 Bft) SW 223 0 min 0,000 mm 0,0 UV-I 0 W/m 6,5 C 1,4 C 24,1 km/h (4 Bft) 98,11 %
11.11.2017 23:26 7,4 C 7,8 C 94 % 1006,7 hPa 0,0 l/m 18,9 km/h (3 Bft) W-SW 250 0 min 0,000 mm 0,0 UV-I 0 W/m 6,5 C 0,3 C 35,4 km/h (5 Bft) 94,74 %
11.11.2017 23:28 7,4 C 7,8 C 94 % 1006,7 hPa 0,0 l/m 19,5 km/h (3 Bft) SW 234 0 min 0,000 mm 0,0 UV-I 0 W/m 6,5 C 0,1 C 32,2 km/h (5 Bft) 96,43 %
11.11.2017 23:30 7,4 C 7,8 C 94 % 1006,7 hPa 0,0 l/m 15,9 km/h (3 Bft) W-SW 245 0 min 0,000 mm 0,0 UV-I 0 W/m 6,5 C 1,6 C 25,7 km/h (4 Bft) 97,22 %
11.11.2017 23:32 7,4 C 7,8 C 94 % 1006,7 hPa 0,0 l/m 16,8 km/h (3 Bft) SW 225 0 min 0,000 mm 0,0 UV-I 0 W/m 6,5 C 1,2 C 25,7 km/h (4 Bft) 94,55 %
11.11.2017 23:34 7,4 C 7,8 C 94 % 1006,6 hPa 0,0 l/m 18,6 km/h (3 Bft) S-SW 209 0 min 0,000 mm 0,0 UV-I 0 W/m 6,5 C 0,5 C 25,7 km/h (4 Bft) 100,00 %
11.11.2017 23:36 7,4 C 7,8 C 94 % 1006,6 hPa 0,0 l/m 20,1 km/h (4 Bft) W 262 0 min 0,000 mm 0,0 UV-I 0 W/m 6,5 C -0,1 C 32,2 km/h (5 Bft) 100,00 %
11.11.2017 23:38 7,4 C 7,8 C 94 % 1006,8 hPa 0,0 l/m 17,4 km/h (3 Bft) S-SW 201 0 min 0,000 mm 0,0 UV-I 0 W/m 6,5 C 0,9 C 24,1 km/h (4 Bft) 100,00 %
11.11.2017 23:40 7,4 C 7,8 C 94 % 1006,8 hPa 0,0 l/m 17,7 km/h (3 Bft) SW 229 0 min 0,000 mm 0,0 UV-I 0 W/m 6,5 C 0,8 C 25,7 km/h (4 Bft) 100,00 %
11.11.2017 23:42 7,4 C 7,8 C 94 % 1006,6 hPa 0,2 l/m 14,7 km/h (3 Bft) W 261 0 min 0,000 mm 0,0 UV-I 0 W/m 6,5 C 2,1 C 20,9 km/h (4 Bft) 100,00 %
11.11.2017 23:44 7,4 C 7,8 C 95 % 1006,6 hPa 0,0 l/m 16,7 km/h (3 Bft) SW 229 0 min 0,000 mm 0,0 UV-I 0 W/m 6,7 C 1,2 C 27,4 km/h (4 Bft) 100,00 %
11.11.2017 23:46 7,4 C 7,8 C 95 % 1006,6 hPa 0,0 l/m 17,2 km/h (3 Bft) SW 220 0 min 0,000 mm 0,0 UV-I 0 W/m 6,7 C 1,0 C 29,0 km/h (5 Bft) 100,00 %
11.11.2017 23:48 7,4 C 7,8 C 95 % 1006,6 hPa 0,0 l/m 17,3 km/h (3 Bft) SW 229 0 min 0,000 mm 0,0 UV-I 0 W/m 6,7 C 1,0 C 29,0 km/h (5 Bft) 100,00 %
11.11.2017 23:50 7,4 C 7,8 C 95 % 1006,6 hPa 0,0 l/m 18,7 km/h (3 Bft) S-SW 209 0 min 0,000 mm 0,0 UV-I 0 W/m 6,7 C 0,4 C 27,4 km/h (4 Bft) 100,00 %
11.11.2017 23:52 7,4 C 7,8 C 95 % 1006,6 hPa 0,0 l/m 19,7 km/h (3 Bft) SW 233 0 min 0,000 mm 0,0 UV-I 0 W/m 6,7 C 0,0 C 29,0 km/h (5 Bft) 100,00 %
11.11.2017 23:54 7,4 C 7,8 C 95 % 1006,6 hPa 0,0 l/m 18,8 km/h (3 Bft) SW 227 0 min 0,000 mm 0,0 UV-I 0 W/m 6,7 C 0,4 C 27,4 km/h (4 Bft) 100,00 %
11.11.2017 23:56 7,4 C 7,8 C 95 % 1006,6 hPa 0,0 l/m 15,4 km/h (3 Bft) SW 218 0 min 0,000 mm 0,0 UV-I 0 W/m 6,7 C 1,8 C 27,4 km/h (4 Bft) 98,21 %
11.11.2017 23:58 7,4 C 7,8 C 95 % 1006,6 hPa 0,0 l/m 18,1 km/h (3 Bft) W-SW 248 0 min 0,000 mm 0,0 UV-I 0 W/m 6,7 C 0,6 C 29,0 km/h (5 Bft) 97,37 %
_ Min-Zeit 06:36 00:00 12:54 22:44 - 17:30 - - - - - - 13:48 11:26 16:58 10:20
Minimum _ 4,6 C 7,8 C 74 % 1006,6 hPa - 0,8 km/h (0 Bft) - - - - - - 2,3 C -4,6 C 3,2 km/h (1 Bft) 92,00 %
_ Max-Zeit 22:34 00:00 03:26 08:36 00:24 11:26 - - 11:13 12:00 10:50 10:56 23:44 15:04 03:34 00:00
Maximum _ 7,6 C 7,8 C 96 % 1016,6 hPa 0,2 l/m 27,4 km/h
W-SW (4 Bft)
- - 3 min 0,127 mm 0,9 UV-I 351 W/m 6,7 C 6,3 C 40,2 km/h
W (6 Bft)
100,00 %
Durchschnitt _ 5,9 C 7,8 C 90 % 1012,5 hPa #12,2 l/m 13,9 km/h (3 Bft) SW - #59 min. #0,686 mm 0,7 UV-I 96 W/m 4,3 C 0,9 C 21,6 km/h (4 Bft) 98,09 %